Darstellungsparameter: Aktuell verwendete Einstellungen:
Skalierung der Graphiken ... ?
xyx+y,   Skalierungsfaktor:      Skalierung: Modus: x, Faktor: 1
Darstellungszeitraum ... ?
Vom - - bis: - -   Zeitraum: 25.02.2019 - 24.03.2019
Min/Max/Avg-Anzeige ... ?
Zeige MMA aktuell
Zeige MMA Monat
Zeige MMA alles
Zeige --A aktuell
Zeige --A Monat
Zeige --A alles
Keine MMA-Anzeige
MMA:
Keine MMA-Graphiken
MMA-Basis: 25.02.2019 - 24.03.2019
Quicknavigation für Darstellung... ?
Tage:      1T, 2T, 3T, 5T -1T -2T -3T -5T +1T +2T +3T +5T
Wochen: 1W, 2W, 3W -1W -2W -3W +1W +2W +3W
Monate: 1M, 3M, 6M -1M -3M -6M +1M +3M +6M
Jahre:    1J, 3J, 5J, 10J -1J -3J -5J -10J +1J +3J +5J +10J
Nutze für die Darstellung ... ?
Originaldaten oder Mittelwerte auf ...
Stundenbasis Tagesbasis Wochenbasis
Monatsbasis Jahresbasis      Datenbasis: Original-Daten
Darstellen als:
Statistik (Auto) Statistik J:M      Darstellung:
Zur Graphik,    zurück zur Übersicht aller Sensoren.
 
Tabellarische Datenbersicht: ?
 
Sensor: Nr:Datum:Temp:Feuchte:
Aussen-T/F 1 25-02-2019 00:06:18 -0.2 C 30 %
2 25-02-2019 00:18:17 -0.6 C 31 %
3 25-02-2019 00:30:17 -0.6 C 33 %
4 25-02-2019 00:42:17 -0.6 C 34 %
5 25-02-2019 00:54:17 -0.5 C 33 %
6 25-02-2019 01:06:17 -0.4 C 32 %
7 25-02-2019 01:18:18 -0.7 C 32 %
8 25-02-2019 01:30:18 -0.6 C 34 %
9 25-02-2019 01:42:18 -0.9 C 34 %
10 25-02-2019 01:54:18 -1 C 36 %
11 25-02-2019 02:06:17 -1.2 C 37 %
12 25-02-2019 02:18:17 -1.5 C 38 %
13 25-02-2019 02:30:18 -1.4 C 39 %
14 25-02-2019 02:42:18 -1.4 C 40 %
15 25-02-2019 02:54:18 -1.2 C 40 %
16 25-02-2019 03:06:17 -1.2 C 40 %
17 25-02-2019 03:18:17 -1.5 C 38 %
18 25-02-2019 03:30:17 -1.6 C 39 %
19 25-02-2019 03:42:18 -1.7 C 40 %
20 25-02-2019 03:54:17 -1.9 C 40 %
21 25-02-2019 04:06:17 -1.8 C 41 %
22 25-02-2019 04:18:17 -1.9 C 41 %
23 25-02-2019 04:30:18 -1.9 C 42 %
24 25-02-2019 04:42:18 -2 C 41 %
25 25-02-2019 04:54:18 -2.1 C 42 %
Sensor: Nr:Datum:Temp:Feuchte:
Aussen-T/F 26 25-02-2019 05:06:17 -2 C 43 %
27 25-02-2019 05:18:17 -2.4 C 42 %
28 25-02-2019 05:30:17 -2.2 C 44 %
29 25-02-2019 05:42:17 -2.4 C 44 %
30 25-02-2019 05:54:17 -1.7 C 46 %
31 25-02-2019 06:06:18 -1.9 C 45 %
32 25-02-2019 06:18:17 -2.4 C 44 %
33 25-02-2019 06:30:17 -2.6 C 45 %
34 25-02-2019 06:42:17 -2.6 C 46 %
35 25-02-2019 06:54:17 -2.4 C 46 %
36 25-02-2019 07:06:17 -2.7 C 45 %
37 25-02-2019 07:18:18 -2.6 C 46 %
38 25-02-2019 07:30:17 -2.6 C 46 %
39 25-02-2019 07:42:17 -2.8 C 46 %
40 25-02-2019 07:54:17 -2.8 C 46 %
41 25-02-2019 08:06:18 -2.5 C 47 %
42 25-02-2019 08:18:17 -2.5 C 47 %
43 25-02-2019 08:30:17 -2.4 C 47 %
44 25-02-2019 08:42:17 -2.3 C 48 %
45 25-02-2019 08:54:17 -2.2 C 48 %
46 25-02-2019 09:06:17 -2 C 47 %
47 25-02-2019 09:18:17 -1.9 C 46 %
48 25-02-2019 09:30:17 -1.7 C 46 %
49 25-02-2019 09:42:18 -1.7 C 46 %
50 25-02-2019 09:54:17 -1.4 C 45 %
Sensor: Nr:Datum:Temp:Feuchte:
Aussen-T/F 51 25-02-2019 10:06:17 -1.1 C 45 %
52 25-02-2019 10:18:17 -0.7 C 45 %
53 25-02-2019 10:30:18 0.3 C 44 %
54 25-02-2019 10:42:18 2.2 C 36 %
55 25-02-2019 10:54:17 3.4 C 30 %
56 25-02-2019 11:06:18 3.3 C 21 %
57 25-02-2019 11:18:17 5.2 C 20 %
58 25-02-2019 11:30:17 9.9 C 20 %
59 25-02-2019 11:42:17 6.8 C 20 %
60 25-02-2019 11:54:17 6 C 20 %
61 25-02-2019 12:06:17 6.5 C 20 %
62 25-02-2019 12:18:17 6.9 C 20 %
63 25-02-2019 12:30:17 7.4 C 20 %
64 25-02-2019 12:42:18 7.9 C 20 %
65 25-02-2019 12:54:17 8.7 C 20 %
66 25-02-2019 13:06:17 9.5 C 20 %
67 25-02-2019 13:18:18 10.2 C 20 %
68 25-02-2019 13:30:18 11 C 20 %
69 25-02-2019 13:42:18 11.4 C 20 %
70 25-02-2019 13:54:18 11.6 C 20 %
71 25-02-2019 14:06:17 11.6 C 20 %
72 25-02-2019 14:18:17 11.7 C 20 %
73 25-02-2019 14:30:17 12.3 C 20 %
74 25-02-2019 14:42:17 12.8 C 20 %
75 25-02-2019 14:54:17 13 C 20 %
Sensor: Nr:Datum:Temp:Feuchte:
Aussen-T/F 76 25-02-2019 15:06:17 12.9 C 20 %
77 25-02-2019 15:18:17 12.7 C 20 %
78 25-02-2019 15:30:18 12.7 C 20 %
79 25-02-2019 15:42:18 12.5 C 20 %
80 25-02-2019 15:54:17 12.8 C 20 %
81 25-02-2019 16:06:17 13 C 20 %
82 25-02-2019 16:18:17 13.1 C 20 %
83 25-02-2019 16:30:17 14.3 C 20 %
84 25-02-2019 16:42:17 14.2 C 20 %
85 25-02-2019 16:54:17 14.2 C 20 %
86 25-02-2019 17:06:17 14.2 C 20 %
87 25-02-2019 17:18:18 14.7 C 20 %
88 25-02-2019 17:30:17 14.4 C 20 %
89 25-02-2019 17:42:17 12 C 20 %
90 25-02-2019 17:54:17 11.2 C 20 %
91 25-02-2019 18:06:17 10.3 C 20 %
92 25-02-2019 18:18:18 9.8 C 20 %
93 25-02-2019 18:30:18 9.4 C 20 %
94 25-02-2019 18:42:18 8.9 C 20 %
95 25-02-2019 18:54:17 7.9 C 20 %
96 25-02-2019 19:06:18 7.2 C 20 %
97 25-02-2019 19:18:18 6.8 C 20 %
98 25-02-2019 19:30:17 6.3 C 20 %
99 25-02-2019 19:42:17 6 C 20 %
100 25-02-2019 19:54:17 5.9 C 20 %
Sensor: Nr:Datum:Temp:Feuchte:
Aussen-T/F 101 25-02-2019 20:06:18 5.6 C 20 %
102 25-02-2019 20:18:18 5.6 C 20 %
103 25-02-2019 20:30:18 4.7 C 25 %
104 25-02-2019 20:42:18 4.6 C 26 %
105 25-02-2019 20:54:17 4.2 C 27 %
106 25-02-2019 21:06:18 4 C 28 %
107 25-02-2019 21:18:17 3.5 C 28 %
108 25-02-2019 21:30:18 3.3 C 29 %
109 25-02-2019 21:42:18 3.1 C 32 %
110 25-02-2019 21:54:17 2.9 C 35 %
111 25-02-2019 22:06:17 2.7 C 34 %
112 25-02-2019 22:18:17 2.7 C 35 %
113 25-02-2019 22:30:18 2.3 C 35 %
114 25-02-2019 22:42:18 2.2 C 36 %
115 25-02-2019 22:54:17 1.9 C 38 %
116 25-02-2019 23:06:18 1.9 C 39 %
117 25-02-2019 23:18:17 1.9 C 40 %
118 25-02-2019 23:30:18 1.4 C 40 %
119 25-02-2019 23:42:18 1.1 C 41 %
120 25-02-2019 23:54:18 1.1 C 42 %
121 26-02-2019 00:06:17 0.9 C 44 %
122 26-02-2019 00:18:17 0.8 C 44 %
123 26-02-2019 00:30:18 0.7 C 45 %
124 26-02-2019 00:42:18 0.3 C 45 %
125 26-02-2019 00:54:18 0.2 C 47 %
Sensor: Nr:Datum:Temp:Feuchte:
Aussen-T/F 126 26-02-2019 01:06:18 0.3 C 49 %
127 26-02-2019 01:18:17 0.4 C 50 %
128 26-02-2019 01:30:18 0.4 C 50 %
129 26-02-2019 01:42:18 0.4 C 50 %
130 26-02-2019 01:54:17 -0.1 C 49 %
131 26-02-2019 02:06:18 -0.2 C 50 %
132 26-02-2019 02:18:18 -0.2 C 50 %
133 26-02-2019 02:30:17 -0.4 C 50 %
134 26-02-2019 02:42:18 -0.4 C 51 %
135 26-02-2019 02:54:17 -0.8 C 50 %
136 26-02-2019 03:06:18 -1 C 51 %
137 26-02-2019 03:18:18 -1 C 52 %
138 26-02-2019 03:30:17 -0.8 C 53 %
139 26-02-2019 03:42:17 -0.9 C 53 %
140 26-02-2019 03:54:17 -0.9 C 53 %
141 26-02-2019 04:06:18 -1.2 C 53 %
142 26-02-2019 04:18:18 -1.2 C 53 %
143 26-02-2019 04:30:17 -1.3 C 54 %
144 26-02-2019 04:42:17 -1.5 C 54 %
145 26-02-2019 04:54:17 -1.4 C 54 %
146 26-02-2019 05:06:18 -1.3 C 54 %
147 26-02-2019 05:18:17 -1.4 C 54 %
148 26-02-2019 05:30:18 -0.8 C 56 %
149 26-02-2019 05:42:18 -0.7 C 55 %
150 26-02-2019 05:54:17 -1 C 54 %
Sensor: Nr:Datum:Temp:Feuchte:
Aussen-T/F 151 26-02-2019 06:06:18 -1.7 C 52 %
152 26-02-2019 06:18:18 -1.9 C 53 %
153 26-02-2019 06:30:17 -1.8 C 54 %
154 26-02-2019 06:42:17 -1.9 C 54 %
155 26-02-2019 06:54:17 -1.9 C 54 %
156 26-02-2019 07:06:18 -1.5 C 55 %
157 26-02-2019 07:18:18 -2.1 C 54 %
158 26-02-2019 07:30:17 -2.2 C 54 %
159 26-02-2019 07:42:17 -1.8 C 55 %
160 26-02-2019 07:54:18 -1.6 C 55 %
161 26-02-2019 08:06:18 -1.4 C 55 %
162 26-02-2019 08:18:18 -1.5 C 55 %
163 26-02-2019 08:30:18 -1.1 C 55 %
164 26-02-2019 08:42:18 -0.7 C 56 %
165 26-02-2019 08:54:18 -0.4 C 56 %
166 26-02-2019 09:06:17 -0.4 C 55 %
167 26-02-2019 09:18:18 -0.1 C 55 %
168 26-02-2019 09:30:18 0 C 55 %
169 26-02-2019 09:42:18 0.1 C 54 %
170 26-02-2019 09:54:18 0.4 C 55 %
171 26-02-2019 10:06:18 0.8 C 55 %
172 26-02-2019 10:18:17 1 C 53 %
173 26-02-2019 10:30:18 1.2 C 53 %
174 26-02-2019 10:42:18 3.7 C 48 %
175 26-02-2019 10:54:18 4.8 C 41 %
Sensor: Nr:Datum:Temp:Feuchte:
Aussen-T/F 176 26-02-2019 11:06:17 5.4 C 36 %
177 26-02-2019 11:18:17 5.8 C 32 %
178 26-02-2019 11:30:18 10.9 C 20 %
179 26-02-2019 11:42:18 7 C 20 %
180 26-02-2019 11:54:18 7.1 C 23 %
181 26-02-2019 12:06:18 7.4 C 23 %
182 26-02-2019 12:18:17 7.6 C 21 %
183 26-02-2019 12:30:18 8.9 C 20 %
184 26-02-2019 12:42:18 9.4 C 20 %
185 26-02-2019 12:54:17 9.9 C 20 %
186 26-02-2019 13:06:18 10.5 C 20 %
187 26-02-2019 13:18:17 11.2 C 20 %
188 26-02-2019 13:30:18 12 C 20 %
189 26-02-2019 13:42:18 12.4 C 20 %
190 26-02-2019 13:54:17 12.6 C 20 %
191 26-02-2019 14:06:18 12.7 C 20 %
192 26-02-2019 14:18:17 12.7 C 20 %
193 26-02-2019 14:30:18 12.9 C 20 %
194 26-02-2019 14:42:18 13.2 C 20 %
195 26-02-2019 14:54:17 13.4 C 20 %
196 26-02-2019 15:06:17 13.8 C 20 %
197 26-02-2019 15:18:17 14 C 20 %
198 26-02-2019 15:30:17 14.1 C 20 %
199 26-02-2019 15:42:17 14.4 C 20 %
200 26-02-2019 15:54:17 14.3 C 20 %
Sensor: Nr:Datum:Temp:Feuchte:
Aussen-T/F 201 26-02-2019 16:06:17 14.6 C 20 %
202 26-02-2019 16:18:18 14.6 C 20 %
203 26-02-2019 16:30:18 14.9 C 20 %
204 26-02-2019 16:42:18 14.9 C 20 %
205 26-02-2019 16:54:17 15 C 20 %
206 26-02-2019 17:06:17 15 C 20 %
207 26-02-2019 17:18:17 15.6 C 20 %
208 26-02-2019 17:30:17 15.6 C 20 %
209 26-02-2019 17:42:17 13.2 C 20 %
210 26-02-2019 17:54:17 12.4 C 20 %
211 26-02-2019 18:06:17 11.6 C 20 %
212 26-02-2019 18:18:17 11.2 C 20 %
213 26-02-2019 18:30:17 10.7 C 20 %
214 26-02-2019 18:42:17 10.1 C 20 %
215 26-02-2019 18:54:17 9 C 20 %
216 26-02-2019 19:06:17 8.7 C 20 %
217 26-02-2019 19:18:17 8.4 C 20 %
218 26-02-2019 19:30:18 7.9 C 23 %
219 26-02-2019 19:42:18 7.5 C 25 %
220 26-02-2019 19:54:17 7 C 26 %
221 26-02-2019 20:06:17 6.6 C 26 %
222 26-02-2019 20:18:17 6.4 C 27 %
223 26-02-2019 20:30:17 5.9 C 28 %
224 26-02-2019 20:42:18 5.7 C 28 %
225 26-02-2019 20:54:17 5.1 C 30 %
Sensor: Nr:Datum:Temp:Feuchte:
Aussen-T/F 226 26-02-2019 21:06:17 4.9 C 31 %
227 26-02-2019 21:18:18 4.7 C 33 %
228 26-02-2019 21:30:18 4.8 C 35 %
229 26-02-2019 21:42:18 4.7 C 33 %
230 26-02-2019 21:54:17 4.4 C 34 %
231 26-02-2019 22:06:17 4.4 C 35 %
232 26-02-2019 22:18:17 3.9 C 35 %
233 26-02-2019 22:30:17 3.7 C 35 %
234 26-02-2019 22:42:18 3.3 C 38 %
235 26-02-2019 22:54:17 3.5 C 41 %
236 26-02-2019 23:06:17 3 C 40 %
237 26-02-2019 23:18:17 3.2 C 42 %
238 26-02-2019 23:30:18 2.5 C 41 %
239 26-02-2019 23:42:18 2.3 C 42 %
240 26-02-2019 23:54:17 2.3 C 45 %
241 27-02-2019 00:06:17 2.1 C 45 %
242 27-02-2019 00:18:17 2 C 46 %
243 27-02-2019 00:30:17 1.9 C 47 %
244 27-02-2019 00:42:17 1.4 C 48 %
245 27-02-2019 00:54:17 1.5 C 50 %
246 27-02-2019 01:06:17 1.2 C 50 %
247 27-02-2019 01:18:18 1.2 C 51 %
248 27-02-2019 01:30:18 1.2 C 51 %
249 27-02-2019 01:42:18 0.9 C 52 %
250 27-02-2019 01:54:18 0.5 C 52 %
Sensor: Nr:Datum:Temp:Feuchte:
Aussen-T/F 251 27-02-2019 02:06:17 0.6 C 53 %
252 27-02-2019 02:18:17 0.4 C 54 %
253 27-02-2019 02:30:17 0.9 C 56 %
254 27-02-2019 02:42:18 0.4 C 55 %
255 27-02-2019 02:54:18 0.1 C 54 %
256 27-02-2019 03:06:17 0.1 C 55 %
257 27-02-2019 03:18:17 -0.2 C 55 %
258 27-02-2019 03:30:17 -0.4 C 55 %
259 27-02-2019 03:42:17 -0.3 C 55 %
260 27-02-2019 03:54:17 -0.6 C 55 %
261 27-02-2019 04:06:17 -0.7 C 55 %
262 27-02-2019 04:18:18 -0.8 C 56 %
263 27-02-2019 04:30:17 -0.9 C 56 %
264 27-02-2019 04:42:17 -0.9 C 56 %
265 27-02-2019 04:54:17 -0.9 C 56 %
266 27-02-2019 05:06:17 -0.9 C 56 %
267 27-02-2019 05:18:17 -1 C 56 %
268 27-02-2019 05:30:18 -1 C 57 %
269 27-02-2019 05:42:18 -1.1 C 57 %
270 27-02-2019 05:54:17 -1.3 C 56 %
271 27-02-2019 06:06:17 -1.3 C 57 %
272 27-02-2019 06:18:17 -1.4 C 57 %
273 27-02-2019 06:30:17 -1.3 C 59 %
274 27-02-2019 06:42:17 -1.6 C 57 %
275 27-02-2019 06:54:18 -1.7 C 58 %
Sensor: Nr:Datum:Temp:Feuchte:
Aussen-T/F 276 27-02-2019 07:06:18 -1.7 C 59 %
277 27-02-2019 07:18:17 -1.8 C 58 %
278 27-02-2019 07:30:17 -1.9 C 58 %
279 27-02-2019 07:42:17 -1.9 C 59 %
280 27-02-2019 07:54:18 -1.8 C 61 %
281 27-02-2019 08:06:18 -1.7 C 62 %
282 27-02-2019 08:18:17 -1.7 C 62 %
283 27-02-2019 08:30:17 -1.6 C 62 %
284 27-02-2019 08:42:17 -1.4 C 64 %
285 27-02-2019 08:54:17 -1.1 C 66 %
286 27-02-2019 09:06:17 -0.9 C 66 %
287 27-02-2019 09:18:18 -0.9 C 66 %
288 27-02-2019 09:30:17 -0.7 C 66 %
289 27-02-2019 09:42:17 -0.5 C 67 %
290 27-02-2019 09:54:17 -0.1 C 69 %
291 27-02-2019 10:06:17 0.1 C 70 %
292 27-02-2019 10:18:18 0.4 C 71 %
293 27-02-2019 10:30:18 0.8 C 72 %
294 27-02-2019 10:42:18 2.9 C 75 %
295 27-02-2019 10:54:17 4.7 C 71 %
296 27-02-2019 11:06:17 5.3 C 46 %
297 27-02-2019 11:18:17 5.7 C 39 %
298 27-02-2019 11:30:18 9 C 20 %
299 27-02-2019 11:42:18 6.9 C 25 %
300 27-02-2019 11:54:17 7.4 C 25 %
Sensor: Nr:Datum:Temp:Feuchte:
Aussen-T/F 301 27-02-2019 12:06:17 7.5 C 25 %
302 27-02-2019 12:18:17 8.7 C 25 %
303 27-02-2019 12:30:17 9.1 C 20 %
304 27-02-2019 12:42:17 9.5 C 20 %
305 27-02-2019 12:54:17 10 C 20 %
306 27-02-2019 13:06:17 11.4 C 20 %
307 27-02-2019 13:18:17 12.1 C 20 %
308 27-02-2019 13:30:17 12.6 C 20 %
309 27-02-2019 13:42:17 13.1 C 20 %
310 27-02-2019 13:54:17 13.2 C 20 %
311 27-02-2019 14:06:17 13.6 C 20 %
312 27-02-2019 14:18:17 13.4 C 20 %
313 27-02-2019 14:30:18 14 C 20 %
314 27-02-2019 14:42:18 14.1 C 20 %
315 27-02-2019 14:54:18 13.9 C 20 %
316 27-02-2019 15:06:17 14 C 20 %
317 27-02-2019 15:18:18 14.8 C 20 %
318 27-02-2019 15:30:17 15 C 20 %
319 27-02-2019 15:42:17 15 C 20 %
320 27-02-2019 15:54:17 15.4 C 20 %
321 27-02-2019 16:06:17 15.5 C 20 %
322 27-02-2019 16:18:18 15.4 C 20 %
323 27-02-2019 16:30:17 15.5 C 20 %
324 27-02-2019 16:42:17 15.9 C 20 %
325 27-02-2019 16:54:17 15.8 C 20 %
Sensor: Nr:Datum:Temp:Feuchte:
Aussen-T/F 326 27-02-2019 17:06:17 15.9 C 20 %
327 27-02-2019 17:18:18 16.9 C 20 %
328 27-02-2019 17:30:18 16.8 C 20 %
329 27-02-2019 17:42:18 14 C 20 %
330 27-02-2019 17:54:18 13.2 C 20 %
331 27-02-2019 18:06:17 12.5 C 20 %
332 27-02-2019 18:18:17 12.5 C 20 %
333 27-02-2019 18:30:17 12 C 20 %
334 27-02-2019 18:42:17 11.2 C 20 %
335 27-02-2019 18:54:17 10.6 C 20 %
336 27-02-2019 19:06:17 10 C 20 %
337 27-02-2019 19:18:17 9.5 C 20 %
338 27-02-2019 19:30:17 9.5 C 20 %
339 27-02-2019 19:42:17 8.4 C 20 %
340 27-02-2019 19:54:17 7.7 C 20 %
341 27-02-2019 20:06:17 7.8 C 20 %
342 27-02-2019 20:18:17 7.3 C 20 %
343 27-02-2019 20:30:18 6.5 C 20 %
344 27-02-2019 20:42:18 5.9 C 20 %
345 27-02-2019 20:54:18 5.6 C 20 %
346 27-02-2019 21:06:17 5.6 C 20 %
347 27-02-2019 21:18:17 5.1 C 20 %
348 27-02-2019 21:30:18 4.7 C 20 %
349 27-02-2019 21:42:18 4.5 C 25 %
350 27-02-2019 21:54:18 4.1 C 23 %
Sensor: Nr:Datum:Temp:Feuchte:
Aussen-T/F 351 27-02-2019 22:06:17 4.1 C 27 %
352 27-02-2019 22:18:17 4 C 26 %
353 27-02-2019 22:30:18 3.5 C 29 %
354 27-02-2019 22:42:18 3.4 C 30 %
355 27-02-2019 22:54:18 3.4 C 31 %
356 27-02-2019 23:06:17 3.2 C 30 %
357 27-02-2019 23:18:17 3.1 C 31 %
358 27-02-2019 23:30:17 2.8 C 32 %
359 27-02-2019 23:42:17 2.8 C 35 %
360 27-02-2019 23:54:18 2.7 C 35 %
361 28-02-2019 00:06:18 3 C 36 %
362 28-02-2019 00:18:17 4 C 34 %
363 28-02-2019 00:30:17 4.5 C 29 %
364 28-02-2019 00:42:17 5.2 C 26 %
365 28-02-2019 00:54:17 4.9 C 25 %
366 28-02-2019 01:06:17 4.3 C 25 %
367 28-02-2019 01:18:17 3.4 C 28 %
368 28-02-2019 01:30:18 3.1 C 32 %
369 28-02-2019 01:42:18 2.7 C 33 %
370 28-02-2019 01:54:18 2.6 C 36 %
371 28-02-2019 02:06:17 2.8 C 38 %
372 28-02-2019 02:18:17 2.5 C 36 %
373 28-02-2019 02:30:18 2.4 C 37 %
374 28-02-2019 02:42:18 2.6 C 41 %
375 28-02-2019 02:54:17 2.4 C 40 %
Sensor: Nr:Datum:Temp:Feuchte:
Aussen-T/F 376 28-02-2019 03:06:17 1.5 C 39 %
377 28-02-2019 03:18:17 1.4 C 40 %
378 28-02-2019 03:30:17 1.8 C 45 %
379 28-02-2019 03:42:18 2.1 C 45 %
380 28-02-2019 03:54:17 1.9 C 44 %
381 28-02-2019 04:06:17 1 C 43 %
382 28-02-2019 04:18:18 0.5 C 45 %
383 28-02-2019 04:30:18 1 C 48 %
384 28-02-2019 04:42:18 1.2 C 48 %
385 28-02-2019 04:54:17 1.4 C 49 %
386 28-02-2019 05:06:17 1.4 C 49 %
387 28-02-2019 05:18:17 1.1 C 48 %
388 28-02-2019 05:30:17 1.3 C 49 %
389 28-02-2019 05:42:17 1.2 C 48 %
390 28-02-2019 05:54:17 1.5 C 50 %
391 28-02-2019 06:06:17 1.6 C 49 %
392 28-02-2019 06:18:17 1.5 C 48 %
393 28-02-2019 06:30:17 1.8 C 49 %
394 28-02-2019 06:42:17 3.5 C 38 %
395 28-02-2019 06:54:17 3.4 C 35 %
396 28-02-2019 07:06:17 3.3 C 34 %
397 28-02-2019 07:18:17 2.9 C 37 %
398 28-02-2019 07:30:17 2.4 C 37 %
399 28-02-2019 07:42:17 2.2 C 39 %
400 28-02-2019 07:54:17 1.8 C 41 %
Sensor: Nr:Datum:Temp:Feuchte:
Aussen-T/F 401 28-02-2019 08:06:17 1.3 C 41 %
402 28-02-2019 08:18:18 1.4 C 44 %
403 28-02-2019 08:30:18 2.4 C 46 %
404 28-02-2019 08:42:18 3.2 C 43 %
405 28-02-2019 08:54:17 3.7 C 38 %
406 28-02-2019 09:06:17 3.8 C 37 %
407 28-02-2019 09:18:17 3.9 C 37 %
408 28-02-2019 09:30:17 4.4 C 35 %
409 28-02-2019 09:42:17 4.3 C 36 %
410 28-02-2019 09:54:17 4.6 C 37 %
411 28-02-2019 10:06:18 5.5 C 37 %
412 28-02-2019 10:18:18 6.7 C 32 %
413 28-02-2019 10:30:18 9 C 25 %
414 28-02-2019 10:42:18 9.1 C 23 %
415 28-02-2019 10:54:17 10 C 20 %
416 28-02-2019 11:06:17 11 C 20 %
417 28-02-2019 11:18:17 11.4 C 20 %
418 28-02-2019 11:30:17 12.3 C 20 %
419 28-02-2019 11:42:17 12.4 C 20 %
420 28-02-2019 11:54:17 12.5 C 20 %
421 28-02-2019 12:06:17 12.7 C 20 %
422 28-02-2019 12:18:18 13 C 20 %
423 28-02-2019 12:30:18 13.2 C 20 %
424 28-02-2019 12:42:18 13.5 C 20 %
425 28-02-2019 12:54:17 13.7 C 20 %
Sensor: Nr:Datum:Temp:Feuchte:
Aussen-T/F 426 28-02-2019 13:06:17 14 C 20 %
427 28-02-2019 13:18:17 14.2 C 20 %
428 28-02-2019 13:30:17 14.6 C 20 %
429 28-02-2019 13:42:18 14.8 C 20 %
430 28-02-2019 13:54:17 15.2 C 20 %
431 28-02-2019 14:06:17 15.4 C 20 %
432 28-02-2019 14:18:17 15.8 C 20 %
433 28-02-2019 14:30:18 16.3 C 20 %
434 28-02-2019 14:42:18 16.8 C 20 %
435 28-02-2019 14:54:18 17.2 C 20 %
436 28-02-2019 15:06:18 16.9 C 20 %
437 28-02-2019 15:18:17 16.7 C 20 %
438 28-02-2019 15:30:17 16.4 C 20 %
439 28-02-2019 15:42:17 16.1 C 20 %
440 28-02-2019 15:54:17 15.6 C 20 %
441 28-02-2019 16:06:17 16.2 C 20 %
442 28-02-2019 16:18:17 16 C 20 %
443 28-02-2019 16:30:17 15.2 C 20 %
444 28-02-2019 16:42:17 14.1 C 20 %
445 28-02-2019 16:54:17 12.9 C 20 %
446 28-02-2019 17:06:17 12.7 C 20 %
447 28-02-2019 17:18:17 12.5 C 20 %
448 28-02-2019 17:30:18 12.3 C 20 %
449 28-02-2019 17:42:18 12.2 C 20 %
450 28-02-2019 17:54:17 12 C 20 %
Sensor: Nr:Datum:Temp:Feuchte:
Aussen-T/F 451 28-02-2019 18:06:17 11.9 C 20 %
452 28-02-2019 18:18:17 11.8 C 20 %
453 28-02-2019 18:30:18 11.7 C 20 %
454 28-02-2019 18:42:18 11.6 C 20 %
455 28-02-2019 18:54:18 11.4 C 20 %
456 28-02-2019 19:06:18 11.2 C 20 %
457 28-02-2019 19:18:17 11 C 20 %
458 28-02-2019 19:30:17 10.4 C 20 %
459 28-02-2019 19:42:17 10.6 C 20 %
460 28-02-2019 19:54:17 10.6 C 20 %
461 28-02-2019 20:06:17 10.7 C 20 %
462 28-02-2019 20:18:17 10.7 C 20 %
463 28-02-2019 20:30:18 10.7 C 20 %
464 28-02-2019 20:42:18 10.8 C 21 %
465 28-02-2019 20:54:17 10.7 C 22 %
466 28-02-2019 21:06:17 10.6 C 26 %
467 28-02-2019 21:18:18 10.4 C 26 %
468 28-02-2019 21:30:17 10.4 C 26 %
469 28-02-2019 21:42:17 10.6 C 25 %
470 28-02-2019 21:54:17 10.5 C 25 %
471 28-02-2019 22:06:17 10.5 C 26 %
472 28-02-2019 22:18:17 10.3 C 26 %
473 28-02-2019 22:30:17 10.4 C 27 %
474 28-02-2019 22:42:17 10.3 C 27 %
475 28-02-2019 22:54:17 9.9 C 32 %
Sensor: Nr:Datum:Temp:Feuchte:
Aussen-T/F 476 28-02-2019 23:06:17 9.8 C 31 %
477 28-02-2019 23:18:17 9.8 C 31 %
478 28-02-2019 23:30:17 9.3 C 39 %
479 28-02-2019 23:42:17 8.8 C 44 %
480 28-02-2019 23:54:17 8.6 C 48 %
481 01-03-2019 00:06:17 8.4 C 50 %
482 01-03-2019 00:18:17 8.3 C 50 %
483 01-03-2019 00:30:17 8.3 C 50 %
484 01-03-2019 00:42:18 7.8 C 50 %
485 01-03-2019 00:54:17 7.6 C 51 %
486 01-03-2019 01:06:18 8 C 52 %
487 01-03-2019 01:18:18 8 C 51 %
488 01-03-2019 01:30:18 8 C 50 %
489 01-03-2019 01:42:18 8 C 49 %
490 01-03-2019 01:54:17 7.9 C 49 %
491 01-03-2019 02:06:17 8 C 46 %
492 01-03-2019 02:18:17 8.3 C 43 %
493 01-03-2019 02:30:17 8.2 C 42 %
494 01-03-2019 02:42:17 8.2 C 43 %
495 01-03-2019 02:54:17 8.4 C 40 %
496 01-03-2019 03:06:17 8.4 C 39 %
497 01-03-2019 03:18:17 8.6 C 39 %
498 01-03-2019 03:30:17 8.5 C 39 %
499 01-03-2019 03:42:17 8.6 C 37 %
500 01-03-2019 03:54:17 8.4 C 37 %
Sensor: Nr:Datum:Temp:Feuchte:
Aussen-T/F 501 01-03-2019 04:06:17 8.2 C 40 %
502 01-03-2019 04:18:17 8.2 C 40 %
503 01-03-2019 04:30:17 8.1 C 41 %
504 01-03-2019 04:42:17 8.2 C 40 %
505 01-03-2019 04:54:17 8.2 C 40 %
506 01-03-2019 05:06:17 8.1 C 40 %
507 01-03-2019 05:18:17 7.7 C 43 %
508 01-03-2019 05:30:17 7.5 C 47 %
509 01-03-2019 05:42:17 7.5 C 50 %
510 01-03-2019 05:54:17 7.5 C 51 %
511 01-03-2019 06:06:17 7.5 C 52 %
512 01-03-2019 06:18:17 7.4 C 52 %
513 01-03-2019 06:30:17 7.1 C 52 %
514 01-03-2019 06:42:17 7.1 C 53 %
515 01-03-2019 06:54:18 7.2 C 53 %
516 01-03-2019 07:06:17 7.4 C 53 %
517 01-03-2019 07:18:18 7.4 C 53 %
518 01-03-2019 07:30:17 7.5 C 52 %
519 01-03-2019 07:42:17 7.6 C 52 %
520 01-03-2019 07:54:17 7.6 C 52 %
521 01-03-2019 08:06:17 7.7 C 52 %
522 01-03-2019 08:18:17 7.9 C 51 %
523 01-03-2019 08:30:17 7.9 C 51 %
524 01-03-2019 08:42:18 8 C 50 %
525 01-03-2019 08:54:17 8 C 50 %
Sensor: Nr:Datum:Temp:Feuchte:
Aussen-T/F 526 01-03-2019 09:06:17 8 C 50 %
527 01-03-2019 09:18:17 8 C 50 %
528 01-03-2019 09:30:17 8.1 C 51 %
529 01-03-2019 09:42:17 7.9 C 51 %
530 01-03-2019 09:54:17 7.8 C 51 %
531 01-03-2019 10:06:17 7.9 C 51 %
532 01-03-2019 10:18:18 7.9 C 51 %
533 01-03-2019 10:30:17 8.1 C 51 %
534 01-03-2019 10:42:17 8.2 C 50 %
535 01-03-2019 10:54:17 8.1 C 50 %
536 01-03-2019 11:06:17 8 C 49 %
537 01-03-2019 11:18:17 8 C 49 %
538 01-03-2019 11:30:18 7.9 C 49 %
539 01-03-2019 11:42:18 8.4 C 48 %
540 01-03-2019 11:54:18 8.7 C 45 %
541 01-03-2019 12:06:17 8.7 C 41 %
542 01-03-2019 12:18:17 8.6 C 38 %
543 01-03-2019 12:30:17 8.7 C 36 %
544 01-03-2019 12:42:17 8.5 C 36 %
545 01-03-2019 12:54:17 8.4 C 36 %
546 01-03-2019 13:06:17 8.2 C 38 %
547 01-03-2019 13:18:17 8.1 C 40 %
548 01-03-2019 13:30:17 7.9 C 40 %
549 01-03-2019 13:42:17 8 C 40 %
550 01-03-2019 13:54:17 7.9 C 40 %
Sensor: Nr:Datum:Temp:Feuchte:
Aussen-T/F 551 01-03-2019 14:06:18 7.9 C 40 %
552 01-03-2019 14:18:18 8 C 39 %
553 01-03-2019 14:30:18 8 C 37 %
554 01-03-2019 14:42:18 8 C 36 %
555 01-03-2019 14:54:17 8 C 36 %
556 01-03-2019 15:06:17 7.9 C 37 %
557 01-03-2019 15:18:17 7.9 C 37 %
558 01-03-2019 15:30:18 7.9 C 38 %
559 01-03-2019 15:42:18 7.8 C 39 %
560 01-03-2019 15:54:17 7.8 C 40 %
561 01-03-2019 16:06:17 7.9 C 39 %
562 01-03-2019 16:18:17 7.9 C 40 %
563 01-03-2019 16:30:17 7.8 C 41 %
564 01-03-2019 16:42:18 7.9 C 41 %
565 01-03-2019 16:54:17 7.8 C 42 %
566 01-03-2019 17:06:18 7.7 C 42 %
567 01-03-2019 17:18:17 7.6 C 42 %
568 01-03-2019 17:30:17 7.6 C 43 %
569 01-03-2019 17:42:17 7.7 C 42 %
570 01-03-2019 17:54:17 7.7 C 41 %
571 01-03-2019 18:06:17 7.3 C 40 %
572 01-03-2019 18:18:17 7.2 C 39 %
573 01-03-2019 18:30:17 7 C 39 %
574 01-03-2019 18:42:17 6.9 C 39 %
575 01-03-2019 18:54:17 6.7 C 40 %
Sensor: Nr:Datum:Temp:Feuchte:
Aussen-T/F 576 01-03-2019 19:06:17 6.5 C 40 %
577 01-03-2019 19:18:17 6.3 C 40 %
578 01-03-2019 19:30:17 6.2 C 41 %
579 01-03-2019 19:42:17 6.2 C 41 %
580 01-03-2019 19:54:17 6.2 C 41 %
581 01-03-2019 20:06:17 6.2 C 41 %
582 01-03-2019 20:18:17 6.1 C 41 %
583 01-03-2019 20:30:18 6.1 C 41 %
584 01-03-2019 20:42:18 6 C 42 %
585 01-03-2019 20:54:18 5.9 C 43 %
586 01-03-2019 21:06:18 5.8 C 44 %
587 01-03-2019 21:18:17 5.9 C 44 %
588 01-03-2019 21:30:17 6 C 41 %
589 01-03-2019 21:42:17 6 C 40 %
590 01-03-2019 21:54:17 5.8 C 41 %
591 01-03-2019 22:06:18 5.7 C 43 %
592 01-03-2019 22:18:17 5.7 C 44 %
593 01-03-2019 22:30:17 5.8 C 43 %
594 01-03-2019 22:42:17 6 C 38 %
595 01-03-2019 22:54:17 6 C 38 %
596 01-03-2019 23:06:17 6 C 36 %
597 01-03-2019 23:18:17 6 C 37 %
598 01-03-2019 23:30:17 5.8 C 38 %
599 01-03-2019 23:42:17 5.7 C 41 %
600 01-03-2019 23:54:17 5.6 C 43 %
Sensor: Nr:Datum:Temp:Feuchte:
Aussen-T/F 601 02-03-2019 00:06:18 5.5 C 43 %
602 02-03-2019 00:18:18 5.4 C 44 %
603 02-03-2019 00:30:17 5.6 C 42 %
604 02-03-2019 00:42:17 5.6 C 38 %
605 02-03-2019 00:54:17 5.4 C 37 %
606 02-03-2019 01:06:17 5.3 C 39 %
607 02-03-2019 01:18:17 5.2 C 40 %
608 02-03-2019 01:30:17 5.1 C 41 %
609 02-03-2019 01:42:17 5 C 42 %
610 02-03-2019 01:54:17 5.1 C 43 %
611 02-03-2019 02:06:18 5 C 45 %
612 02-03-2019 02:18:17 5 C 45 %
613 02-03-2019 02:30:17 5.1 C 42 %
614 02-03-2019 02:42:17 5 C 42 %
615 02-03-2019 02:54:17 5 C 43 %
616 02-03-2019 03:06:17 5 C 44 %
617 02-03-2019 03:18:17 5.1 C 41 %
618 02-03-2019 03:30:17 5.1 C 41 %
619 02-03-2019 03:42:17 5.1 C 41 %
620 02-03-2019 03:54:17 5.1 C 41 %
621 02-03-2019 04:06:17 5 C 41 %
622 02-03-2019 04:18:18 5 C 43 %
623 02-03-2019 04:30:18 5 C 44 %
624 02-03-2019 04:42:18 5.3 C 44 %
625 02-03-2019 04:54:18 5.3 C 43 %
Sensor: Nr:Datum:Temp:Feuchte:
Aussen-T/F 626 02-03-2019 05:06:17 5.4 C 42 %
627 02-03-2019 05:18:17 5.7 C 43 %
628 02-03-2019 05:30:17 5.8 C 41 %
629 02-03-2019 05:42:17 5.8 C 41 %
630 02-03-2019 05:54:17 5.7 C 42 %
631 02-03-2019 06:06:17 5.7 C 44 %
632 02-03-2019 06:18:17 5.6 C 45 %
633 02-03-2019 06:30:17 5.7 C 46 %
634 02-03-2019 06:42:18 5.7 C 45 %
635 02-03-2019 06:54:17 5.9 C 43 %
636 02-03-2019 07:06:18 6.2 C 40 %
637 02-03-2019 07:18:17 6.1 C 41 %
638 02-03-2019 07:30:17 6.1 C 41 %
639 02-03-2019 07:42:17 6.2 C 41 %
640 02-03-2019 07:54:17 6.3 C 41 %
641 02-03-2019 08:06:18 6.3 C 41 %
642 02-03-2019 08:18:17 6.5 C 40 %
643 02-03-2019 08:30:17 6.6 C 40 %
644 02-03-2019 08:42:17 6.9 C 40 %
645 02-03-2019 08:54:17 7 C 38 %
646 02-03-2019 09:06:17 7.1 C 37 %
647 02-03-2019 09:18:17 7.2 C 36 %
648 02-03-2019 09:30:17 7.4 C 36 %
649 02-03-2019 09:42:18 7.5 C 35 %
650 02-03-2019 09:54:17 7.5 C 35 %
Sensor: Nr:Datum:Temp:Feuchte:
Aussen-T/F 651 02-03-2019 10:06:18 7.4 C 36 %
652 02-03-2019 10:18:17 7.6 C 36 %
653 02-03-2019 10:30:17 7.6 C 35 %
654 02-03-2019 10:42:17 7.8 C 35 %
655 02-03-2019 10:54:17 8.2 C 33 %
656 02-03-2019 11:06:17 8.5 C 32 %
657 02-03-2019 11:18:18 8.8 C 31 %
658 02-03-2019 11:30:18 9.2 C 30 %
659 02-03-2019 11:42:18 9.4 C 30 %
660 02-03-2019 11:54:18 9.5 C 30 %
661 02-03-2019 12:06:18 10 C 28 %
662 02-03-2019 12:18:17 10.4 C 27 %
663 02-03-2019 12:30:17 10.5 C 26 %
664 02-03-2019 12:42:17 10.1 C 27 %
665 02-03-2019 12:54:17 10 C 28 %
666 02-03-2019 13:06:18 11 C 25 %
667 02-03-2019 13:18:17 11.1 C 24 %
668 02-03-2019 13:30:17 10.7 C 22 %
669 02-03-2019 13:42:17 11.3 C 23 %
670 02-03-2019 13:54:17 11.5 C 21 %
671 02-03-2019 14:06:17 11.5 C 21 %
672 02-03-2019 14:18:17 12 C 20 %
673 02-03-2019 14:30:18 11.8 C 20 %
674 02-03-2019 14:42:18 12.2 C 20 %
675 02-03-2019 14:54:17 11.7 C 20 %
Sensor: Nr:Datum:Temp:Feuchte:
Aussen-T/F 676 02-03-2019 15:06:17 11.8 C 20 %
677 02-03-2019 15:18:17 11.7 C 20 %
678 02-03-2019 15:30:18 11.9 C 20 %
679 02-03-2019 15:42:18 12 C 20 %
680 02-03-2019 15:54:17 12.4 C 20 %
681 02-03-2019 16:06:17 12.5 C 20 %
682 02-03-2019 16:18:18 12.5 C 20 %
683 02-03-2019 16:30:18 12.2 C 20 %
684 02-03-2019 16:42:18 11.9 C 20 %
685 02-03-2019 16:54:17 11.6 C 20 %
686 02-03-2019 17:06:17 11.2 C 20 %
687 02-03-2019 17:18:17 11 C 20 %
688 02-03-2019 17:30:18 10.8 C 22 %
689 02-03-2019 17:42:18 10.7 C 23 %
690 02-03-2019 17:54:18 10.4 C 25 %
691 02-03-2019 18:06:17 10.2 C 26 %
692 02-03-2019 18:18:17 10 C 27 %
693 02-03-2019 18:30:18 10.1 C 28 %
694 02-03-2019 18:42:18 10 C 29 %
695 02-03-2019 18:54:18 9.8 C 31 %
696 02-03-2019 19:06:18 9.4 C 36 %
697 02-03-2019 19:18:17 9.4 C 37 %
698 02-03-2019 19:30:17 9.1 C 38 %
699 02-03-2019 19:42:17 9.1 C 38 %
700 02-03-2019 19:54:17 8.9 C 39 %
Sensor: Nr:Datum:Temp:Feuchte:
Aussen-T/F 701 02-03-2019 20:06:17 8.9 C 39 %
702 02-03-2019 20:18:17 9.1 C 38 %
703 02-03-2019 20:30:17 9 C 38 %
704 02-03-2019 20:42:17 9.1 C 38 %
705 02-03-2019 20:54:17 8.9 C 40 %
706 02-03-2019 21:06:17 8.9 C 40 %
707 02-03-2019 21:18:18 9.3 C 38 %
708 02-03-2019 21:30:17 9.7 C 36 %
709 02-03-2019 21:42:17 9.7 C 36 %
710 02-03-2019 21:54:17 9.7 C 36 %
711 02-03-2019 22:06:17 9.8 C 35 %
712 02-03-2019 22:18:17 9.6 C 35 %
713 02-03-2019 22:30:18 9.8 C 34 %
714 02-03-2019 22:42:18 9.9 C 34 %
715 02-03-2019 22:54:17 9.8 C 34 %
716 02-03-2019 23:06:18 9.6 C 34 %
717 02-03-2019 23:18:17 9.3 C 34 %
718 02-03-2019 23:30:17 9.2 C 33 %
719 02-03-2019 23:42:17 9.3 C 32 %
720 02-03-2019 23:54:18 9 C 31 %
721 03-03-2019 00:06:18 9 C 30 %
722 03-03-2019 00:18:17 8.6 C 31 %
723 03-03-2019 00:30:17 7.8 C 34 %
724 03-03-2019 00:42:17 7.2 C 38 %
725 03-03-2019 00:54:17 7 C 40 %
Sensor: Nr:Datum:Temp:Feuchte:
Aussen-T/F 726 03-03-2019 01:06:18 7.9 C 40 %
727 03-03-2019 01:18:17 8.6 C 36 %
728 03-03-2019 01:30:17 9.3 C 33 %
729 03-03-2019 01:42:17 9.6 C 31 %
730 03-03-2019 01:54:17 9.6 C 31 %
731 03-03-2019 02:06:17 9.6 C 30 %
732 03-03-2019 02:18:18 9.6 C 30 %
733 03-03-2019 02:30:17 9.5 C 30 %
734 03-03-2019 02:42:17 9.3 C 30 %
735 03-03-2019 02:54:17 9 C 31 %
736 03-03-2019 03:06:17 9.5 C 30 %
737 03-03-2019 03:18:17 9.5 C 30 %
738 03-03-2019 03:30:17 9.5 C 30 %
739 03-03-2019 03:42:17 9.6 C 30 %
740 03-03-2019 03:54:17 9.7 C 30 %
741 03-03-2019 04:06:18 9.7 C 30 %
742 03-03-2019 04:18:17 9.8 C 30 %
743 03-03-2019 04:30:17 9.8 C 30 %
744 03-03-2019 04:42:17 9.7 C 30 %
745 03-03-2019 04:54:17 9.8 C 29 %
746 03-03-2019 05:06:17 9.7 C 29 %
747 03-03-2019 05:18:17 9.8 C 28 %
748 03-03-2019 05:30:17 9.8 C 28 %
749 03-03-2019 05:42:18 9.7 C 28 %
750 03-03-2019 05:54:17 9.6 C 29 %
Sensor: Nr:Datum:Temp:Feuchte:
Aussen-T/F 751 03-03-2019 06:06:17 9.6 C 30 %
752 03-03-2019 06:18:17 9.5 C 30 %
753 03-03-2019 06:30:17 9.7 C 30 %
754 03-03-2019 06:42:17 9.6 C 30 %
755 03-03-2019 06:54:17 9.6 C 30 %
756 03-03-2019 07:06:18 9.6 C 30 %
757 03-03-2019 07:18:17 9.6 C 30 %
758 03-03-2019 07:30:17 9.7 C 30 %
759 03-03-2019 07:42:17 9.8 C 29 %
760 03-03-2019 07:54:17 9.8 C 30 %
761 03-03-2019 08:06:17 9.9 C 30 %
762 03-03-2019 08:18:17 9.9 C 30 %
763 03-03-2019 08:30:17 9.9 C 30 %
764 03-03-2019 08:42:17 10 C 29 %
765 03-03-2019 08:54:17 10.2 C 29 %
766 03-03-2019 09:06:17 10.7 C 28 %
767 03-03-2019 09:18:17 10.7 C 28 %
768 03-03-2019 09:30:17 10.7 C 28 %
769 03-03-2019 09:42:17 10.6 C 28 %
770 03-03-2019 09:54:17 10.9 C 28 %
771 03-03-2019 10:06:17 11 C 27 %
772 03-03-2019 10:18:17 10.9 C 28 %
773 03-03-2019 10:30:17 11 C 27 %
774 03-03-2019 10:42:17 11.1 C 27 %
775 03-03-2019 10:54:17 10.8 C 28 %
Sensor: Nr:Datum:Temp:Feuchte:
Aussen-T/F 776 03-03-2019 11:06:17 10.7 C 30 %
777 03-03-2019 11:18:17 10.7 C 30 %
778 03-03-2019 11:30:17 10.8 C 30 %
779 03-03-2019 11:42:18 10.7 C 30 %
780 03-03-2019 11:54:18 10.8 C 30 %
781 03-03-2019 12:06:18 10.8 C 30 %
782 03-03-2019 12:18:17 10.9 C 30 %
783 03-03-2019 12:30:17 11.1 C 29 %
784 03-03-2019 12:42:17 11.1 C 29 %
785 03-03-2019 12:54:17 11.2 C 28 %
786 03-03-2019 13:06:17 11.5 C 27 %
787 03-03-2019 13:18:17 11.7 C 27 %
788 03-03-2019 13:30:18 11.6 C 27 %
789 03-03-2019 13:42:18 11.7 C 27 %
790 03-03-2019 13:54:17 11.8 C 27 %
791 03-03-2019 14:06:17 11.7 C 27 %
792 03-03-2019 14:18:17 11.5 C 27 %
793 03-03-2019 14:30:17 11.4 C 28 %
794 03-03-2019 14:42:18 11.4 C 28 %
795 03-03-2019 14:54:17 11.4 C 28 %
796 03-03-2019 15:06:17 11.5 C 28 %
797 03-03-2019 15:18:17 11.4 C 28 %
798 03-03-2019 15:30:17 11.4 C 29 %
799 03-03-2019 15:42:17 11.2 C 30 %
800 03-03-2019 15:54:17 11.2 C 30 %
Sensor: Nr:Datum:Temp:Feuchte:
Aussen-T/F 801 03-03-2019 16:06:17 11.2 C 30 %
802 03-03-2019 16:18:17 11.3 C 30 %
803 03-03-2019 16:30:18 11.4 C 29 %
804 03-03-2019 16:42:18 11.5 C 29 %
805 03-03-2019 16:54:18 11.5 C 29 %
806 03-03-2019 17:06:17 11.4 C 28 %
807 03-03-2019 17:18:17 11.4 C 28 %
808 03-03-2019 17:30:17 11.5 C 27 %
809 03-03-2019 17:42:17 11.6 C 27 %
810 03-03-2019 17:54:17 11.8 C 26 %
811 03-03-2019 18:06:17 11.8 C 26 %
812 03-03-2019 18:18:17 11.8 C 26 %
813 03-03-2019 18:30:17 11.7 C 26 %
814 03-03-2019 18:42:17 11.7 C 26 %
815 03-03-2019 18:54:17 11.7 C 26 %
816 03-03-2019 19:06:17 11.7 C 25 %
817 03-03-2019 19:18:17 11.9 C 25 %
818 03-03-2019 19:30:17 11.8 C 25 %
819 03-03-2019 19:42:17 12 C 23 %
820 03-03-2019 19:54:17 11.9 C 24 %
821 03-03-2019 20:06:17 11.8 C 25 %
822 03-03-2019 20:18:18 12 C 23 %
823 03-03-2019 20:30:18 12 C 23 %
824 03-03-2019 20:42:18 11.8 C 25 %
825 03-03-2019 20:54:18 11.9 C 25 %
Sensor: Nr:Datum:Temp:Feuchte:
Aussen-T/F 826 03-03-2019 21:06:18 11.8 C 25 %
827 03-03-2019 21:18:17 11.9 C 26 %
828 03-03-2019 21:30:17 12.1 C 25 %
829 03-03-2019 21:42:17 12.1 C 25 %
830 03-03-2019 21:54:18 12.1 C 25 %
831 03-03-2019 22:06:18 12.1 C 25 %
832 03-03-2019 22:18:17 12.1 C 25 %
833 03-03-2019 22:30:17 12.2 C 25 %
834 03-03-2019 22:42:17 12.3 C 22 %
835 03-03-2019 22:54:17 12.3 C 21 %
836 03-03-2019 23:06:17 12.4 C 20 %
837 03-03-2019 23:18:18 12 C 22 %
838 03-03-2019 23:30:18 12.2 C 21 %
839 03-03-2019 23:42:18 12.2 C 20 %
840 03-03-2019 23:54:17 12.2 C 20 %
841 04-03-2019 00:06:17 12.1 C 20 %
842 04-03-2019 00:18:17 12.4 C 20 %
843 04-03-2019 00:30:18 12.5 C 20 %
844 04-03-2019 00:42:18 12.5 C 20 %
845 04-03-2019 00:54:17 12.8 C 20 %
846 04-03-2019 01:06:17 12.6 C 20 %
847 04-03-2019 01:18:17 12.5 C 20 %
848 04-03-2019 01:30:17 13.1 C 20 %
849 04-03-2019 01:42:18 13.5 C 20 %
850 04-03-2019 01:54:18 13.2 C 20 %
Sensor: Nr:Datum:Temp:Feuchte:
Aussen-T/F 851 04-03-2019 02:06:18 12.7 C 20 %
852 04-03-2019 02:18:17 12.4 C 21 %
853 04-03-2019 02:30:17 12.1 C 24 %
854 04-03-2019 02:42:17 11.7 C 26 %
855 04-03-2019 02:54:17 11.7 C 27 %
856 04-03-2019 03:06:17 11.3 C 29 %
857 04-03-2019 03:18:18 11.4 C 30 %
858 04-03-2019 03:30:18 11.3 C 30 %
859 04-03-2019 03:42:18 11.2 C 30 %
860 04-03-2019 03:54:17 11.2 C 30 %
861 04-03-2019 04:06:18 11 C 31 %
862 04-03-2019 04:18:18 11.2 C 31 %
863 04-03-2019 04:30:17 11.1 C 32 %
864 04-03-2019 04:42:17 11.3 C 31 %
865 04-03-2019 04:54:17 11.1 C 31 %
866 04-03-2019 05:06:17 11.2 C 30 %
867 04-03-2019 05:18:17 11.1 C 30 %
868 04-03-2019 05:30:18 10.8 C 30 %
869 04-03-2019 05:42:18 10.5 C 31 %
870 04-03-2019 05:54:17 10.1 C 32 %
871 04-03-2019 06:06:17 10 C 32 %
872 04-03-2019 06:18:17 10.1 C 33 %
873 04-03-2019 06:30:18 10.4 C 28 %
874 04-03-2019 06:42:18 9.7 C 34 %
875 04-03-2019 06:54:18 10.4 C 30 %
Sensor: Nr:Datum:Temp:Feuchte:
Aussen-T/F 876 04-03-2019 07:06:17 11.1 C 26 %
877 04-03-2019 07:18:17 11.5 C 22 %
878 04-03-2019 07:30:17 11.5 C 21 %
879 04-03-2019 07:42:17 11.8 C 20 %
880 04-03-2019 07:54:17 11.8 C 20 %
881 04-03-2019 08:06:18 12 C 20 %
882 04-03-2019 08:18:17 12.2 C 20 %
883 04-03-2019 08:30:17 12.2 C 20 %
884 04-03-2019 08:42:17 8.9 C 30 %
885 04-03-2019 08:54:17 8.4 C 30 %
886 04-03-2019 09:06:17 8.8 C 25 %
887 04-03-2019 09:18:17 9.4 C 20 %
888 04-03-2019 09:30:18 9.6 C 20 %
889 04-03-2019 09:42:18 8.4 C 30 %
890 04-03-2019 09:54:17 8.4 C 30 %
891 04-03-2019 10:06:17 9.1 C 27 %
892 04-03-2019 10:18:17 10.1 C 20 %
893 04-03-2019 10:30:17 10.1 C 20 %
894 04-03-2019 10:42:17 10.6 C 20 %
895 04-03-2019 10:54:17 10.8 C 20 %
896 04-03-2019 11:06:18 11.7 C 20 %
897 04-03-2019 11:18:17 11.9 C 20 %
898 04-03-2019 11:30:17 11.2 C 20 %
899 04-03-2019 11:42:17 10.6 C 20 %
900 04-03-2019 11:54:17 10.8 C 20 %
Sensor: Nr:Datum:Temp:Feuchte:
Aussen-T/F 901 04-03-2019 12:06:17 11 C 20 %
902 04-03-2019 12:18:17 11.7 C 20 %
903 04-03-2019 12:30:17 11.1 C 20 %
904 04-03-2019 12:42:17 8.7 C 33 %
905 04-03-2019 12:54:17 8.3 C 37 %
906 04-03-2019 13:06:17 8.4 C 43 %
907 04-03-2019 13:18:17 9 C 38 %
908 04-03-2019 13:30:17 9.8 C 31 %
909 04-03-2019 13:42:17 10 C 27 %
910 04-03-2019 13:54:17 9.8 C 29 %
911 04-03-2019 14:06:17 9.4 C 31 %
912 04-03-2019 14:18:18 9.4 C 31 %
913 04-03-2019 14:30:18 9.3 C 30 %
914 04-03-2019 14:42:18 8 C 36 %
915 04-03-2019 14:54:17 7 C 39 %
916 04-03-2019 15:06:17 6.5 C 38 %
917 04-03-2019 15:18:17 6.6 C 36 %
918 04-03-2019 15:30:17 6.5 C 35 %
919 04-03-2019 15:42:17 6.6 C 31 %
920 04-03-2019 15:54:17 7.1 C 26 %
921 04-03-2019 16:06:17 7.1 C 26 %
922 04-03-2019 16:18:18 7.3 C 27 %
923 04-03-2019 16:30:17 7.1 C 25 %
924 04-03-2019 16:42:17 7.3 C 25 %
925 04-03-2019 16:54:17 7.2 C 25 %
Sensor: Nr:Datum:Temp:Feuchte:
Aussen-T/F 926 04-03-2019 17:06:17 7.1 C 25 %
927 04-03-2019 17:18:17 6.9 C 27 %
928 04-03-2019 17:30:17 6.9 C 26 %
929 04-03-2019 17:42:17 6.8 C 27 %
930 04-03-2019 17:54:17 6.7 C 27 %
931 04-03-2019 18:06:17 6.5 C 27 %
932 04-03-2019 18:18:18 6.5 C 29 %
933 04-03-2019 18:30:17 6.2 C 30 %
934 04-03-2019 18:42:17 6.2 C 31 %
935 04-03-2019 18:54:17 6.4 C 30 %
936 04-03-2019 19:06:17 6.3 C 30 %
937 04-03-2019 19:18:17 6.3 C 30 %
938 04-03-2019 19:30:18 6.3 C 30 %
939 04-03-2019 19:42:18 6.2 C 31 %
940 04-03-2019 19:54:17 6.4 C 30 %
941 04-03-2019 20:06:17 6.4 C 30 %
942 04-03-2019 20:18:17 6.6 C 30 %
943 04-03-2019 20:30:18 6.5 C 30 %
944 04-03-2019 20:42:18 6.3 C 31 %
945 04-03-2019 20:54:18 5.8 C 34 %
946 04-03-2019 21:06:18 6 C 32 %
947 04-03-2019 21:18:17 6 C 33 %
948 04-03-2019 21:30:17 5.8 C 35 %
949 04-03-2019 21:42:17 5.9 C 36 %
950 04-03-2019 21:54:17 6.3 C 34 %
Sensor: Nr:Datum:Temp:Feuchte:
Aussen-T/F 951 04-03-2019 22:06:18 6.3 C 35 %
952 04-03-2019 22:18:17 6.6 C 30 %
953 04-03-2019 22:30:17 6.5 C 31 %
954 04-03-2019 22:42:17 6.6 C 30 %
955 04-03-2019 22:54:17 6.5 C 31 %
956 04-03-2019 23:06:17 6.4 C 30 %
957 04-03-2019 23:18:17 5.9 C 35 %
958 04-03-2019 23:30:18 5.8 C 36 %
959 04-03-2019 23:42:18 5.7 C 37 %
960 04-03-2019 23:54:17 6 C 35 %
961 05-03-2019 00:06:17 6.1 C 33 %
962 05-03-2019 00:18:18 6.3 C 30 %
963 05-03-2019 00:30:18 6.4 C 28 %
964 05-03-2019 00:42:18 6.4 C 27 %
965 05-03-2019 00:54:18 6.3 C 27 %
966 05-03-2019 01:06:18 6.3 C 29 %
967 05-03-2019 01:18:18 6.3 C 29 %
968 05-03-2019 01:30:18 6.3 C 30 %
969 05-03-2019 01:42:18 6.3 C 30 %
970 05-03-2019 01:54:17 6.2 C 29 %
971 05-03-2019 02:06:17 6.3 C 28 %
972 05-03-2019 02:18:17 6.3 C 28 %
973 05-03-2019 02:30:17 6.2 C 27 %
974 05-03-2019 02:42:17 6.3 C 27 %
975 05-03-2019 02:54:17 6.3 C 27 %
Sensor: Nr:Datum:Temp:Feuchte:
Aussen-T/F 976 05-03-2019 03:06:17 6.3 C 27 %
977 05-03-2019 03:18:17 6.3 C 27 %
978 05-03-2019 03:30:17 6.1 C 29 %
979 05-03-2019 03:42:17 5.9 C 30 %
980 05-03-2019 03:54:17 5.9 C 30 %
981 05-03-2019 04:06:17 5.8 C 29 %
982 05-03-2019 04:18:17 5.9 C 29 %
983 05-03-2019 04:30:17 5.8 C 30 %
984 05-03-2019 04:42:17 5.9 C 29 %
985 05-03-2019 04:54:17 6 C 27 %
986 05-03-2019 05:06:17 5.8 C 29 %
987 05-03-2019 05:18:18 5.7 C 30 %
988 05-03-2019 05:30:18 5.7 C 30 %
989 05-03-2019 05:42:18 5.8 C 30 %
990 05-03-2019 05:54:18 5.6 C 30 %
991 05-03-2019 06:06:17 5.7 C 27 %
992 05-03-2019 06:18:17 5.3 C 29 %
993 05-03-2019 06:30:17 5.6 C 27 %
994 05-03-2019 06:42:18 5.6 C 27 %
995 05-03-2019 06:54:18 5.7 C 26 %
996 05-03-2019 07:06:18 5.7 C 26 %
997 05-03-2019 07:18:17 5.9 C 26 %
998 05-03-2019 07:30:17 6 C 26 %
999 05-03-2019 07:42:17 6 C 25 %
1000 05-03-2019 07:54:17 6.2 C 25 %
Sensor: Nr:Datum:Temp:Feuchte:
Aussen-T/F 1001 05-03-2019 08:06:18 6.1 C 26 %
1002 05-03-2019 08:18:17 6 C 27 %
1003 05-03-2019 08:30:17 6.2 C 27 %
1004 05-03-2019 08:42:17 6.2 C 27 %
1005 05-03-2019 08:54:17 5.8 C 30 %
1006 05-03-2019 09:06:17 5.8 C 32 %
1007 05-03-2019 09:18:17 6 C 30 %
1008 05-03-2019 09:30:17 5.8 C 32 %
1009 05-03-2019 09:42:17 5.6 C 35 %
1010 05-03-2019 09:54:17 5.7 C 36 %
1011 05-03-2019 10:06:18 5.9 C 36 %
1012 05-03-2019 10:18:17 6.2 C 35 %
1013 05-03-2019 10:30:18 6.2 C 35 %
1014 05-03-2019 10:42:18 6.2 C 35 %
1015 05-03-2019 10:54:17 6.4 C 35 %
1016 05-03-2019 11:06:17 6.4 C 34 %
1017 05-03-2019 11:18:17 6.6 C 34 %
1018 05-03-2019 11:30:17 6.6 C 34 %
1019 05-03-2019 11:42:17 6.7 C 32 %
1020 05-03-2019 11:54:17 6.7 C 31 %
1021 05-03-2019 12:06:17 6.9 C 30 %
1022 05-03-2019 12:18:17 7 C 27 %
1023 05-03-2019 12:30:18 6.9 C 28 %
1024 05-03-2019 12:42:18 7 C 28 %
1025 05-03-2019 12:54:17 7.1 C 27 %
Sensor: Nr:Datum:Temp:Feuchte:
Aussen-T/F 1026 05-03-2019 13:06:17 7.6 C 26 %
1027 05-03-2019 13:18:17 7.7 C 25 %
1028 05-03-2019 13:30:17 7.8 C 25 %
1029 05-03-2019 13:42:17 8.1 C 25 %
1030 05-03-2019 13:54:17 7.9 C 21 %
1031 05-03-2019 14:06:17 8.3 C 23 %
1032 05-03-2019 14:18:17 8.5 C 20 %
1033 05-03-2019 14:30:17 8.4 C 20 %
1034 05-03-2019 14:42:17 8.6 C 20 %
1035 05-03-2019 14:54:17 8.5 C 20 %
1036 05-03-2019 15:06:18 8.6 C 20 %
1037 05-03-2019 15:18:17 8.6 C 20 %
1038 05-03-2019 15:30:17 8.9 C 20 %
1039 05-03-2019 15:42:17 8.7 C 20 %
1040 05-03-2019 15:54:18 8.7 C 20 %
1041 05-03-2019 16:06:17 8.6 C 20 %
1042 05-03-2019 16:18:16 10.7 C 20 %
1043 05-03-2019 16:30:17 10.5 C 20 %
1044 05-03-2019 16:42:17 10.6 C 20 %
1045 05-03-2019 16:54:17 10.5 C 20 %
1046 05-03-2019 17:06:18 9.7 C 20 %
1047 05-03-2019 17:18:17 10.1 C 20 %
1048 05-03-2019 17:30:17 8.5 C 20 %
1049 05-03-2019 17:42:17 7.9 C 25 %
1050 05-03-2019 17:54:17 7.2 C 28 %
Sensor: Nr:Datum:Temp:Feuchte:
Aussen-T/F 1051 05-03-2019 18:06:18 6.7 C 31 %
1052 05-03-2019 18:18:17 6.2 C 33 %
1053 05-03-2019 18:30:17 6 C 33 %
1054 05-03-2019 18:42:17 6 C 32 %
1055 05-03-2019 18:54:17 6 C 31 %
1056 05-03-2019 19:06:17 6.3 C 30 %
1057 05-03-2019 19:18:17 6.1 C 31 %
1058 05-03-2019 19:30:17 6.2 C 31 %
1059 05-03-2019 19:42:17 6 C 31 %
1060 05-03-2019 19:54:17 5.8 C 32 %
1061 05-03-2019 20:06:18 5.1 C 35 %
1062 05-03-2019 20:18:17 4.4 C 39 %
1063 05-03-2019 20:30:17 4 C 40 %
1064 05-03-2019 20:42:17 3.5 C 45 %
1065 05-03-2019 20:54:17 3.2 C 46 %
1066 05-03-2019 21:06:17 2.8 C 47 %
1067 05-03-2019 21:18:17 2.7 C 50 %
1068 05-03-2019 21:30:17 2.9 C 52 %
1069 05-03-2019 21:42:17 3.2 C 52 %
1070 05-03-2019 21:54:18 3.4 C 53 %
1071 05-03-2019 22:06:17 3.8 C 54 %
1072 05-03-2019 22:18:17 4.1 C 52 %
1073 05-03-2019 22:30:18 4.2 C 51 %
1074 05-03-2019 22:42:18 4.2 C 51 %
1075 05-03-2019 22:54:17 4.4 C 47 %
Sensor: Nr:Datum:Temp:Feuchte:
Aussen-T/F 1076 05-03-2019 23:06:17 4.4 C 46 %
1077 05-03-2019 23:18:18 4.7 C 46 %
1078 05-03-2019 23:30:17 4.8 C 46 %
1079 05-03-2019 23:42:17 4.9 C 45 %
1080 05-03-2019 23:54:17 4.9 C 45 %
1081 06-03-2019 00:06:18 5 C 45 %
1082 06-03-2019 00:18:17 5 C 45 %
1083 06-03-2019 00:30:17 5.2 C 44 %
1084 06-03-2019 00:42:17 5.2 C 43 %
1085 06-03-2019 00:54:17 5.5 C 44 %
1086 06-03-2019 01:06:18 5.6 C 44 %
1087 06-03-2019 01:18:17 5.5 C 42 %
1088 06-03-2019 01:30:17 5.5 C 43 %
1089 06-03-2019 01:42:17 5.6 C 44 %
1090 06-03-2019 01:54:17 6.2 C 44 %
1091 06-03-2019 02:06:17 6.4 C 41 %
1092 06-03-2019 02:18:17 6.5 C 40 %
1093 06-03-2019 02:30:17 6.6 C 39 %
1094 06-03-2019 02:42:17 6.7 C 38 %
1095 06-03-2019 02:54:17 6.5 C 39 %
1096 06-03-2019 03:06:18 6.4 C 40 %
1097 06-03-2019 03:18:17 6.2 C 41 %
1098 06-03-2019 03:30:17 6.1 C 42 %
1099 06-03-2019 03:42:17 6.1 C 43 %
1100 06-03-2019 03:54:17 6.1 C 44 %
Sensor: Nr:Datum:Temp:Feuchte:
Aussen-T/F 1101 06-03-2019 04:06:18 6 C 44 %
1102 06-03-2019 04:18:17 5.8 C 45 %
1103 06-03-2019 04:30:17 5.8 C 46 %
1104 06-03-2019 04:42:17 6.4 C 46 %
1105 06-03-2019 04:54:17 6.4 C 43 %
1106 06-03-2019 05:06:17 6.5 C 42 %
1107 06-03-2019 05:18:17 6.6 C 41 %
1108 06-03-2019 05:30:17 6.5 C 41 %
1109 06-03-2019 05:42:17 6.2 C 41 %
1110 06-03-2019 05:54:17 5.8 C 43 %
1111 06-03-2019 06:06:17 6.1 C 43 %
1112 06-03-2019 06:18:17 5.6 C 42 %
1113 06-03-2019 06:30:18 5.2 C 42 %
1114 06-03-2019 06:42:18 4.5 C 45 %
1115 06-03-2019 06:54:17 5.2 C 47 %
1116 06-03-2019 07:06:17 4.5 C 46 %
1117 06-03-2019 07:18:17 4.1 C 47 %
1118 06-03-2019 07:30:17 4.2 C 50 %
1119 06-03-2019 07:42:17 4.4 C 51 %
1120 06-03-2019 07:54:17 4.6 C 51 %
1121 06-03-2019 08:06:17 5 C 50 %
1122 06-03-2019 08:18:17 5.6 C 49 %
1123 06-03-2019 08:30:17 6.4 C 42 %
1124 06-03-2019 08:42:17 6.8 C 38 %
1125 06-03-2019 08:54:17 7.3 C 32 %
Sensor: Nr:Datum:Temp:Feuchte:
Aussen-T/F 1126 06-03-2019 09:06:17 7.6 C 31 %
1127 06-03-2019 09:18:17 7.8 C 31 %
1128 06-03-2019 09:30:17 8.2 C 30 %
1129 06-03-2019 09:42:17 8.4 C 28 %
1130 06-03-2019 09:54:17 8.9 C 28 %
1131 06-03-2019 10:06:17 9.8 C 26 %
1132 06-03-2019 10:18:17 10.4 C 20 %
1133 06-03-2019 10:30:17 10.8 C 20 %
1134 06-03-2019 10:42:17 10.8 C 20 %
1135 06-03-2019 10:54:17 10.9 C 20 %
1136 06-03-2019 11:06:17 11.7 C 20 %
1137 06-03-2019 11:18:18 12.4 C 20 %
1138 06-03-2019 11:30:17 14.1 C 20 %
1139 06-03-2019 11:42:17 13.7 C 20 %
1140 06-03-2019 11:54:17 14.2 C 20 %
1141 06-03-2019 12:06:18 13.5 C 20 %
1142 06-03-2019 12:18:17 13.5 C 20 %
1143 06-03-2019 12:30:17 13.2 C 20 %
1144 06-03-2019 12:42:17 13.2 C 20 %
1145 06-03-2019 12:54:17 13.4 C 20 %
1146 06-03-2019 13:06:18 13.6 C 20 %
1147 06-03-2019 13:18:17 13.8 C 20 %
1148 06-03-2019 13:30:17 13.7 C 20 %
1149 06-03-2019 13:42:17 13.7 C 20 %
1150 06-03-2019 13:54:17 13.7 C 20 %
Sensor: Nr:Datum:Temp:Feuchte:
Aussen-T/F 1151 06-03-2019 14:06:18 13.7 C 20 %
1152 06-03-2019 14:18:17 13.6 C 20 %
1153 06-03-2019 14:30:17 13.7 C 20 %
1154 06-03-2019 14:42:17 14.3 C 20 %
1155 06-03-2019 14:54:17 14.5 C 20 %
1156 06-03-2019 15:06:17 14.5 C 20 %
1157 06-03-2019 15:18:17 14.5 C 20 %
1158 06-03-2019 15:30:17 14.6 C 20 %
1159 06-03-2019 15:42:17 14.5 C 20 %
1160 06-03-2019 15:54:17 14.6 C 20 %
1161 06-03-2019 16:06:17 14.8 C 20 %
1162 06-03-2019 16:18:17 15.1 C 20 %
1163 06-03-2019 16:30:17 15.3 C 20 %
1164 06-03-2019 16:42:17 14.6 C 20 %
1165 06-03-2019 16:54:17 12.4 C 20 %
1166 06-03-2019 17:06:17 12.2 C 25 %
1167 06-03-2019 17:18:17 12.3 C 26 %
1168 06-03-2019 17:30:17 13.1 C 20 %
1169 06-03-2019 17:42:17 13.1 C 20 %
1170 06-03-2019 17:54:17 12.8 C 20 %
1171 06-03-2019 18:06:17 12.1 C 20 %
1172 06-03-2019 18:18:17 12.2 C 20 %
1173 06-03-2019 18:30:17 11.7 C 25 %
1174 06-03-2019 18:42:17 11.7 C 25 %
1175 06-03-2019 18:54:17 11.2 C 25 %
Sensor: Nr:Datum:Temp:Feuchte:
Aussen-T/F 1176 06-03-2019 19:06:17 10.7 C 29 %
1177 06-03-2019 19:18:17 10.5 C 31 %
1178 06-03-2019 19:30:17 10.1 C 33 %
1179 06-03-2019 19:42:17 10.2 C 34 %
1180 06-03-2019 19:54:17 9.9 C 36 %
1181 06-03-2019 20:06:17 10 C 35 %
1182 06-03-2019 20:18:17 9.8 C 37 %
1183 06-03-2019 20:30:17 9.6 C 37 %
1184 06-03-2019 20:42:17 9.5 C 38 %
1185 06-03-2019 20:54:17 10 C 36 %
1186 06-03-2019 21:06:17 10.1 C 33 %
1187 06-03-2019 21:18:17 10.1 C 33 %
1188 06-03-2019 21:30:17 10.1 C 34 %
1189 06-03-2019 21:42:17 10.1 C 34 %
1190 06-03-2019 21:54:17 9.9 C 35 %
1191 06-03-2019 22:06:18 10 C 35 %
1192 06-03-2019 22:18:17 10.1 C 34 %
1193 06-03-2019 22:30:17 10 C 34 %
1194 06-03-2019 22:42:17 10 C 33 %
1195 06-03-2019 22:54:17 9.9 C 34 %
1196 06-03-2019 23:06:17 9.7 C 36 %
1197 06-03-2019 23:18:17 9.6 C 36 %
1198 06-03-2019 23:30:17 10.2 C 31 %
1199 06-03-2019 23:42:17 10.1 C 31 %
1200 06-03-2019 23:54:17 9.8 C 33 %
Sensor: Nr:Datum:Temp:Feuchte:
Aussen-T/F 1201 07-03-2019 00:06:17 9.5 C 38 %
1202 07-03-2019 00:18:17 9.8 C 36 %
1203 07-03-2019 00:30:17 9.6 C 37 %
1204 07-03-2019 00:42:18 9.3 C 40 %
1205 07-03-2019 00:54:17 9.8 C 39 %
1206 07-03-2019 01:06:17 9.8 C 40 %
1207 07-03-2019 01:18:17 9.8 C 41 %
1208 07-03-2019 01:30:17 9.9 C 41 %
1209 07-03-2019 01:42:17 9.9 C 43 %
1210 07-03-2019 01:54:17 9.7 C 45 %
1211 07-03-2019 02:06:17 9.5 C 48 %
1212 07-03-2019 02:18:17 9 C 49 %
1213 07-03-2019 02:30:17 8.5 C 51 %
1214 07-03-2019 02:42:17 8.7 C 52 %
1215 07-03-2019 02:54:17 8.8 C 53 %
1216 07-03-2019 03:06:17 8.7 C 52 %
1217 07-03-2019 03:18:17 8.6 C 52 %
1218 07-03-2019 03:30:18 8.6 C 51 %
1219 07-03-2019 03:42:18 8.7 C 50 %
1220 07-03-2019 03:54:17 8.6 C 49 %
1221 07-03-2019 04:06:17 9 C 44 %
1222 07-03-2019 04:18:17 9.5 C 42 %
1223 07-03-2019 04:30:17 9.5 C 38 %
1224 07-03-2019 04:42:17 9.5 C 37 %
1225 07-03-2019 04:54:17 9.1 C 37 %
Sensor: Nr:Datum:Temp:Feuchte:
Aussen-T/F 1226 07-03-2019 05:06:17 9.8 C 35 %
1227 07-03-2019 05:19:17 10 C 32 %
1228 07-03-2019 05:30:17 10.6 C 29 %
1229 07-03-2019 05:42:17 11 C 28 %
1230 07-03-2019 05:54:17 11.5 C 26 %
1231 07-03-2019 06:06:17 11.4 C 26 %
1232 07-03-2019 06:18:17 11.6 C 24 %
1233 07-03-2019 06:30:18 11.2 C 24 %
1234 07-03-2019 06:42:18 11.2 C 23 %
1235 07-03-2019 06:55:17 11.2 C 23 %
1236 07-03-2019 07:06:17 11 C 24 %
1237 07-03-2019 07:18:18 11 C 22 %
1238 07-03-2019 07:31:17 10.8 C 22 %
1239 07-03-2019 07:42:17 10.5 C 20 %
1240 07-03-2019 07:54:17 10.4 C 20 %
1241 07-03-2019 08:06:17 10.3 C 20 %
1242 07-03-2019 08:19:17 10.2 C 21 %
1243 07-03-2019 08:30:17 10.2 C 22 %
1244 07-03-2019 08:42:17 10.1 C 25 %
1245 07-03-2019 08:54:17 10.4 C 25 %
1246 07-03-2019 09:06:17 10 C 26 %
1247 07-03-2019 09:19:17 10 C 26 %
1248 07-03-2019 09:30:17 9.1 C 34 %
1249 07-03-2019 09:42:17 9.5 C 31 %
1250 07-03-2019 09:54:17 9.6 C 30 %
Sensor: Nr:Datum:Temp:Feuchte:
Aussen-T/F 1251 07-03-2019 10:07:17 9.8 C 29 %
1252 07-03-2019 10:19:17 9.7 C 30 %
1253 07-03-2019 10:30:17 10 C 28 %
1254 07-03-2019 10:42:17 10.5 C 28 %
1255 07-03-2019 10:54:17 10.2 C 28 %
1256 07-03-2019 11:07:17 8.8 C 37 %
1257 07-03-2019 11:19:17 9.2 C 34 %
1258 07-03-2019 11:30:17 9.7 C 30 %
1259 07-03-2019 11:42:17 9.7 C 28 %
1260 07-03-2019 11:55:17 10 C 25 %
1261 07-03-2019 12:07:17 10 C 22 %
1262 07-03-2019 12:18:17 10.2 C 20 %
1263 07-03-2019 12:30:18 10.4 C 20 %
1264 07-03-2019 12:42:18 10.5 C 20 %
1265 07-03-2019 12:55:17 11.4 C 20 %
1266 07-03-2019 13:07:17 11.5 C 20 %
1267 07-03-2019 13:18:18 12.2 C 20 %
1268 07-03-2019 13:31:17 12 C 20 %
1269 07-03-2019 13:43:17 12.1 C 20 %
1270 07-03-2019 13:55:17 10.8 C 20 %
1271 07-03-2019 14:06:17 8.6 C 31 %
1272 07-03-2019 14:19:17 9.1 C 29 %
1273 07-03-2019 14:31:17 10 C 26 %
1274 07-03-2019 14:43:17 10.5 C 22 %
1275 07-03-2019 14:55:17 11.2 C 20 %
Sensor: Nr:Datum:Temp:Feuchte:
Aussen-T/F 1276 07-03-2019 15:06:17 11.4 C 20 %
1277 07-03-2019 15:19:17 11.4 C 20 %
1278 07-03-2019 15:31:17 9.7 C 20 %
1279 07-03-2019 15:43:17 8.9 C 31 %
1280 07-03-2019 15:55:17 8.4 C 32 %
1281 07-03-2019 16:07:17 9.1 C 32 %
1282 07-03-2019 16:19:17 9.7 C 29 %
1283 07-03-2019 16:31:17 9.9 C 25 %
1284 07-03-2019 16:43:17 10.1 C 20 %
1285 07-03-2019 16:55:17 9.5 C 26 %
1286 07-03-2019 17:07:18 10.1 C 25 %
1287 07-03-2019 17:19:17 10 C 20 %
1288 07-03-2019 17:31:17 10.6 C 20 %
1289 07-03-2019 17:43:18 9.5 C 20 %
1290 07-03-2019 17:55:17 10.5 C 20 %
1291 07-03-2019 18:06:18 10.4 C 20 %
1292 07-03-2019 18:19:17 9.2 C 20 %
1293 07-03-2019 18:31:17 9.1 C 20 %
1294 07-03-2019 18:43:17 8.9 C 20 %
1295 07-03-2019 18:55:17 8.5 C 20 %
1296 07-03-2019 19:07:17 8.3 C 23 %
1297 07-03-2019 19:19:17 7.8 C 28 %
1298 07-03-2019 19:31:17 7.7 C 28 %
1299 07-03-2019 19:43:17 7.3 C 32 %
1300 07-03-2019 19:55:17 7.5 C 30 %
Sensor: Nr:Datum:Temp:Feuchte:
Aussen-T/F 1301 07-03-2019 20:06:18 8.1 C 25 %
1302 07-03-2019 20:19:17 8.2 C 25 %
1303 07-03-2019 20:31:17 8.5 C 21 %
1304 07-03-2019 20:43:17 8.5 C 21 %
1305 07-03-2019 20:55:18 8.6 C 21 %
1306 07-03-2019 21:07:17 8.6 C 20 %
1307 07-03-2019 21:19:17 8.5 C 21 %
1308 07-03-2019 21:31:17 8.9 C 20 %
1309 07-03-2019 21:43:18 8.8 C 20 %
1310 07-03-2019 21:55:17 8.8 C 20 %
1311 07-03-2019 22:07:17 8.9 C 20 %
1312 07-03-2019 22:19:18 8.9 C 20 %
1313 07-03-2019 22:31:17 8.6 C 20 %
1314 07-03-2019 22:43:17 8.5 C 21 %
1315 07-03-2019 22:55:17 8.4 C 20 %
1316 07-03-2019 23:07:17 8.1 C 21 %
1317 07-03-2019 23:19:17 7.9 C 25 %
1318 07-03-2019 23:31:17 8.1 C 23 %
1319 07-03-2019 23:43:17 8.2 C 23 %
1320 07-03-2019 23:55:18 7.6 C 28 %
1321 08-03-2019 00:07:17 7.6 C 29 %
1322 08-03-2019 00:19:17 7 C 35 %
1323 08-03-2019 00:31:18 6.3 C 40 %
1324 08-03-2019 00:43:18 5.9 C 42 %
1325 08-03-2019 00:55:17 5.5 C 45 %
Sensor: Nr:Datum:Temp:Feuchte:
Aussen-T/F 1326 08-03-2019 01:07:17 5.7 C 45 %
1327 08-03-2019 01:19:17 6 C 41 %
1328 08-03-2019 01:31:17 6.1 C 40 %
1329 08-03-2019 01:43:17 6.5 C 36 %
1330 08-03-2019 01:55:17 7.2 C 32 %
1331 08-03-2019 02:07:17 7.4 C 27 %
1332 08-03-2019 02:19:17 7.7 C 26 %
1333 08-03-2019 02:31:17 7.8 C 25 %
1334 08-03-2019 02:43:17 7.8 C 21 %
1335 08-03-2019 02:55:18 7.8 C 21 %
1336 08-03-2019 03:07:17 7.8 C 21 %
1337 08-03-2019 03:19:17 7.8 C 20 %
1338 08-03-2019 03:31:17 7.6 C 20 %
1339 08-03-2019 03:43:17 7.8 C 20 %
1340 08-03-2019 03:55:17 7.5 C 20 %
1341 08-03-2019 04:07:17 7.4 C 21 %
1342 08-03-2019 04:19:17 7.6 C 21 %
1343 08-03-2019 04:31:17 7.5 C 21 %
1344 08-03-2019 04:43:17 7.5 C 23 %
1345 08-03-2019 04:55:17 7.5 C 23 %
1346 08-03-2019 05:07:17 7.4 C 23 %
1347 08-03-2019 05:19:17 7.2 C 25 %
1348 08-03-2019 05:31:17 7.2 C 25 %
1349 08-03-2019 05:43:18 7.2 C 26 %
1350 08-03-2019 05:55:18 7.1 C 26 %
Sensor: Nr:Datum:Temp:Feuchte:
Aussen-T/F 1351 08-03-2019 06:07:17 7 C 26 %
1352 08-03-2019 06:19:17 7 C 27 %
1353 08-03-2019 06:31:17 7.1 C 26 %
1354 08-03-2019 06:43:17 7.2 C 26 %
1355 08-03-2019 06:55:17 7.1 C 27 %
1356 08-03-2019 07:07:17 7.1 C 27 %
1357 08-03-2019 07:19:17 7.1 C 27 %
1358 08-03-2019 07:31:17 7.3 C 27 %
1359 08-03-2019 07:43:17 7.4 C 27 %
1360 08-03-2019 07:55:17 7.4 C 27 %
1361 08-03-2019 08:07:18 7.4 C 28 %
1362 08-03-2019 08:19:17 7.4 C 28 %
1363 08-03-2019 08:31:17 7.5 C 28 %
1364 08-03-2019 08:43:17 7.5 C 29 %
1365 08-03-2019 08:55:17 7.4 C 30 %
1366 08-03-2019 09:07:18 7.4 C 31 %
1367 08-03-2019 09:19:17 7.3 C 32 %
1368 08-03-2019 09:31:17 6.9 C 36 %
1369 08-03-2019 09:43:17 6.6 C 40 %
1370 08-03-2019 09:55:17 6.5 C 41 %
1371 08-03-2019 10:07:18 6.5 C 40 %
1372 08-03-2019 10:19:17 7.4 C 35 %
1373 08-03-2019 10:31:17 7.7 C 30 %
1374 08-03-2019 10:43:17 8.2 C 27 %
1375 08-03-2019 10:55:17 8.4 C 27 %
Sensor: Nr:Datum:Temp:Feuchte:
Aussen-T/F 1376 08-03-2019 11:07:18 8.1 C 27 %
1377 08-03-2019 11:19:17 8.3 C 26 %
1378 08-03-2019 11:31:17 8.9 C 25 %
1379 08-03-2019 11:43:17 9 C 21 %
1380 08-03-2019 11:55:17 9.5 C 20 %
1381 08-03-2019 12:07:18 9.9 C 20 %
1382 08-03-2019 12:19:17 8.8 C 20 %
1383 08-03-2019 12:31:17 8.9 C 20 %
1384 08-03-2019 12:43:17 9.1 C 20 %
1385 08-03-2019 12:55:17 9.5 C 20 %
1386 08-03-2019 13:07:17 9.2 C 20 %
1387 08-03-2019 13:19:17 9.2 C 20 %
1388 08-03-2019 13:31:17 9.8 C 20 %
1389 08-03-2019 13:43:17 9.9 C 20 %
1390 08-03-2019 13:55:17 10 C 20 %
1391 08-03-2019 14:07:17 10 C 20 %
1392 08-03-2019 14:19:17 9.7 C 20 %
1393 08-03-2019 14:31:17 10.1 C 20 %
1394 08-03-2019 14:43:17 10.2 C 20 %
1395 08-03-2019 14:55:17 10.8 C 20 %
1396 08-03-2019 15:07:17 11 C 20 %
1397 08-03-2019 15:19:17 11.2 C 20 %
1398 08-03-2019 15:31:17 11.8 C 20 %
1399 08-03-2019 15:43:17 11.8 C 20 %
1400 08-03-2019 15:55:17 10.5 C 20 %
Sensor: Nr:Datum:Temp:Feuchte:
Aussen-T/F 1401 08-03-2019 16:07:17 10.1 C 20 %
1402 08-03-2019 16:19:17 10 C 20 %
1403 08-03-2019 16:31:17 11.1 C 20 %
1404 08-03-2019 16:43:18 9.7 C 20 %
1405 08-03-2019 16:55:17 9.8 C 20 %
1406 08-03-2019 17:07:17 9 C 20 %
1407 08-03-2019 17:19:17 8.7 C 21 %
1408 08-03-2019 17:31:17 8.4 C 27 %
1409 08-03-2019 17:43:17 8.1 C 30 %
1410 08-03-2019 17:55:17 7.4 C 33 %
1411 08-03-2019 18:07:17 6.9 C 38 %
1412 08-03-2019 18:19:17 6.9 C 37 %
1413 08-03-2019 18:31:17 6.7 C 37 %
1414 08-03-2019 18:43:17 6.5 C 37 %
1415 08-03-2019 18:55:18 6.3 C 40 %
1416 08-03-2019 19:07:17 6.4 C 41 %
1417 08-03-2019 19:19:17 6.4 C 41 %
1418 08-03-2019 19:31:18 6.1 C 41 %
1419 08-03-2019 19:43:18 6 C 42 %
1420 08-03-2019 19:55:17 5.9 C 43 %
1421 08-03-2019 20:07:17 5.6 C 43 %
1422 08-03-2019 20:19:18 5.5 C 45 %
1423 08-03-2019 20:31:17 5.4 C 45 %
1424 08-03-2019 20:43:17 5.4 C 45 %
1425 08-03-2019 20:55:17 5.6 C 46 %
Sensor: Nr:Datum:Temp:Feuchte:
Aussen-T/F 1426 08-03-2019 21:07:17 5.9 C 45 %
1427 08-03-2019 21:19:18 6 C 42 %
1428 08-03-2019 21:31:17 6.2 C 40 %
1429 08-03-2019 21:43:17 6.1 C 40 %
1430 08-03-2019 21:55:17 6.5 C 36 %
1431 08-03-2019 22:07:17 6.4 C 36 %
1432 08-03-2019 22:19:18 6.2 C 36 %
1433 08-03-2019 22:31:17 6.5 C 35 %
1434 08-03-2019 22:43:17 7.1 C 30 %
1435 08-03-2019 22:55:17 7.5 C 28 %
1436 08-03-2019 23:07:17 7.8 C 26 %
1437 08-03-2019 23:19:17 7.4 C 27 %
1438 08-03-2019 23:31:18 7.7 C 26 %
1439 08-03-2019 23:43:18 7.5 C 27 %
1440 08-03-2019 23:55:17 7.7 C 25 %
1441 09-03-2019 00:07:17 7.7 C 25 %
1442 09-03-2019 00:19:17 7.8 C 25 %
1443 09-03-2019 00:31:18 8 C 23 %
1444 09-03-2019 00:43:18 8.3 C 20 %
1445 09-03-2019 00:55:17 8.2 C 20 %
1446 09-03-2019 01:07:17 8.5 C 20 %
1447 09-03-2019 01:19:17 8.5 C 20 %
1448 09-03-2019 01:31:17 8.7 C 20 %
1449 09-03-2019 01:43:17 8.8 C 20 %
1450 09-03-2019 01:55:17 8.9 C 20 %
Sensor: Nr:Datum:Temp:Feuchte:
Aussen-T/F 1451 09-03-2019 02:07:17 8.9 C 20 %
1452 09-03-2019 02:19:17 9 C 20 %
1453 09-03-2019 02:31:17 9 C 20 %
1454 09-03-2019 02:43:17 9 C 20 %
1455 09-03-2019 02:55:17 9 C 20 %
1456 09-03-2019 03:07:17 8.8 C 20 %
1457 09-03-2019 03:19:17 8.7 C 20 %
1458 09-03-2019 03:31:17 8.6 C 23 %
1459 09-03-2019 03:43:17 8.3 C 26 %
1460 09-03-2019 03:55:17 7.9 C 30 %
1461 09-03-2019 04:07:17 7.5 C 33 %
1462 09-03-2019 04:19:17 7.3 C 35 %
1463 09-03-2019 04:31:17 7.3 C 35 %
1464 09-03-2019 04:43:17 7.4 C 35 %
1465 09-03-2019 04:55:17 7.2 C 36 %
1466 09-03-2019 05:07:17 7.3 C 37 %
1467 09-03-2019 05:19:17 7.3 C 38 %
1468 09-03-2019 05:31:17 7.1 C 39 %
1469 09-03-2019 05:43:17 7.1 C 40 %
1470 09-03-2019 05:55:17 7.2 C 40 %
1471 09-03-2019 06:07:17 7.5 C 40 %
1472 09-03-2019 06:19:17 7.5 C 40 %
1473 09-03-2019 06:31:17 7.6 C 40 %
1474 09-03-2019 06:43:17 7.7 C 40 %
1475 09-03-2019 06:55:17 7.8 C 40 %
Sensor: Nr:Datum:Temp:Feuchte:
Aussen-T/F 1476 09-03-2019 07:07:18 8 C 39 %
1477 09-03-2019 07:19:17 8.1 C 38 %
1478 09-03-2019 07:31:17 8.3 C 37 %
1479 09-03-2019 07:43:17 8.6 C 35 %
1480 09-03-2019 07:55:17 8.4 C 35 %
1481 09-03-2019 08:07:17 8.9 C 34 %
1482 09-03-2019 08:19:17 9 C 33 %
1483 09-03-2019 08:31:17 9 C 33 %
1484 09-03-2019 08:43:17 9.5 C 32 %
1485 09-03-2019 08:55:17 9.8 C 31 %
1486 09-03-2019 09:07:17 9.8 C 31 %
1487 09-03-2019 09:19:17 9.8 C 31 %
1488 09-03-2019 09:31:17 9.8 C 32 %
1489 09-03-2019 09:43:18 9.9 C 31 %
1490 09-03-2019 09:55:17 9.9 C 31 %
1491 09-03-2019 10:07:17 10 C 30 %
1492 09-03-2019 10:19:17 10.2 C 28 %
1493 09-03-2019 10:31:18 10.2 C 27 %
1494 09-03-2019 10:43:18 10.2 C 28 %
1495 09-03-2019 10:55:17 10.1 C 28 %
1496 09-03-2019 11:07:17 10.3 C 27 %
1497 09-03-2019 11:19:17 10.5 C 27 %
1498 09-03-2019 11:31:18 10.6 C 27 %
1499 09-03-2019 11:43:18 11 C 25 %
1500 09-03-2019 11:55:17 11.2 C 25 %
Sensor: Nr:Datum:Temp:Feuchte:
Aussen-T/F 1501 09-03-2019 12:07:17 11.2 C 23 %
1502 09-03-2019 12:19:17 11.3 C 24 %
1503 09-03-2019 12:31:17 11.5 C 23 %
1504 09-03-2019 12:43:18 12.1 C 20 %
1505 09-03-2019 12:55:17 11.8 C 21 %
1506 09-03-2019 13:07:17 12.1 C 21 %
1507 09-03-2019 13:19:17 12.3 C 20 %
1508 09-03-2019 13:31:17 12.7 C 20 %
1509 09-03-2019 13:43:17 12.5 C 20 %
1510 09-03-2019 13:55:18 12.8 C 20 %
1511 09-03-2019 14:07:17 13.1 C 20 %
1512 09-03-2019 14:19:17 13.3 C 20 %
1513 09-03-2019 14:31:18 13.4 C 20 %
1514 09-03-2019 14:43:18 13.5 C 20 %
1515 09-03-2019 14:55:17 12.8 C 20 %
1516 09-03-2019 15:07:17 13 C 20 %
1517 09-03-2019 15:19:17 12.9 C 20 %
1518 09-03-2019 15:31:18 13.2 C 20 %
1519 09-03-2019 15:43:18 14.1 C 20 %
1520 09-03-2019 15:55:17 13.7 C 20 %
1521 09-03-2019 16:07:17 13.5 C 20 %
1522 09-03-2019 16:19:17 13 C 20 %
1523 09-03-2019 16:31:17 13.4 C 20 %
1524 09-03-2019 16:43:17 13.1 C 20 %
1525 09-03-2019 16:55:17 13.2 C 20 %
Sensor: Nr:Datum:Temp:Feuchte:
Aussen-T/F 1526 09-03-2019 17:07:17 13.5 C 20 %
1527 09-03-2019 17:19:17 12.7 C 20 %
1528 09-03-2019 17:31:17 13.2 C 20 %
1529 09-03-2019 17:43:17 12.7 C 20 %
1530 09-03-2019 17:55:17 12.3 C 20 %
1531 09-03-2019 18:07:17 11.8 C 20 %
1532 09-03-2019 18:19:17 11.7 C 20 %
1533 09-03-2019 18:31:17 11.6 C 20 %
1534 09-03-2019 18:43:17 11.7 C 20 %
1535 09-03-2019 18:55:17 11.7 C 20 %
1536 09-03-2019 19:07:18 10.7 C 20 %
1537 09-03-2019 19:19:17 10.2 C 20 %
1538 09-03-2019 19:31:17 9.6 C 27 %
1539 09-03-2019 19:43:17 9.5 C 28 %
1540 09-03-2019 19:55:17 9.2 C 30 %
1541 09-03-2019 20:07:18 9 C 30 %
1542 09-03-2019 20:19:17 9.1 C 31 %
1543 09-03-2019 20:31:17 9 C 32 %
1544 09-03-2019 20:43:17 9 C 32 %
1545 09-03-2019 20:55:17 9 C 32 %
1546 09-03-2019 21:07:17 9.3 C 28 %
1547 09-03-2019 21:19:17 9.7 C 26 %
1548 09-03-2019 21:31:18 9.2 C 32 %
1549 09-03-2019 21:43:18 8.9 C 35 %
1550 09-03-2019 21:55:17 8.7 C 35 %
Sensor: Nr:Datum:Temp:Feuchte:
Aussen-T/F 1551 09-03-2019 22:07:17 8.7 C 36 %
1552 09-03-2019 22:19:17 8.8 C 36 %
1553 09-03-2019 22:31:17 9.6 C 23 %
1554 09-03-2019 22:43:17 10 C 20 %
1555 09-03-2019 22:55:17 10.1 C 20 %
1556 09-03-2019 23:07:18 10 C 20 %
1557 09-03-2019 23:19:17 10 C 20 %
1558 09-03-2019 23:31:17 10 C 20 %
1559 09-03-2019 23:43:17 10 C 20 %
1560 09-03-2019 23:55:17 9.8 C 20 %
1561 10-03-2019 00:07:17 9.8 C 20 %
1562 10-03-2019 00:19:17 9.8 C 20 %
1563 10-03-2019 00:31:17 9.7 C 20 %
1564 10-03-2019 00:43:17 9.3 C 20 %
1565 10-03-2019 00:55:17 9.3 C 20 %
1566 10-03-2019 01:07:17 9.3 C 20 %
1567 10-03-2019 01:19:17 9.2 C 20 %
1568 10-03-2019 01:31:17 9.2 C 20 %
1569 10-03-2019 01:43:17 9 C 20 %
1570 10-03-2019 01:55:17 9.1 C 20 %
1571 10-03-2019 02:07:17 9 C 20 %
1572 10-03-2019 02:19:18 9 C 20 %
1573 10-03-2019 02:31:17 9 C 20 %
1574 10-03-2019 02:43:17 9.1 C 20 %
1575 10-03-2019 02:55:17 9.1 C 20 %
Sensor: Nr:Datum:Temp:Feuchte:
Aussen-T/F 1576 10-03-2019 03:07:17 8.9 C 21 %
1577 10-03-2019 03:19:17 8.5 C 25 %
1578 10-03-2019 03:31:17 8.2 C 26 %
1579 10-03-2019 03:43:17 7.7 C 30 %
1580 10-03-2019 03:55:17 7.6 C 33 %
1581 10-03-2019 04:07:17 7.8 C 33 %
1582 10-03-2019 04:19:17 7.3 C 37 %
1583 10-03-2019 04:31:17 7.1 C 42 %
1584 10-03-2019 04:43:17 7 C 44 %
1585 10-03-2019 04:55:17 6.8 C 46 %
1586 10-03-2019 05:07:17 6.9 C 49 %
1587 10-03-2019 05:19:17 6.9 C 52 %
1588 10-03-2019 05:31:17 6.8 C 53 %
1589 10-03-2019 05:43:17 6.9 C 54 %
1590 10-03-2019 05:55:18 6.8 C 54 %
1591 10-03-2019 06:07:17 6.9 C 54 %
1592 10-03-2019 06:19:18 7.1 C 53 %
1593 10-03-2019 06:31:17 6.8 C 54 %
1594 10-03-2019 06:43:17 6.7 C 53 %
1595 10-03-2019 06:55:17 6.7 C 54 %
1596 10-03-2019 07:07:18 6.9 C 54 %
1597 10-03-2019 07:19:17 7.1 C 54 %
1598 10-03-2019 07:31:17 7.2 C 54 %
1599 10-03-2019 07:43:17 7.4 C 54 %
1600 10-03-2019 07:55:17 7.4 C 54 %
Sensor: Nr:Datum:Temp:Feuchte:
Aussen-T/F 1601 10-03-2019 08:07:17 7.6 C 54 %
1602 10-03-2019 08:19:17 8 C 54 %
1603 10-03-2019 08:31:17 8.7 C 55 %
1604 10-03-2019 08:43:17 9 C 53 %
1605 10-03-2019 08:55:17 9.4 C 48 %
1606 10-03-2019 09:07:17 9.7 C 46 %
1607 10-03-2019 09:19:17 10 C 43 %
1608 10-03-2019 09:31:17 10.3 C 43 %
1609 10-03-2019 09:43:17 11 C 41 %
1610 10-03-2019 09:55:17 11.2 C 40 %
1611 10-03-2019 10:07:18 11.4 C 40 %
1612 10-03-2019 10:19:17 11.6 C 40 %
1613 10-03-2019 10:31:17 11.7 C 40 %
1614 10-03-2019 10:43:17 12.6 C 39 %
1615 10-03-2019 10:55:17 12.7 C 35 %
1616 10-03-2019 11:07:17 12.9 C 31 %
1617 10-03-2019 11:19:17 13.3 C 25 %
1618 10-03-2019 11:31:17 13.1 C 21 %
1619 10-03-2019 11:43:17 13.3 C 21 %
1620 10-03-2019 11:55:18 13.6 C 20 %
1621 10-03-2019 12:07:17 13.9 C 20 %
1622 10-03-2019 12:19:17 14 C 20 %
1623 10-03-2019 12:31:18 14.2 C 20 %
1624 10-03-2019 12:43:18 13.9 C 20 %
1625 10-03-2019 12:55:17 14 C 20 %
Sensor: Nr:Datum:Temp:Feuchte:
Aussen-T/F 1626 10-03-2019 13:07:17 13.7 C 20 %
1627 10-03-2019 13:19:17 13.7 C 20 %
1628 10-03-2019 13:31:17 14.5 C 20 %
1629 10-03-2019 13:43:17 14.8 C 20 %
1630 10-03-2019 13:55:17 14.8 C 20 %
1631 10-03-2019 14:07:17 14.5 C 20 %
1632 10-03-2019 14:19:17 14.2 C 20 %
1633 10-03-2019 14:31:17 14.1 C 20 %
1634 10-03-2019 14:43:17 13.9 C 20 %
1635 10-03-2019 14:55:17 13.7 C 20 %
1636 10-03-2019 15:07:17 13.5 C 20 %
1637 10-03-2019 15:19:17 13.2 C 20 %
1638 10-03-2019 15:31:17 13.4 C 20 %
1639 10-03-2019 15:43:17 13.6 C 20 %
1640 10-03-2019 15:55:17 13.4 C 20 %
1641 10-03-2019 16:07:18 12.8 C 20 %
1642 10-03-2019 16:19:17 12.2 C 20 %
1643 10-03-2019 16:31:18 12.2 C 20 %
1644 10-03-2019 16:43:18 12.1 C 20 %
1645 10-03-2019 16:55:17 11.7 C 20 %
1646 10-03-2019 17:07:17 11.7 C 20 %
1647 10-03-2019 17:19:17 11.1 C 20 %
1648 10-03-2019 17:31:17 9.1 C 20 %
1649 10-03-2019 17:43:17 9 C 20 %
1650 10-03-2019 17:55:17 8.7 C 20 %
Sensor: Nr:Datum:Temp:Feuchte:
Aussen-T/F 1651 10-03-2019 18:07:18 8.7 C 20 %
1652 10-03-2019 18:19:17 6.5 C 31 %
1653 10-03-2019 18:31:18 6.4 C 33 %
1654 10-03-2019 18:43:18 6.1 C 35 %
1655 10-03-2019 18:55:17 6 C 33 %
1656 10-03-2019 19:07:17 6.4 C 30 %
1657 10-03-2019 19:19:17 6.3 C 30 %
1658 10-03-2019 19:31:18 6.6 C 27 %
1659 10-03-2019 19:43:18 6.6 C 26 %
1660 10-03-2019 19:55:17 6.8 C 21 %
1661 10-03-2019 20:07:17 6.9 C 20 %
1662 10-03-2019 20:19:17 5.4 C 20 %
1663 10-03-2019 20:31:17 5.1 C 20 %
1664 10-03-2019 20:43:17 5 C 23 %
1665 10-03-2019 20:55:17 5 C 25 %
1666 10-03-2019 21:07:17 4.8 C 26 %
1667 10-03-2019 21:19:17 4.7 C 27 %
1668 10-03-2019 21:31:17 4.7 C 26 %
1669 10-03-2019 21:43:17 4.9 C 25 %
1670 10-03-2019 21:55:17 4.5 C 25 %
1671 10-03-2019 22:07:17 4.3 C 26 %
1672 10-03-2019 22:19:17 4.7 C 26 %
1673 10-03-2019 22:31:17 4.8 C 26 %
1674 10-03-2019 22:43:17 4.7 C 27 %
1675 10-03-2019 22:55:17 4.5 C 28 %
Sensor: Nr:Datum:Temp:Feuchte:
Aussen-T/F 1676 10-03-2019 23:07:17 4.3 C 29 %
1677 10-03-2019 23:19:17 4.6 C 27 %
1678 10-03-2019 23:31:17 4.6 C 26 %
1679 10-03-2019 23:43:17 4.3 C 27 %
1680 10-03-2019 23:55:17 4.1 C 26 %
1681 11-03-2019 00:07:17 3.8 C 29 %
1682 11-03-2019 00:19:17 3.3 C 31 %
1683 11-03-2019 00:31:17 3.6 C 30 %
1684 11-03-2019 00:43:17 3.3 C 31 %
1685 11-03-2019 00:55:18 3.7 C 30 %
1686 11-03-2019 01:07:17 3.8 C 28 %
1687 11-03-2019 01:19:17 3.7 C 28 %
1688 11-03-2019 01:31:18 3.5 C 29 %
1689 11-03-2019 01:43:18 4.2 C 25 %
1690 11-03-2019 01:55:17 4.3 C 23 %
1691 11-03-2019 02:07:17 4.7 C 23 %
1692 11-03-2019 02:19:17 4.7 C 25 %
1693 11-03-2019 02:31:17 4.3 C 27 %
1694 11-03-2019 02:43:17 4.3 C 28 %
1695 11-03-2019 02:55:17 4.3 C 28 %
1696 11-03-2019 03:07:17 4.4 C 29 %
1697 11-03-2019 03:19:17 3 C 33 %
1698 11-03-2019 03:31:17 1.5 C 41 %
1699 11-03-2019 03:43:17 1.2 C 47 %
1700 11-03-2019 03:55:17 1.3 C 51 %
Sensor: Nr:Datum:Temp:Feuchte:
Aussen-T/F 1701 11-03-2019 04:07:18 1.5 C 54 %
1702 11-03-2019 04:19:17 1.6 C 55 %
1703 11-03-2019 04:31:17 1.7 C 56 %
1704 11-03-2019 04:43:17 1.5 C 55 %
1705 11-03-2019 04:55:17 1.5 C 55 %
1706 11-03-2019 05:07:17 1.5 C 55 %
1707 11-03-2019 05:19:17 1.2 C 52 %
1708 11-03-2019 05:31:17 1.2 C 51 %
1709 11-03-2019 05:43:17 1.2 C 51 %
1710 11-03-2019 05:55:17 1.2 C 49 %
1711 11-03-2019 06:07:18 0.8 C 48 %
1712 11-03-2019 06:19:17 0.6 C 50 %
1713 11-03-2019 06:31:17 0.6 C 52 %
1714 11-03-2019 06:43:17 0.5 C 54 %
1715 11-03-2019 06:55:17 0.5 C 54 %
1716 11-03-2019 07:07:17 0.6 C 56 %
1717 11-03-2019 07:19:17 0.7 C 56 %
1718 11-03-2019 07:31:17 0.8 C 57 %
1719 11-03-2019 07:43:17 1.1 C 55 %
1720 11-03-2019 07:55:17 1.3 C 55 %
1721 11-03-2019 08:07:17 1.2 C 54 %
1722 11-03-2019 08:19:17 1.2 C 54 %
1723 11-03-2019 08:31:18 1.8 C 53 %
1724 11-03-2019 08:43:18 2.3 C 50 %
1725 11-03-2019 08:55:17 2.7 C 44 %
Sensor: Nr:Datum:Temp:Feuchte:
Aussen-T/F 1726 11-03-2019 09:07:17 3.1 C 34 %
1727 11-03-2019 09:19:18 3.3 C 32 %
1728 11-03-2019 09:31:17 2.7 C 34 %
1729 11-03-2019 09:43:17 2.4 C 38 %
1730 11-03-2019 09:55:17 2.6 C 39 %
1731 11-03-2019 10:07:17 3.2 C 37 %
1732 11-03-2019 10:19:17 3.9 C 36 %
1733 11-03-2019 10:31:17 3.7 C 34 %
1734 11-03-2019 10:43:17 3.5 C 33 %
1735 11-03-2019 10:55:17 3.7 C 32 %
1736 11-03-2019 11:07:18 4.3 C 31 %
1737 11-03-2019 11:19:17 4.4 C 30 %
1738 11-03-2019 11:31:17 5.8 C 27 %
1739 11-03-2019 11:43:17 5.2 C 23 %
1740 11-03-2019 11:55:18 5.1 C 21 %
1741 11-03-2019 12:07:17 5 C 21 %
1742 11-03-2019 12:19:17 5.2 C 20 %
1743 11-03-2019 12:31:17 5.5 C 20 %
1744 11-03-2019 12:43:17 5.6 C 20 %
1745 11-03-2019 12:55:17 5.9 C 20 %
1746 11-03-2019 13:07:17 5.6 C 20 %
1747 11-03-2019 13:19:17 5.9 C 20 %
1748 11-03-2019 13:31:17 6 C 20 %
1749 11-03-2019 13:43:17 6.4 C 20 %
1750 11-03-2019 13:55:17 6.1 C 20 %
Sensor: Nr:Datum:Temp:Feuchte:
Aussen-T/F 1751 11-03-2019 14:07:17 6.1 C 20 %
1752 11-03-2019 14:19:17 6.7 C 20 %
1753 11-03-2019 14:31:17 6.8 C 20 %
1754 11-03-2019 14:43:17 7 C 20 %
1755 11-03-2019 14:55:17 7.2 C 20 %
1756 11-03-2019 15:07:17 7.3 C 20 %
1757 11-03-2019 15:19:17 7.2 C 20 %
1758 11-03-2019 15:31:17 7.7 C 20 %
1759 11-03-2019 15:43:17 7.4 C 20 %
1760 11-03-2019 15:55:17 7.3 C 20 %
1761 11-03-2019 16:07:17 6.8 C 20 %
1762 11-03-2019 16:19:17 6.9 C 20 %
1763 11-03-2019 16:31:17 6.9 C 20 %
1764 11-03-2019 16:43:17 6.7 C 20 %
1765 11-03-2019 16:55:17 7 C 20 %
1766 11-03-2019 17:07:17 6.1 C 20 %
1767 11-03-2019 17:19:18 5.8 C 20 %
1768 11-03-2019 17:31:17 7.6 C 20 %
1769 11-03-2019 17:43:17 8.5 C 20 %
1770 11-03-2019 17:55:17 8.7 C 20 %
1771 11-03-2019 18:07:18 7.3 C 20 %
1772 11-03-2019 18:19:17 6.4 C 20 %
1773 11-03-2019 18:31:17 6 C 20 %
1774 11-03-2019 18:43:17 5.7 C 20 %
1775 11-03-2019 18:55:17 5.4 C 20 %
Sensor: Nr:Datum:Temp:Feuchte:
Aussen-T/F 1776 11-03-2019 19:07:17 5.3 C 20 %
1777 11-03-2019 19:19:17 5.2 C 20 %
1778 11-03-2019 19:31:17 5.2 C 20 %
1779 11-03-2019 19:43:17 5.3 C 20 %
1780 11-03-2019 19:55:17 5.1 C 20 %
1781 11-03-2019 20:07:17 5 C 20 %
1782 11-03-2019 20:19:17 5.1 C 20 %
1783 11-03-2019 20:31:17 4.9 C 20 %
1784 11-03-2019 20:43:18 4.9 C 20 %
1785 11-03-2019 20:55:17 4.8 C 20 %
1786 11-03-2019 21:07:17 4.4 C 20 %
1787 11-03-2019 21:19:17 4.7 C 20 %
1788 11-03-2019 21:31:17 4.6 C 20 %
1789 11-03-2019 21:43:17 4.6 C 20 %
1790 11-03-2019 21:55:17 4.7 C 20 %
1791 11-03-2019 22:07:17 4.7 C 20 %
1792 11-03-2019 22:19:17 4.7 C 20 %
1793 11-03-2019 22:31:17 4.4 C 20 %
1794 11-03-2019 22:43:17 4.2 C 20 %
1795 11-03-2019 22:55:17 4.1 C 20 %
1796 11-03-2019 23:07:17 4.1 C 20 %
1797 11-03-2019 23:19:17 4 C 20 %
1798 11-03-2019 23:31:18 4 C 20 %
1799 11-03-2019 23:43:18 3.6 C 23 %
1800 11-03-2019 23:55:17 3.7 C 23 %
Sensor: Nr:Datum:Temp:Feuchte:
Aussen-T/F 1801 12-03-2019 00:07:17 3.5 C 25 %
1802 12-03-2019 00:19:17 3.4 C 27 %
1803 12-03-2019 00:31:18 3.2 C 30 %
1804 12-03-2019 00:43:18 3.3 C 30 %
1805 12-03-2019 00:55:17 3.2 C 30 %
1806 12-03-2019 01:07:17 2.7 C 31 %
1807 12-03-2019 01:19:17 2 C 35 %
1808 12-03-2019 01:31:18 2.4 C 36 %
1809 12-03-2019 01:43:18 2.1 C 35 %
1810 12-03-2019 01:55:17 1.6 C 40 %
1811 12-03-2019 02:07:17 1.3 C 40 %
1812 12-03-2019 02:19:18 0.9 C 42 %
1813 12-03-2019 02:31:17 0.8 C 44 %
1814 12-03-2019 02:43:17 0.8 C 45 %
1815 12-03-2019 02:55:17 1.1 C 41 %
1816 12-03-2019 03:07:18 1.1 C 42 %
1817 12-03-2019 03:19:17 1.3 C 42 %
1818 12-03-2019 03:31:17 1.1 C 40 %
1819 12-03-2019 03:43:17 1.4 C 40 %
1820 12-03-2019 03:55:17 1.2 C 38 %
1821 12-03-2019 04:07:18 0.9 C 41 %
1822 12-03-2019 04:19:17 1.1 C 40 %
1823 12-03-2019 04:31:17 0.8 C 41 %
1824 12-03-2019 04:43:17 0.7 C 42 %
1825 12-03-2019 04:55:17 0.8 C 43 %
Sensor: Nr:Datum:Temp:Feuchte:
Aussen-T/F 1826 12-03-2019 05:07:17 1.1 C 41 %
1827 12-03-2019 05:19:17 1.4 C 40 %
1828 12-03-2019 05:31:17 1.4 C 40 %
1829 12-03-2019 05:43:17 1.4 C 40 %
1830 12-03-2019 05:55:17 1.4 C 40 %
1831 12-03-2019 06:07:17 1.3 C 41 %
1832 12-03-2019 06:19:17 1.2 C 41 %
1833 12-03-2019 06:31:17 0.9 C 43 %
1834 12-03-2019 06:43:17 0.6 C 46 %
1835 12-03-2019 06:55:18 0.7 C 47 %
1836 12-03-2019 07:07:17 0.9 C 47 %
1837 12-03-2019 07:19:17 0.9 C 47 %
1838 12-03-2019 07:31:17 1.4 C 47 %
1839 12-03-2019 07:43:18 1.8 C 46 %
1840 12-03-2019 07:55:17 2.2 C 45 %
1841 12-03-2019 08:07:17 2.4 C 41 %
1842 12-03-2019 08:19:17 2.6 C 39 %
1843 12-03-2019 08:31:18 3.2 C 38 %
1844 12-03-2019 08:43:18 3.8 C 32 %
1845 12-03-2019 08:55:17 4.4 C 30 %
1846 12-03-2019 09:07:17 4.6 C 30 %
1847 12-03-2019 09:19:18 4.7 C 30 %
1848 12-03-2019 09:31:17 5 C 29 %
1849 12-03-2019 09:43:17 5.7 C 27 %
1850 12-03-2019 09:55:17 6.3 C 23 %
Sensor: Nr:Datum:Temp:Feuchte:
Aussen-T/F 1851 12-03-2019 10:07:17 7.3 C 20 %
1852 12-03-2019 10:19:17 7.4 C 20 %
1853 12-03-2019 10:31:17 7.4 C 20 %
1854 12-03-2019 10:43:17 8.6 C 20 %
1855 12-03-2019 10:55:17 8.1 C 20 %
1856 12-03-2019 11:07:17 8.4 C 20 %
1857 12-03-2019 11:19:17 9.1 C 20 %
1858 12-03-2019 11:31:17 9.9 C 20 %
1859 12-03-2019 11:43:17 9.3 C 20 %
1860 12-03-2019 11:55:17 9.2 C 20 %
1861 12-03-2019 12:07:17 9.3 C 20 %
1862 12-03-2019 12:19:17 9.4 C 20 %
1863 12-03-2019 12:31:17 9.6 C 20 %
1864 12-03-2019 12:43:17 9.9 C 20 %
1865 12-03-2019 12:55:17 9.7 C 20 %
1866 12-03-2019 13:07:18 9.6 C 20 %
1867 12-03-2019 13:19:17 9.8 C 20 %
1868 12-03-2019 13:31:17 10.3 C 20 %
1869 12-03-2019 13:43:17 9.7 C 20 %
1870 12-03-2019 13:55:17 10.1 C 20 %
1871 12-03-2019 14:07:17 10.1 C 20 %
1872 12-03-2019 14:19:17 10.3 C 20 %
1873 12-03-2019 14:31:18 10.5 C 20 %
1874 12-03-2019 14:43:18 10.6 C 20 %
1875 12-03-2019 14:55:17 11.4 C 20 %
Sensor: Nr:Datum:Temp:Feuchte:
Aussen-T/F 1876 12-03-2019 15:07:17 11 C 20 %
1877 12-03-2019 15:19:17 10.4 C 20 %
1878 12-03-2019 15:31:17 10.4 C 20 %
1879 12-03-2019 15:43:17 10.2 C 20 %
1880 12-03-2019 15:55:17 10.6 C 20 %
1881 12-03-2019 16:07:18 10.4 C 20 %
1882 12-03-2019 16:19:17 10 C 20 %
1883 12-03-2019 16:31:17 9.8 C 20 %
1884 12-03-2019 16:43:17 9.7 C 20 %
1885 12-03-2019 16:55:17 9.4 C 20 %
1886 12-03-2019 17:07:17 9.2 C 20 %
1887 12-03-2019 17:19:17 8.8 C 20 %
1888 12-03-2019 17:31:18 8.2 C 20 %
1889 12-03-2019 17:43:18 8 C 20 %
1890 12-03-2019 17:55:17 7.6 C 20 %
1891 12-03-2019 18:07:17 7.1 C 20 %
1892 12-03-2019 18:19:17 7 C 20 %
1893 12-03-2019 18:31:17 7.3 C 20 %
1894 12-03-2019 18:43:17 7.4 C 20 %
1895 12-03-2019 18:55:17 7.7 C 20 %
1896 12-03-2019 19:07:17 7.7 C 20 %
1897 12-03-2019 19:19:17 7.8 C 20 %
1898 12-03-2019 19:31:17 7.9 C 20 %
1899 12-03-2019 19:43:17 8.1 C 20 %
1900 12-03-2019 19:55:17 7.7 C 20 %
Sensor: Nr:Datum:Temp:Feuchte:
Aussen-T/F 1901 12-03-2019 20:07:17 8 C 20 %
1902 12-03-2019 20:19:17 8.6 C 20 %
1903 12-03-2019 20:31:17 8.6 C 20 %
1904 12-03-2019 20:43:17 8.9 C 20 %
1905 12-03-2019 20:55:17 9 C 20 %
1906 12-03-2019 21:07:18 9.7 C 20 %
1907 12-03-2019 21:19:17 10.1 C 20 %
1908 12-03-2019 21:31:17 10.3 C 20 %
1909 12-03-2019 21:43:17 10.5 C 20 %
1910 12-03-2019 21:55:17 10.6 C 20 %
1911 12-03-2019 22:07:18 10.7 C 20 %
1912 12-03-2019 22:19:17 10.9 C 20 %
1913 12-03-2019 22:31:17 10.6 C 20 %
1914 12-03-2019 22:43:17 10.5 C 20 %
1915 12-03-2019 22:55:17 9.6 C 20 %
1916 12-03-2019 23:07:17 8.4 C 20 %
1917 12-03-2019 23:19:17 8.4 C 20 %
1918 12-03-2019 23:31:17 8 C 25 %
1919 12-03-2019 23:43:17 6.2 C 32 %
1920 12-03-2019 23:55:17 5.7 C 36 %
1921 13-03-2019 00:07:17 5.5 C 36 %
1922 13-03-2019 00:19:17 5.4 C 32 %
1923 13-03-2019 00:31:17 5.6 C 31 %
1924 13-03-2019 00:43:17 5.6 C 30 %
1925 13-03-2019 00:55:17 5.6 C 30 %
Sensor: Nr:Datum:Temp:Feuchte:
Aussen-T/F 1926 13-03-2019 01:07:17 5.4 C 27 %
1927 13-03-2019 01:19:18 5.1 C 28 %
1928 13-03-2019 01:31:17 5 C 29 %
1929 13-03-2019 01:43:17 5.1 C 26 %
1930 13-03-2019 01:55:17 4.9 C 27 %
1931 13-03-2019 02:07:18 4.8 C 28 %
1932 13-03-2019 02:19:17 4.7 C 30 %
1933 13-03-2019 02:31:17 5.1 C 28 %
1934 13-03-2019 02:43:17 5.4 C 21 %
1935 13-03-2019 02:55:17 5.3 C 21 %
1936 13-03-2019 03:07:17 5 C 23 %
1937 13-03-2019 03:19:17 5 C 21 %
1938 13-03-2019 03:31:17 5.3 C 21 %
1939 13-03-2019 03:43:18 5.4 C 23 %
1940 13-03-2019 03:55:17 5.1 C 25 %
1941 13-03-2019 04:07:17 5 C 25 %
1942 13-03-2019 04:19:17 5 C 25 %
1943 13-03-2019 04:31:17 4.7 C 29 %
1944 13-03-2019 04:43:17 4.6 C 30 %
1945 13-03-2019 04:55:17 4.6 C 30 %
1946 13-03-2019 05:07:17 4.6 C 32 %
1947 13-03-2019 05:19:17 4.4 C 33 %
1948 13-03-2019 05:31:17 4.6 C 33 %
1949 13-03-2019 05:43:17 4.9 C 33 %
1950 13-03-2019 05:55:17 4.6 C 32 %
Sensor: Nr:Datum:Temp:Feuchte:
Aussen-T/F 1951 13-03-2019 06:07:17 4.4 C 31 %
1952 13-03-2019 06:19:17 4.1 C 33 %
1953 13-03-2019 06:31:17 4.7 C 31 %
1954 13-03-2019 06:43:17 5 C 29 %
1955 13-03-2019 06:55:18 4.9 C 30 %
1956 13-03-2019 07:07:17 4.7 C 29 %
1957 13-03-2019 07:19:17 4.8 C 29 %
1958 13-03-2019 07:31:17 4.8 C 28 %
1959 13-03-2019 07:43:17 5.1 C 26 %
1960 13-03-2019 07:55:18 5 C 29 %
1961 13-03-2019 08:07:17 5.1 C 28 %
1962 13-03-2019 08:19:17 5.6 C 26 %
1963 13-03-2019 08:31:17 5.8 C 26 %
1964 13-03-2019 08:43:18 5.8 C 26 %
1965 13-03-2019 08:55:17 5.8 C 27 %
1966 13-03-2019 09:07:17 5.7 C 27 %
1967 13-03-2019 09:19:17 6.3 C 20 %
1968 13-03-2019 09:31:18 6.4 C 20 %
1969 13-03-2019 09:43:18 6 C 20 %
1970 13-03-2019 09:55:17 5.9 C 21 %
1971 13-03-2019 10:07:17 6.7 C 20 %
1972 13-03-2019 10:19:17 6.9 C 20 %
1973 13-03-2019 10:31:17 6.8 C 20 %
1974 13-03-2019 10:43:17 7 C 20 %
1975 13-03-2019 10:55:17 7.2 C 20 %
Sensor: Nr:Datum:Temp:Feuchte:
Aussen-T/F 1976 13-03-2019 11:07:17 7.6 C 20 %
1977 13-03-2019 11:19:17 7.9 C 20 %
1978 13-03-2019 11:31:17 8.2 C 20 %
1979 13-03-2019 11:43:17 8 C 20 %
1980 13-03-2019 11:55:17 7.6 C 20 %
1981 13-03-2019 12:07:17 8.1 C 20 %
1982 13-03-2019 12:19:17 8.2 C 20 %
1983 13-03-2019 12:31:17 8.6 C 20 %
1984 13-03-2019 12:43:17 8.2 C 20 %
1985 13-03-2019 12:55:17 8 C 20 %
1986 13-03-2019 13:07:17 7.6 C 20 %
1987 13-03-2019 13:19:17 7.9 C 20 %
1988 13-03-2019 13:31:17 7.7 C 20 %
1989 13-03-2019 13:43:17 7.6 C 23 %
1990 13-03-2019 13:55:17 7.8 C 20 %
1991 13-03-2019 14:07:18 8 C 20 %
1992 13-03-2019 14:19:17 7.8 C 21 %
1993 13-03-2019 14:31:17 7.6 C 21 %
1994 13-03-2019 14:43:17 7.7 C 23 %
1995 13-03-2019 14:55:17 7.9 C 21 %
1996 13-03-2019 15:07:17 7.5 C 25 %
1997 13-03-2019 15:19:17 7.5 C 25 %
1998 13-03-2019 15:31:18 7.7 C 25 %
1999 13-03-2019 15:43:18 7.3 C 27 %
2000 13-03-2019 15:55:17 6.9 C 31 %
Sensor: Nr:Datum:Temp:Feuchte:
Aussen-T/F 2001 13-03-2019 16:07:17 6.2 C 37 %
2002 13-03-2019 16:19:17 5.8 C 41 %
2003 13-03-2019 16:31:17 5.9 C 41 %
2004 13-03-2019 16:43:18 5.9 C 42 %
2005 13-03-2019 16:55:17 5.8 C 44 %
2006 13-03-2019 17:07:17 6.2 C 40 %
2007 13-03-2019 17:19:18 6.2 C 37 %
2008 13-03-2019 17:31:17 6 C 37 %
2009 13-03-2019 17:43:17 6 C 38 %
2010 13-03-2019 17:55:17 6.1 C 37 %
2011 13-03-2019 18:07:17 6.5 C 35 %
2012 13-03-2019 18:19:17 6 C 37 %
2013 13-03-2019 18:31:17 5.7 C 42 %
2014 13-03-2019 18:43:17 5.3 C 46 %
2015 13-03-2019 18:55:17 4.2 C 46 %
2016 13-03-2019 19:07:17 4.3 C 47 %
2017 13-03-2019 19:19:17 4.2 C 47 %
2018 13-03-2019 19:31:17 4.1 C 49 %
2019 13-03-2019 19:43:17 4.1 C 50 %
2020 13-03-2019 19:55:17 4.3 C 52 %
2021 13-03-2019 20:07:17 4.8 C 44 %
2022 13-03-2019 20:19:17 4.7 C 42 %
2023 13-03-2019 20:31:17 4.4 C 43 %
2024 13-03-2019 20:43:17 4.3 C 42 %
2025 13-03-2019 20:55:17 4.5 C 42 %
Sensor: Nr:Datum:Temp:Feuchte:
Aussen-T/F 2026 13-03-2019 21:07:17 4.4 C 42 %
2027 13-03-2019 21:19:17 4.3 C 45 %
2028 13-03-2019 21:31:17 4.4 C 46 %
2029 13-03-2019 21:43:17 4.3 C 46 %
2030 13-03-2019 21:55:17 4.6 C 46 %
2031 13-03-2019 22:07:17 4.3 C 46 %
2032 13-03-2019 22:19:17 4.4 C 47 %
2033 13-03-2019 22:31:18 4.4 C 47 %
2034 13-03-2019 22:43:18 4.5 C 46 %
2035 13-03-2019 22:55:17 4.6 C 45 %
2036 13-03-2019 23:07:17 3.8 C 48 %
2037 13-03-2019 23:19:17 3.6 C 50 %
2038 13-03-2019 23:31:18 3.7 C 53 %
2039 13-03-2019 23:43:18 3.8 C 53 %
2040 13-03-2019 23:55:17 4 C 48 %
2041 14-03-2019 00:07:17 3.9 C 46 %
2042 14-03-2019 00:19:17 4.1 C 44 %
2043 14-03-2019 00:31:17 4 C 43 %
2044 14-03-2019 00:43:17 4.2 C 41 %
2045 14-03-2019 00:55:17 4.4 C 39 %
2046 14-03-2019 01:07:17 4.6 C 39 %
2047 14-03-2019 01:19:17 4.5 C 40 %
2048 14-03-2019 01:31:17 4.1 C 42 %
2049 14-03-2019 01:43:17 4.1 C 45 %
2050 14-03-2019 01:55:17 4.1 C 46 %
Sensor: Nr:Datum:Temp:Feuchte:
Aussen-T/F 2051 14-03-2019 02:07:17 4.2 C 46 %
2052 14-03-2019 02:19:18 4.2 C 46 %
2053 14-03-2019 02:31:17 4.1 C 45 %
2054 14-03-2019 02:43:17 3.9 C 46 %
2055 14-03-2019 02:55:17 3.6 C 46 %
2056 14-03-2019 03:07:17 3.5 C 47 %
2057 14-03-2019 03:19:17 3.5 C 50 %
2058 14-03-2019 03:31:17 3.5 C 51 %
2059 14-03-2019 03:43:17 3.8 C 52 %
2060 14-03-2019 03:55:17 4.2 C 48 %
2061 14-03-2019 04:07:17 4.1 C 49 %
2062 14-03-2019 04:19:17 4 C 49 %
2063 14-03-2019 04:31:17 4.3 C 48 %
2064 14-03-2019 04:43:17 4.5 C 48 %
2065 14-03-2019 04:55:17 4.6 C 47 %
2066 14-03-2019 05:07:17 5 C 43 %
2067 14-03-2019 05:19:17 5 C 42 %
2068 14-03-2019 05:31:17 5.4 C 40 %
2069 14-03-2019 05:43:17 5.6 C 37 %
2070 14-03-2019 05:55:17 5.7 C 37 %
2071 14-03-2019 06:07:17 5.5 C 38 %
2072 14-03-2019 06:19:17 5.6 C 37 %
2073 14-03-2019 06:31:18 5.6 C 38 %
2074 14-03-2019 06:43:18 5.6 C 38 %
2075 14-03-2019 06:55:17 5.7 C 37 %
Sensor: Nr:Datum:Temp:Feuchte:
Aussen-T/F 2076 14-03-2019 07:07:17 5.7 C 36 %
2077 14-03-2019 07:19:17 5.8 C 36 %
2078 14-03-2019 07:31:17 5.8 C 35 %
2079 14-03-2019 07:43:17 5.9 C 35 %
2080 14-03-2019 07:55:17 6.1 C 33 %
2081 14-03-2019 08:07:17 6.1 C 32 %
2082 14-03-2019 08:19:17 6.2 C 32 %
2083 14-03-2019 08:31:17 6.2 C 32 %
2084 14-03-2019 08:43:17 5.8 C 35 %
2085 14-03-2019 08:55:17 5.5 C 38 %
2086 14-03-2019 09:07:18 5.5 C 40 %
2087 14-03-2019 09:19:17 5.4 C 42 %
2088 14-03-2019 09:31:17 5.4 C 42 %
2089 14-03-2019 09:43:17 5.6 C 41 %
2090 14-03-2019 09:55:17 5.7 C 40 %
2091 14-03-2019 10:07:18 5.7 C 40 %
2092 14-03-2019 10:19:17 5.8 C 39 %
2093 14-03-2019 10:31:17 5.8 C 39 %
2094 14-03-2019 10:43:18 5.8 C 39 %
2095 14-03-2019 10:55:17 5.6 C 40 %
2096 14-03-2019 11:07:17 5.6 C 41 %
2097 14-03-2019 11:19:18 5.6 C 41 %
2098 14-03-2019 11:31:17 5.7 C 41 %
2099 14-03-2019 11:43:17 6 C 41 %
2100 14-03-2019 11:55:17 6.1 C 40 %
Sensor: Nr:Datum:Temp:Feuchte:
Aussen-T/F 2101 14-03-2019 12:07:18 6.6 C 38 %
2102 14-03-2019 12:19:17 6.5 C 38 %
2103 14-03-2019 12:31:17 6.3 C 39 %
2104 14-03-2019 12:43:17 6.4 C 40 %
2105 14-03-2019 12:55:17 6.8 C 41 %
2106 14-03-2019 13:07:17 6.7 C 40 %
2107 14-03-2019 13:19:17 6.8 C 39 %
2108 14-03-2019 13:31:18 6.8 C 38 %
2109 14-03-2019 13:43:18 6.6 C 38 %
2110 14-03-2019 13:55:17 6.9 C 35 %
2111 14-03-2019 14:07:17 6.9 C 35 %
2112 14-03-2019 14:19:17 6.8 C 37 %
2113 14-03-2019 14:31:17 6.8 C 38 %
2114 14-03-2019 14:43:17 6.5 C 40 %
2115 14-03-2019 14:55:17 6.6 C 43 %
2116 14-03-2019 15:07:18 7 C 41 %
2117 14-03-2019 15:19:17 7.3 C 40 %
2118 14-03-2019 15:31:17 7.2 C 40 %
2119 14-03-2019 15:43:17 7.1 C 43 %
2120 14-03-2019 15:55:17 7.2 C 44 %
2121 14-03-2019 16:07:17 8 C 38 %
2122 14-03-2019 16:19:17 8.6 C 32 %
2123 14-03-2019 16:31:18 8.7 C 32 %
2124 14-03-2019 16:43:18 8.4 C 33 %
2125 14-03-2019 16:55:17 8.5 C 35 %
Sensor: Nr:Datum:Temp:Feuchte:
Aussen-T/F 2126 14-03-2019 17:07:17 8.4 C 37 %
2127 14-03-2019 17:19:18 9.3 C 35 %
2128 14-03-2019 17:31:17 10.3 C 30 %
2129 14-03-2019 17:43:17 10.2 C 28 %
2130 14-03-2019 17:55:17 9.8 C 31 %
2131 14-03-2019 18:07:17 9.3 C 33 %
2132 14-03-2019 18:19:17 9 C 35 %
2133 14-03-2019 18:31:18 9.4 C 31 %
2134 14-03-2019 18:43:18 9.2 C 30 %
2135 14-03-2019 18:55:17 9.2 C 29 %
2136 14-03-2019 19:07:17 9.2 C 26 %
2137 14-03-2019 19:19:18 9.2 C 25 %
2138 14-03-2019 19:31:17 9.1 C 23 %
2139 14-03-2019 19:43:17 7.9 C 31 %
2140 14-03-2019 19:55:17 7.2 C 36 %
2141 14-03-2019 20:07:18 6.8 C 40 %
2142 14-03-2019 20:19:17 6.6 C 42 %
2143 14-03-2019 20:31:17 6.5 C 41 %
2144 14-03-2019 20:43:17 6.7 C 40 %
2145 14-03-2019 20:55:18 6.9 C 38 %
2146 14-03-2019 21:07:17 7.1 C 35 %
2147 14-03-2019 21:19:17 7.6 C 32 %
2148 14-03-2019 21:31:17 7.6 C 33 %
2149 14-03-2019 21:43:17 7.5 C 33 %
2150 14-03-2019 21:55:17 7.2 C 35 %
Sensor: Nr:Datum:Temp:Feuchte:
Aussen-T/F 2151 14-03-2019 22:07:17 7.4 C 32 %
2152 14-03-2019 22:19:17 7.6 C 30 %
2153 14-03-2019 22:31:17 7.5 C 29 %
2154 14-03-2019 22:43:17 7.4 C 29 %
2155 14-03-2019 22:55:17 7.5 C 28 %
2156 14-03-2019 23:07:18 7.4 C 29 %
2157 14-03-2019 23:19:17 7.4 C 29 %
2158 14-03-2019 23:31:17 7.3 C 29 %
2159 14-03-2019 23:43:17 7.1 C 30 %
2160 14-03-2019 23:55:17 7 C 30 %
2161 15-03-2019 00:07:17 6.9 C 31 %
2162 15-03-2019 00:19:17 6.3 C 34 %
2163 15-03-2019 00:31:17 6.2 C 35 %
2164 15-03-2019 00:43:17 6 C 35 %
2165 15-03-2019 00:55:17 5.7 C 37 %
2166 15-03-2019 01:07:17 5.5 C 39 %
2167 15-03-2019 01:19:17 5.6 C 38 %
2168 15-03-2019 01:31:17 5.8 C 37 %
2169 15-03-2019 01:43:17 6 C 36 %
2170 15-03-2019 01:55:17 6.1 C 36 %
2171 15-03-2019 02:07:17 6.3 C 35 %
2172 15-03-2019 02:19:17 6.4 C 35 %
2173 15-03-2019 02:31:17 6.5 C 35 %
2174 15-03-2019 02:43:17 6.4 C 35 %
2175 15-03-2019 02:55:18 5.8 C 37 %
Sensor: Nr:Datum:Temp:Feuchte:
Aussen-T/F 2176 15-03-2019 03:07:17 5.4 C 40 %
2177 15-03-2019 03:19:17 5.6 C 41 %
2178 15-03-2019 03:31:17 5.5 C 41 %
2179 15-03-2019 03:43:18 5.3 C 42 %
2180 15-03-2019 03:55:17 5.3 C 42 %
2181 15-03-2019 04:07:17 5.2 C 42 %
2182 15-03-2019 04:19:17 5 C 45 %
2183 15-03-2019 04:31:18 5.4 C 46 %
2184 15-03-2019 04:43:18 5.9 C 41 %
2185 15-03-2019 04:55:17 6.5 C 38 %
2186 15-03-2019 05:07:17 6.5 C 37 %
2187 15-03-2019 05:19:18 6.5 C 37 %
2188 15-03-2019 05:31:17 6.5 C 38 %
2189 15-03-2019 05:43:17 6.5 C 38 %
2190 15-03-2019 05:55:17 6.5 C 38 %
2191 15-03-2019 06:07:17 6.4 C 42 %
2192 15-03-2019 06:19:18 6.2 C 46 %
2193 15-03-2019 06:31:17 6 C 48 %
2194 15-03-2019 06:43:17 6 C 51 %
2195 15-03-2019 06:55:17 5.9 C 54 %
2196 15-03-2019 07:07:17 6.1 C 54 %
2197 15-03-2019 07:19:17 6.1 C 53 %
2198 15-03-2019 07:31:17 6.3 C 53 %
2199 15-03-2019 07:43:17 6.4 C 51 %
2200 15-03-2019 07:55:17 6.5 C 50 %
Sensor: Nr:Datum:Temp:Feuchte:
Aussen-T/F 2201 15-03-2019 08:07:17 6.5 C 50 %
2202 15-03-2019 08:19:17 6.6 C 51 %
2203 15-03-2019 08:31:17 6.8 C 52 %
2204 15-03-2019 08:43:17 7 C 50 %
2205 15-03-2019 08:55:17 7.1 C 47 %
2206 15-03-2019 09:07:18 7.1 C 47 %
2207 15-03-2019 09:19:17 7.4 C 48 %
2208 15-03-2019 09:31:17 7.6 C 47 %
2209 15-03-2019 09:43:17 7.9 C 46 %
2210 15-03-2019 09:55:17 8.2 C 45 %
2211 15-03-2019 10:07:17 8.4 C 45 %
2212 15-03-2019 10:19:17 8.7 C 45 %
2213 15-03-2019 10:31:17 9.1 C 44 %
2214 15-03-2019 10:43:17 9.2 C 44 %
2215 15-03-2019 10:55:17 9.6 C 43 %
2216 15-03-2019 11:07:17 10.1 C 41 %
2217 15-03-2019 11:19:17 10.8 C 37 %
2218 15-03-2019 11:31:17 11.3 C 36 %
2219 15-03-2019 11:43:17 11.8 C 35 %
2220 15-03-2019 11:55:17 12 C 33 %
2221 15-03-2019 12:07:17 11.9 C 35 %
2222 15-03-2019 12:19:17 11.8 C 35 %
2223 15-03-2019 12:31:17 12.2 C 35 %
2224 15-03-2019 12:43:17 12.6 C 33 %
2225 15-03-2019 12:55:17 12.5 C 33 %
Sensor: Nr:Datum:Temp:Feuchte:
Aussen-T/F 2226 15-03-2019 13:07:17 12.7 C 32 %
2227 15-03-2019 13:19:17 12.8 C 32 %
2228 15-03-2019 13:31:17 13 C 30 %
2229 15-03-2019 13:43:17 13.1 C 30 %
2230 15-03-2019 13:55:17 13.5 C 28 %
2231 15-03-2019 14:07:18 13.6 C 27 %
2232 15-03-2019 14:19:17 13.5 C 27 %
2233 15-03-2019 14:31:17 13.3 C 27 %
2234 15-03-2019 14:43:17 13.1 C 27 %
2235 15-03-2019 14:55:17 13.2 C 29 %
2236 15-03-2019 15:07:18 13.5 C 29 %
2237 15-03-2019 15:19:17 13.3 C 29 %
2238 15-03-2019 15:31:17 13.2 C 29 %
2239 15-03-2019 15:43:17 13.1 C 30 %
2240 15-03-2019 15:55:18 13.1 C 30 %
2241 15-03-2019 16:07:17 13.1 C 29 %
2242 15-03-2019 16:19:17 13.2 C 28 %
2243 15-03-2019 16:31:18 13.1 C 28 %
2244 15-03-2019 16:43:18 13.1 C 28 %
2245 15-03-2019 16:55:17 12.8 C 30 %
2246 15-03-2019 17:07:17 12.9 C 30 %
2247 15-03-2019 17:19:17 12.7 C 30 %
2248 15-03-2019 17:31:17 12.6 C 31 %
2249 15-03-2019 17:43:17 12.4 C 32 %
2250 15-03-2019 17:55:17 12.4 C 32 %
Sensor: Nr:Datum:Temp:Feuchte:
Aussen-T/F 2251 15-03-2019 18:07:17 12.4 C 32 %
2252 15-03-2019 18:19:17 12.4 C 32 %
2253 15-03-2019 18:31:18 12.3 C 32 %
2254 15-03-2019 18:43:18 12.3 C 32 %
2255 15-03-2019 18:55:17 12.4 C 31 %
2256 15-03-2019 19:07:17 12.4 C 31 %
2257 15-03-2019 19:19:17 12.2 C 32 %
2258 15-03-2019 19:31:17 12.2 C 33 %
2259 15-03-2019 19:43:17 12.1 C 34 %
2260 15-03-2019 19:55:17 11.9 C 36 %
2261 15-03-2019 20:07:17 11.7 C 37 %
2262 15-03-2019 20:19:17 11.2 C 41 %
2263 15-03-2019 20:31:17 11.1 C 43 %
2264 15-03-2019 20:43:17 11.3 C 42 %
2265 15-03-2019 20:55:17 11.4 C 40 %
2266 15-03-2019 21:07:17 11.7 C 37 %
2267 15-03-2019 21:19:17 11.8 C 36 %
2268 15-03-2019 21:31:17 11.9 C 36 %
2269 15-03-2019 21:43:17 12 C 34 %
2270 15-03-2019 21:55:17 12 C 34 %
2271 15-03-2019 22:07:17 12 C 34 %
2272 15-03-2019 22:19:17 12 C 34 %
2273 15-03-2019 22:31:17 11.9 C 35 %
2274 15-03-2019 22:43:17 11.8 C 35 %
2275 15-03-2019 22:55:17 11.4 C 36 %
Sensor: Nr:Datum:Temp:Feuchte:
Aussen-T/F 2276 15-03-2019 23:07:17 10.7 C 42 %
2277 15-03-2019 23:19:17 11.1 C 41 %
2278 15-03-2019 23:31:17 11 C 41 %
2279 15-03-2019 23:43:17 10.8 C 43 %
2280 15-03-2019 23:55:18 10.8 C 43 %
2281 16-03-2019 00:07:17 10.9 C 43 %
2282 16-03-2019 00:19:17 11 C 40 %
2283 16-03-2019 00:31:17 11 C 40 %
2284 16-03-2019 00:43:17 11 C 38 %
2285 16-03-2019 00:55:18 9.6 C 44 %
2286 16-03-2019 01:07:17 9.4 C 47 %
2287 16-03-2019 01:19:17 9.2 C 50 %
2288 16-03-2019 01:31:17 8.8 C 51 %
2289 16-03-2019 01:43:17 8.3 C 49 %
2290 16-03-2019 01:55:17 8.3 C 50 %
2291 16-03-2019 02:07:17 8.4 C 50 %
2292 16-03-2019 02:19:17 8.1 C 48 %
2293 16-03-2019 02:31:18 8.1 C 49 %
2294 16-03-2019 02:43:18 7.9 C 50 %
2295 16-03-2019 02:55:17 7.7 C 50 %
2296 16-03-2019 03:07:17 7.7 C 52 %
2297 16-03-2019 03:19:17 7.6 C 53 %
2298 16-03-2019 03:31:18 7.6 C 53 %
2299 16-03-2019 03:43:18 7.6 C 54 %
2300 16-03-2019 03:55:17 7.6 C 54 %
Sensor: Nr:Datum:Temp:Feuchte:
Aussen-T/F 2301 16-03-2019 04:07:17 7.6 C 54 %
2302 16-03-2019 04:19:17 7.6 C 55 %
2303 16-03-2019 04:31:17 7.7 C 55 %
2304 16-03-2019 04:43:17 7.7 C 55 %
2305 16-03-2019 04:55:17 7.7 C 56 %
2306 16-03-2019 05:07:17 7.7 C 57 %
2307 16-03-2019 05:19:17 7.7 C 59 %
2308 16-03-2019 05:31:17 7.7 C 59 %
2309 16-03-2019 05:43:17 7.7 C 59 %
2310 16-03-2019 05:55:17 7.7 C 60 %
2311 16-03-2019 06:07:17 7.6 C 61 %
2312 16-03-2019 06:19:17 7.6 C 61 %
2313 16-03-2019 06:31:18 7.9 C 63 %
2314 16-03-2019 06:43:18 8.7 C 68 %
2315 16-03-2019 06:55:17 9 C 65 %
2316 16-03-2019 07:07:17 9.2 C 60 %
2317 16-03-2019 07:19:17 9.7 C 42 %
2318 16-03-2019 07:31:17 9.8 C 39 %
2319 16-03-2019 07:43:17 9.9 C 38 %
2320 16-03-2019 07:55:17 9.9 C 38 %
2321 16-03-2019 08:07:17 10 C 38 %
2322 16-03-2019 08:19:17 10.1 C 38 %
2323 16-03-2019 08:31:17 10.1 C 38 %
2324 16-03-2019 08:43:17 10.1 C 39 %
2325 16-03-2019 08:55:17 10.4 C 37 %
Sensor: Nr:Datum:Temp:Feuchte:
Aussen-T/F 2326 16-03-2019 09:07:17 10.2 C 38 %
2327 16-03-2019 09:19:17 10.2 C 38 %
2328 16-03-2019 09:31:17 10.1 C 40 %
2329 16-03-2019 09:43:17 10.4 C 38 %
2330 16-03-2019 09:55:17 10.7 C 36 %
2331 16-03-2019 10:07:18 10.7 C 35 %
2332 16-03-2019 10:19:17 10.4 C 36 %
2333 16-03-2019 10:31:17 10.7 C 35 %
2334 16-03-2019 10:43:17 10.6 C 35 %
2335 16-03-2019 10:55:17 10 C 40 %
2336 16-03-2019 11:07:18 10.1 C 40 %
2337 16-03-2019 11:19:17 10.3 C 37 %
2338 16-03-2019 11:31:17 10.7 C 35 %
2339 16-03-2019 11:43:17 10.8 C 34 %
2340 16-03-2019 11:55:17 10.9 C 32 %
2341 16-03-2019 12:07:17 11.1 C 30 %
2342 16-03-2019 12:19:17 11.4 C 30 %
2343 16-03-2019 12:31:17 11.8 C 28 %
2344 16-03-2019 12:43:17 11.7 C 28 %
2345 16-03-2019 12:55:17 11.2 C 27 %
2346 16-03-2019 13:07:17 11.4 C 27 %
2347 16-03-2019 13:19:17 11.6 C 26 %
2348 16-03-2019 13:31:17 11.7 C 25 %
2349 16-03-2019 13:43:17 11.7 C 26 %
2350 16-03-2019 13:55:17 11.6 C 26 %
Sensor: Nr:Datum:Temp:Feuchte:
Aussen-T/F 2351 16-03-2019 14:07:18 11.6 C 26 %
2352 16-03-2019 14:19:17 10.7 C 28 %
2353 16-03-2019 14:31:17 10.7 C 28 %
2354 16-03-2019 14:43:17 10.6 C 28 %
2355 16-03-2019 14:55:18 10.5 C 26 %
2356 16-03-2019 15:07:17 10.5 C 26 %
2357 16-03-2019 15:19:17 10.6 C 26 %
2358 16-03-2019 15:31:17 10.8 C 25 %
2359 16-03-2019 15:43:17 10.9 C 25 %
2360 16-03-2019 15:55:17 10.7 C 25 %
2361 16-03-2019 16:07:17 10.7 C 25 %
2362 16-03-2019 16:19:18 10.8 C 25 %
2363 16-03-2019 16:31:17 10.8 C 25 %
2364 16-03-2019 16:43:17 10.7 C 25 %
2365 16-03-2019 16:55:17 10.7 C 23 %
2366 16-03-2019 17:07:17 10.6 C 25 %
2367 16-03-2019 17:19:17 10.6 C 23 %
2368 16-03-2019 17:31:17 10.5 C 23 %
2369 16-03-2019 17:43:17 10.5 C 25 %
2370 16-03-2019 17:55:17 10.4 C 21 %
2371 16-03-2019 18:07:18 10.3 C 23 %
2372 16-03-2019 18:19:17 10.3 C 23 %
2373 16-03-2019 18:31:17 10.3 C 22 %
2374 16-03-2019 18:43:17 10.1 C 22 %
2375 16-03-2019 18:55:17 10 C 22 %
Sensor: Nr:Datum:Temp:Feuchte:
Aussen-T/F 2376 16-03-2019 19:07:17 10.1 C 20 %
2377 16-03-2019 19:19:17 10 C 22 %
2378 16-03-2019 19:31:17 10.1 C 21 %
2379 16-03-2019 19:43:17 10 C 22 %
2380 16-03-2019 19:55:17 10 C 22 %
2381 16-03-2019 20:07:18 9.7 C 25 %
2382 16-03-2019 20:19:17 9.7 C 25 %
2383 16-03-2019 20:31:18 9.8 C 23 %
2384 16-03-2019 20:43:18 9.7 C 23 %
2385 16-03-2019 20:55:17 9.3 C 25 %
2386 16-03-2019 21:07:17 9.7 C 25 %
2387 16-03-2019 21:19:17 9.6 C 25 %
2388 16-03-2019 21:31:18 9.8 C 25 %
2389 16-03-2019 21:43:18 9.8 C 25 %
2390 16-03-2019 21:55:17 9.8 C 25 %
2391 16-03-2019 22:07:17 9.3 C 27 %
2392 16-03-2019 22:19:17 9.5 C 27 %
2393 16-03-2019 22:31:18 9.6 C 27 %
2394 16-03-2019 22:43:18 9.8 C 26 %
2395 16-03-2019 22:55:17 9.6 C 27 %
2396 16-03-2019 23:07:17 9.4 C 27 %
2397 16-03-2019 23:19:17 9.5 C 28 %
2398 16-03-2019 23:31:17 9.6 C 26 %
2399 16-03-2019 23:43:17 9.7 C 26 %
2400 16-03-2019 23:55:17 9.6 C 26 %
Sensor: Nr:Datum:Temp:Feuchte:
Aussen-T/F 2401 17-03-2019 00:07:18 9.5 C 26 %
2402 17-03-2019 00:19:17 9.8 C 26 %
2403 17-03-2019 00:31:17 9.8 C 26 %
2404 17-03-2019 00:43:17 10 C 25 %
2405 17-03-2019 00:55:18 9.9 C 25 %
2406 17-03-2019 01:07:17 9.9 C 25 %
2407 17-03-2019 01:19:17 10 C 25 %
2408 17-03-2019 01:31:18 10.1 C 23 %
2409 17-03-2019 01:43:18 10 C 23 %
2410 17-03-2019 01:55:17 9.8 C 25 %
2411 17-03-2019 02:07:17 9.6 C 25 %
2412 17-03-2019 02:19:17 9.7 C 25 %
2413 17-03-2019 02:31:17 9.6 C 25 %
2414 17-03-2019 02:43:18 9.7 C 26 %
2415 17-03-2019 02:55:17 9.7 C 25 %
2416 17-03-2019 03:07:17 9.6 C 25 %
2417 17-03-2019 03:19:17 9.6 C 25 %
2418 17-03-2019 03:31:17 9.6 C 25 %
2419 17-03-2019 03:43:17 9.6 C 25 %
2420 17-03-2019 03:55:17 9.6 C 25 %
2421 17-03-2019 04:07:17 9.5 C 25 %
2422 17-03-2019 04:19:17 9.5 C 25 %
2423 17-03-2019 04:31:17 9.5 C 25 %
2424 17-03-2019 04:43:18 9.5 C 25 %
2425 17-03-2019 04:55:17 9.7 C 23 %
Sensor: Nr:Datum:Temp:Feuchte:
Aussen-T/F 2426 17-03-2019 05:07:17 9.8 C 21 %
2427 17-03-2019 05:19:17 10 C 20 %
2428 17-03-2019 05:31:17 9.9 C 20 %
2429 17-03-2019 05:43:17 9.8 C 20 %
2430 17-03-2019 05:55:17 9.8 C 20 %
2431 17-03-2019 06:07:18 9.7 C 20 %
2432 17-03-2019 06:19:18 9.8 C 20 %
2433 17-03-2019 06:31:17 9.8 C 20 %
2434 17-03-2019 06:43:17 9.8 C 20 %
2435 17-03-2019 06:55:17 9.7 C 20 %
2436 17-03-2019 07:07:17 9.8 C 21 %
2437 17-03-2019 07:19:17 9.8 C 21 %
2438 17-03-2019 07:31:17 9.8 C 21 %
2439 17-03-2019 07:43:17 9.7 C 23 %
2440 17-03-2019 07:55:17 9.9 C 23 %
2441 17-03-2019 08:07:18 10 C 22 %
2442 17-03-2019 08:19:17 9.8 C 25 %
2443 17-03-2019 08:31:17 9.7 C 27 %
2444 17-03-2019 08:43:17 9.7 C 27 %
2445 17-03-2019 08:55:17 9.8 C 26 %
2446 17-03-2019 09:07:18 9.8 C 27 %
2447 17-03-2019 09:19:17 10 C 25 %
2448 17-03-2019 09:31:17 10.1 C 25 %
2449 17-03-2019 09:43:17 10 C 26 %
2450 17-03-2019 09:55:18 9.9 C 27 %
Sensor: Nr:Datum:Temp:Feuchte:
Aussen-T/F 2451 17-03-2019 10:07:17 9.7 C 28 %
2452 17-03-2019 10:19:17 9.5 C 30 %
2453 17-03-2019 10:31:17 9.4 C 30 %
2454 17-03-2019 10:43:18 8.9 C 33 %
2455 17-03-2019 10:55:17 8.4 C 36 %
2456 17-03-2019 11:07:17 7.1 C 36 %
2457 17-03-2019 11:19:17 7 C 35 %
2458 17-03-2019 11:31:18 7.5 C 31 %
2459 17-03-2019 11:43:18 7.7 C 30 %
2460 17-03-2019 11:55:17 8 C 29 %
2461 17-03-2019 12:07:17 8.4 C 27 %
2462 17-03-2019 12:19:18 8.7 C 25 %
2463 17-03-2019 12:31:17 8.9 C 25 %
2464 17-03-2019 12:43:17 8.7 C 21 %
2465 17-03-2019 12:55:17 8.9 C 21 %
2466 17-03-2019 13:07:17 9.6 C 20 %
2467 17-03-2019 13:19:17 10 C 20 %
2468 17-03-2019 13:31:17 10.1 C 20 %
2469 17-03-2019 13:43:17 10.3 C 20 %
2470 17-03-2019 13:55:17 10.1 C 20 %
2471 17-03-2019 14:07:18 10.5 C 20 %
2472 17-03-2019 14:19:17 10 C 20 %
2473 17-03-2019 14:31:17 10.4 C 20 %
2474 17-03-2019 14:43:17 10.6 C 20 %
2475 17-03-2019 14:55:17 10.6 C 20 %
Sensor: Nr:Datum:Temp:Feuchte:
Aussen-T/F 2476 17-03-2019 15:07:18 11 C 20 %
2477 17-03-2019 15:19:17 11.6 C 20 %
2478 17-03-2019 15:31:17 11.2 C 20 %
2479 17-03-2019 15:43:18 10.4 C 20 %
2480 17-03-2019 15:55:17 10.1 C 20 %
2481 17-03-2019 16:07:17 10.6 C 20 %
2482 17-03-2019 16:19:17 10.1 C 20 %
2483 17-03-2019 16:31:17 9.6 C 20 %
2484 17-03-2019 16:43:17 9.5 C 20 %
2485 17-03-2019 16:55:17 8.3 C 20 %
2486 17-03-2019 17:07:17 7.5 C 20 %
2487 17-03-2019 17:19:17 7.8 C 20 %
2488 17-03-2019 17:31:17 7.6 C 20 %
2489 17-03-2019 17:43:17 7.2 C 20 %
2490 17-03-2019 17:55:17 7 C 20 %
2491 17-03-2019 18:07:17 6.8 C 20 %
2492 17-03-2019 18:19:17 6.9 C 20 %
2493 17-03-2019 18:31:17 6.7 C 20 %
2494 17-03-2019 18:43:17 6.1 C 21 %
2495 17-03-2019 18:55:17 6 C 23 %
2496 17-03-2019 19:07:18 5.6 C 26 %
2497 17-03-2019 19:19:17 5.5 C 27 %
2498 17-03-2019 19:31:17 5.1 C 30 %
2499 17-03-2019 19:43:17 5.6 C 27 %
2500 17-03-2019 19:55:18 4.3 C 33 %
Sensor: Nr:Datum:Temp:Feuchte:
Aussen-T/F 2501 17-03-2019 20:07:17 3.7 C 43 %
2502 17-03-2019 20:19:17 3.7 C 45 %
2503 17-03-2019 20:31:17 3.6 C 44 %
2504 17-03-2019 20:43:18 3.2 C 47 %
2505 17-03-2019 20:55:17 3.2 C 48 %
2506 17-03-2019 21:07:17 3.2 C 48 %
2507 17-03-2019 21:19:18 3.3 C 48 %
2508 17-03-2019 21:31:17 3.3 C 46 %
2509 17-03-2019 21:43:17 3.1 C 46 %
2510 17-03-2019 21:55:17 3.1 C 46 %
2511 17-03-2019 22:07:17 3.4 C 42 %
2512 17-03-2019 22:19:17 3.4 C 40 %
2513 17-03-2019 22:31:17 3.4 C 40 %
2514 17-03-2019 22:43:17 3.6 C 37 %
2515 17-03-2019 22:55:17 3.5 C 36 %
2516 17-03-2019 23:07:18 3.5 C 37 %
2517 17-03-2019 23:19:17 3.6 C 36 %
2518 17-03-2019 23:31:17 3.5 C 36 %
2519 17-03-2019 23:43:18 3 C 39 %
2520 17-03-2019 23:55:17 2.8 C 42 %
2521 18-03-2019 00:07:17 2.2 C 44 %
2522 18-03-2019 00:19:17 2 C 46 %
2523 18-03-2019 00:31:17 1.8 C 50 %
2524 18-03-2019 00:43:17 2.2 C 50 %
2525 18-03-2019 00:55:17 2.1 C 47 %
Sensor: Nr:Datum:Temp:Feuchte:
Aussen-T/F 2526 18-03-2019 01:07:17 1.8 C 50 %
2527 18-03-2019 01:19:17 2.1 C 48 %
2528 18-03-2019 01:31:17 1.8 C 47 %
2529 18-03-2019 01:43:17 1.4 C 50 %
2530 18-03-2019 01:55:17 2.2 C 50 %
2531 18-03-2019 02:07:17 2.3 C 47 %
2532 18-03-2019 02:19:17 2.4 C 45 %
2533 18-03-2019 02:31:17 3 C 42 %
2534 18-03-2019 02:43:17 3.4 C 37 %
2535 18-03-2019 02:55:17 3.4 C 35 %
2536 18-03-2019 03:07:17 3.2 C 36 %
2537 18-03-2019 03:19:17 3.2 C 37 %
2538 18-03-2019 03:31:17 2.6 C 41 %
2539 18-03-2019 03:43:17 2.7 C 42 %
2540 18-03-2019 03:55:17 2.8 C 41 %
2541 18-03-2019 04:07:17 2.9 C 41 %
2542 18-03-2019 04:19:17 2.6 C 41 %
2543 18-03-2019 04:31:17 2.6 C 43 %
2544 18-03-2019 04:43:17 2.5 C 42 %
2545 18-03-2019 04:55:17 2.3 C 42 %
2546 18-03-2019 05:07:17 2.4 C 44 %
2547 18-03-2019 05:19:17 2.6 C 42 %
2548 18-03-2019 05:31:17 2.6 C 40 %
2549 18-03-2019 05:43:17 2.8 C 40 %
2550 18-03-2019 05:55:17 3.2 C 36 %
Sensor: Nr:Datum:Temp:Feuchte:
Aussen-T/F 2551 18-03-2019 06:07:17 3.1 C 35 %
2552 18-03-2019 06:19:17 3.6 C 34 %
2553 18-03-2019 06:31:18 3.6 C 34 %
2554 18-03-2019 06:43:18 3.4 C 34 %
2555 18-03-2019 06:55:17 3.3 C 35 %
2556 18-03-2019 07:07:17 3.1 C 37 %
2557 18-03-2019 07:19:18 3.6 C 36 %
2558 18-03-2019 07:31:17 3.8 C 35 %
2559 18-03-2019 07:43:17 3.8 C 35 %
2560 18-03-2019 07:55:17 4.3 C 31 %
2561 18-03-2019 08:07:17 4.2 C 32 %
2562 18-03-2019 08:19:17 4.3 C 32 %
2563 18-03-2019 08:31:17 4.4 C 33 %
2564 18-03-2019 08:43:17 4.7 C 32 %
2565 18-03-2019 08:55:17 4.3 C 37 %
2566 18-03-2019 09:07:18 4.1 C 40 %
2567 18-03-2019 09:19:17 4.1 C 43 %
2568 18-03-2019 09:31:17 4.3 C 44 %
2569 18-03-2019 09:43:17 4.1 C 43 %
2570 18-03-2019 09:55:18 4.4 C 44 %
2571 18-03-2019 10:07:17 5.8 C 34 %
2572 18-03-2019 10:19:17 6.2 C 31 %
2573 18-03-2019 10:31:18 6 C 30 %
2574 18-03-2019 10:43:18 7 C 27 %
2575 18-03-2019 10:55:17 6.7 C 26 %
Sensor: Nr:Datum:Temp:Feuchte:
Aussen-T/F 2576 18-03-2019 11:07:17 7.1 C 27 %
2577 18-03-2019 11:19:18 8.6 C 25 %
2578 18-03-2019 11:31:17 7.5 C 20 %
2579 18-03-2019 11:43:17 8.9 C 20 %
2580 18-03-2019 11:55:17 8.8 C 20 %
2581 18-03-2019 12:07:17 8.1 C 20 %
2582 18-03-2019 12:19:17 9.1 C 20 %
2583 18-03-2019 12:31:17 8.6 C 20 %
2584 18-03-2019 12:43:17 6.4 C 20 %
2585 18-03-2019 12:55:17 5.5 C 31 %
2586 18-03-2019 13:07:17 5.6 C 34 %
2587 18-03-2019 13:19:17 6.2 C 32 %
2588 18-03-2019 13:31:18 7 C 33 %
2589 18-03-2019 13:43:18 7.5 C 28 %
2590 18-03-2019 13:55:17 7.3 C 26 %
2591 18-03-2019 14:07:17 8.2 C 25 %
2592 18-03-2019 14:19:18 7.7 C 20 %
2593 18-03-2019 14:31:17 7.8 C 20 %
2594 18-03-2019 14:43:17 8.2 C 20 %
2595 18-03-2019 14:55:17 7.8 C 20 %
2596 18-03-2019 15:07:18 5.2 C 38 %
2597 18-03-2019 15:19:17 5.9 C 41 %
2598 18-03-2019 15:31:17 6.4 C 37 %
2599 18-03-2019 15:43:17 6.6 C 35 %
2600 18-03-2019 15:55:17 7.1 C 34 %
Sensor: Nr:Datum:Temp:Feuchte:
Aussen-T/F 2601 18-03-2019 16:07:17 6.1 C 40 %
2602 18-03-2019 16:19:17 5.8 C 43 %
2603 18-03-2019 16:31:17 5.9 C 44 %
2604 18-03-2019 16:43:17 6.4 C 32 %
2605 18-03-2019 16:55:17 6.8 C 29 %
2606 18-03-2019 17:07:18 8.4 C 21 %
2607 18-03-2019 17:19:17 7.9 C 20 %
2608 18-03-2019 17:31:18 7.3 C 20 %
2609 18-03-2019 17:43:18 6.8 C 20 %
2610 18-03-2019 17:55:17 6.7 C 20 %
2611 18-03-2019 18:07:17 6.4 C 20 %
2612 18-03-2019 18:19:17 6.7 C 20 %
2613 18-03-2019 18:31:29 6.5 C 25 %
2614 18-03-2019 18:43:29 6 C 31 %
2615 18-03-2019 18:55:17 5 C 35 %
2616 18-03-2019 19:07:17 4.5 C 36 %
2617 18-03-2019 19:19:17 4.5 C 38 %
2618 18-03-2019 19:31:17 4.4 C 38 %
2619 18-03-2019 19:43:17 4.3 C 38 %
2620 18-03-2019 19:55:18 3.8 C 40 %
2621 18-03-2019 20:07:17 3.6 C 37 %
2622 18-03-2019 20:19:17 3.4 C 37 %
2623 18-03-2019 20:31:18 3.3 C 37 %
2624 18-03-2019 20:43:18 2.9 C 40 %
2625 18-03-2019 20:55:17 2.6 C 40 %
Sensor: Nr:Datum:Temp:Feuchte:
Aussen-T/F 2626 18-03-2019 21:07:17 2.3 C 41 %
2627 18-03-2019 21:19:17 2.2 C 43 %
2628 18-03-2019 21:31:17 1.8 C 46 %
2629 18-03-2019 21:43:17 1.6 C 48 %
2630 18-03-2019 21:55:18 1.3 C 49 %
2631 18-03-2019 22:07:17 1 C 50 %
2632 18-03-2019 22:19:18 0.7 C 52 %
2633 18-03-2019 22:31:17 0.5 C 52 %
2634 18-03-2019 22:43:17 0.6 C 53 %
2635 18-03-2019 22:55:17 0.5 C 54 %
2636 18-03-2019 23:07:18 0.4 C 55 %
2637 18-03-2019 23:19:17 0.6 C 55 %
2638 18-03-2019 23:31:17 0.5 C 55 %
2639 18-03-2019 23:43:17 0.2 C 54 %
2640 18-03-2019 23:55:18 0.1 C 55 %
2641 19-03-2019 00:07:17 0 C 55 %
2642 19-03-2019 00:19:17 0 C 55 %
2643 19-03-2019 00:31:18 -0.3 C 55 %
2644 19-03-2019 00:43:18 -0.7 C 54 %
2645 19-03-2019 00:55:17 -0.9 C 55 %
2646 19-03-2019 01:07:17 -0.9 C 55 %
2647 19-03-2019 01:19:18 -1 C 55 %
2648 19-03-2019 01:31:17 -0.9 C 56 %
2649 19-03-2019 01:43:17 -1 C 56 %
2650 19-03-2019 01:55:17 -1.2 C 56 %
Sensor: Nr:Datum:Temp:Feuchte:
Aussen-T/F 2651 19-03-2019 02:07:18 -1.3 C 56 %
2652 19-03-2019 02:19:17 -1.2 C 56 %
2653 19-03-2019 02:31:17 -1.2 C 56 %
2654 19-03-2019 02:43:17 -1.4 C 56 %
2655 19-03-2019 02:55:18 -1.1 C 56 %
2656 19-03-2019 03:07:17 -1.4 C 56 %
2657 19-03-2019 03:19:17 -1.6 C 56 %
2658 19-03-2019 03:31:17 -1.8 C 56 %
2659 19-03-2019 03:43:17 -1.7 C 56 %
2660 19-03-2019 03:55:17 -1.8 C 56 %
2661 19-03-2019 04:07:18 -1.9 C 56 %
2662 19-03-2019 04:19:17 -2 C 56 %
2663 19-03-2019 04:31:17 -1.9 C 56 %
2664 19-03-2019 04:43:17 -2 C 56 %
2665 19-03-2019 04:55:17 -2.1 C 56 %
2666 19-03-2019 05:07:18 -2.3 C 56 %
2667 19-03-2019 05:19:17 -2.3 C 56 %
2668 19-03-2019 05:31:17 -2.4 C 56 %
2669 19-03-2019 05:43:17 -2 C 58 %
2670 19-03-2019 05:55:17 -2.3 C 57 %
2671 19-03-2019 06:07:17 -2.4 C 57 %
2672 19-03-2019 06:19:17 -2.5 C 57 %
2673 19-03-2019 06:31:17 -2.1 C 60 %
2674 19-03-2019 06:43:17 -2.3 C 59 %
2675 19-03-2019 06:55:18 -1.8 C 62 %
Sensor: Nr:Datum:Temp:Feuchte:
Aussen-T/F 2676 19-03-2019 07:07:18 -1.3 C 66 %
2677 19-03-2019 07:19:17 -0.9 C 68 %
2678 19-03-2019 07:31:18 -0.6 C 68 %
2679 19-03-2019 07:43:18 -0.5 C 67 %
2680 19-03-2019 07:55:17 -0.5 C 62 %
2681 19-03-2019 08:07:17 -0.7 C 56 %
2682 19-03-2019 08:19:17 -1 C 55 %
2683 19-03-2019 08:31:17 -1 C 54 %
2684 19-03-2019 08:43:17 -0.7 C 55 %
2685 19-03-2019 08:55:18 -0.3 C 55 %
2686 19-03-2019 09:07:17 0 C 55 %
2687 19-03-2019 09:19:17 0.1 C 54 %
2688 19-03-2019 09:31:17 0.2 C 53 %
2689 19-03-2019 09:43:17 0.4 C 53 %
2690 19-03-2019 09:55:17 0.7 C 53 %
2691 19-03-2019 10:07:17 1.9 C 50 %
2692 19-03-2019 10:19:17 1.9 C 50 %
2693 19-03-2019 10:31:18 4 C 42 %
2694 19-03-2019 10:43:18 3.2 C 36 %
2695 19-03-2019 10:55:17 5.6 C 38 %
2696 19-03-2019 11:07:17 5.7 C 37 %
2697 19-03-2019 11:19:18 5 C 36 %
2698 19-03-2019 11:31:17 6.9 C 26 %
2699 19-03-2019 11:43:17 7.6 C 20 %
2700 19-03-2019 11:55:17 6.6 C 20 %
Sensor: Nr:Datum:Temp:Feuchte:
Aussen-T/F 2701 19-03-2019 12:07:18 6.7 C 20 %
2702 19-03-2019 12:19:17 6.6 C 20 %
2703 19-03-2019 12:31:17 7 C 20 %
2704 19-03-2019 12:43:18 6.9 C 20 %
2705 19-03-2019 12:55:17 7.5 C 20 %
2706 19-03-2019 13:07:17 7.8 C 20 %
2707 19-03-2019 13:19:17 8.2 C 20 %
2708 19-03-2019 13:31:17 8.2 C 20 %
2709 19-03-2019 13:43:17 8.3 C 20 %
2710 19-03-2019 13:55:17 8.4 C 20 %
2711 19-03-2019 14:07:18 8.6 C 20 %
2712 19-03-2019 14:19:17 8.9 C 20 %
2713 19-03-2019 14:31:17 9.1 C 20 %
2714 19-03-2019 14:43:17 9.3 C 20 %
2715 19-03-2019 14:55:18 9.7 C 20 %
2716 19-03-2019 15:07:17 9.9 C 20 %
2717 19-03-2019 15:19:17 10 C 20 %
2718 19-03-2019 15:31:18 10.2 C 20 %
2719 19-03-2019 15:43:18 10.4 C 20 %
2720 19-03-2019 15:55:17 10.9 C 20 %
2721 19-03-2019 16:07:17 11.5 C 20 %
2722 19-03-2019 16:19:18 11.7 C 20 %
2723 19-03-2019 16:31:17 11.9 C 20 %
2724 19-03-2019 16:43:17 11.7 C 20 %
2725 19-03-2019 16:55:17 11.5 C 20 %
Sensor: Nr:Datum:Temp:Feuchte:
Aussen-T/F 2726 19-03-2019 17:07:18 11.5 C 20 %
2727 19-03-2019 17:19:17 12.4 C 20 %
2728 19-03-2019 17:31:17 12.2 C 20 %
2729 19-03-2019 17:43:17 13.7 C 20 %
2730 19-03-2019 17:55:17 14.1 C 20 %
2731 19-03-2019 18:07:18 13.2 C 20 %
2732 19-03-2019 18:19:17 10.2 C 20 %
2733 19-03-2019 18:31:18 7.5 C 20 %
2734 19-03-2019 18:43:18 6 C 20 %
2735 19-03-2019 18:55:17 5.7 C 20 %
2736 19-03-2019 19:07:17 5.2 C 20 %
2737 19-03-2019 19:19:17 4.8 C 23 %
2738 19-03-2019 19:31:17 4.8 C 26 %
2739 19-03-2019 19:43:17 4.2 C 27 %
2740 19-03-2019 19:55:17 4.1 C 27 %
2741 19-03-2019 20:07:17 3.5 C 30 %
2742 19-03-2019 20:19:17 3.3 C 32 %
2743 19-03-2019 20:31:17 2.8 C 34 %
2744 19-03-2019 20:43:17 2.5 C 35 %
2745 19-03-2019 20:55:17 2.1 C 38 %
2746 19-03-2019 21:07:17 1.8 C 40 %
2747 19-03-2019 21:19:17 1.7 C 40 %
2748 19-03-2019 21:31:17 1.3 C 40 %
2749 19-03-2019 21:43:17 1.1 C 41 %
2750 19-03-2019 21:55:17 0.8 C 42 %
Sensor: Nr:Datum:Temp:Feuchte:
Aussen-T/F 2751 19-03-2019 22:07:18 0.8 C 43 %
2752 19-03-2019 22:19:17 0.6 C 43 %
2753 19-03-2019 22:31:17 0.4 C 44 %
2754 19-03-2019 22:43:17 0.6 C 45 %
2755 19-03-2019 22:55:17 0.4 C 45 %
2756 19-03-2019 23:07:17 0.3 C 46 %
2757 19-03-2019 23:19:17 0.4 C 46 %
2758 19-03-2019 23:31:17 0.3 C 45 %
2759 19-03-2019 23:43:17 0.3 C 45 %
2760 19-03-2019 23:55:17 -0.3 C 47 %
2761 20-03-2019 00:07:18 -0.3 C 48 %
2762 20-03-2019 00:19:17 -0.6 C 47 %
2763 20-03-2019 00:31:17 -0.7 C 49 %
2764 20-03-2019 00:43:17 -0.9 C 50 %
2765 20-03-2019 00:55:17 -1 C 50 %
2766 20-03-2019 01:07:18 -1 C 51 %
2767 20-03-2019 01:19:17 -1 C 51 %
2768 20-03-2019 01:31:18 -0.9 C 52 %
2769 20-03-2019 01:43:18 -1 C 52 %
2770 20-03-2019 01:55:17 -1.2 C 52 %
2771 20-03-2019 02:07:17 -1.4 C 52 %
2772 20-03-2019 02:20:17 -1.2 C 53 %
2773 20-03-2019 02:31:17 -1.4 C 52 %
2774 20-03-2019 02:43:17 -1.5 C 53 %
2775 20-03-2019 02:55:18 -1.6 C 53 %
Sensor: Nr:Datum:Temp:Feuchte:
Aussen-T/F 2776 20-03-2019 03:07:17 -1.6 C 53 %
2777 20-03-2019 03:19:17 -1.8 C 53 %
2778 20-03-2019 03:31:18 -1.9 C 53 %
2779 20-03-2019 03:43:18 -2 C 53 %
2780 20-03-2019 03:56:17 -2 C 53 %
2781 20-03-2019 04:08:17 -2 C 54 %
2782 20-03-2019 04:20:18 -2.1 C 54 %
2783 20-03-2019 04:32:17 -2.2 C 54 %
2784 20-03-2019 04:44:17 -2.1 C 54 %
2785 20-03-2019 04:56:17 -2.1 C 55 %
2786 20-03-2019 05:08:17 -2.2 C 55 %
2787 20-03-2019 05:20:17 -2.3 C 54 %
2788 20-03-2019 05:32:17 -2.3 C 55 %
2789 20-03-2019 05:44:17 -2.3 C 55 %
2790 20-03-2019 05:56:17 -2.4 C 55 %
2791 20-03-2019 06:08:17 -2.4 C 55 %
2792 20-03-2019 06:20:17 -2.3 C 55 %
2793 20-03-2019 06:32:18 -2.3 C 55 %
2794 20-03-2019 06:44:18 -2.4 C 55 %
2795 20-03-2019 06:56:17 -2.4 C 55 %
2796 20-03-2019 07:08:17 -2.4 C 55 %
2797 20-03-2019 07:20:17 -2.3 C 55 %
2798 20-03-2019 07:32:17 -2.1 C 55 %
2799 20-03-2019 07:44:17 -2.1 C 55 %
2800 20-03-2019 07:56:17 -1.9 C 55 %
Sensor: Nr:Datum:Temp:Feuchte:
Aussen-T/F 2801 20-03-2019 08:08:17 -1.8 C 55 %
2802 20-03-2019 08:20:17 -1.6 C 55 %
2803 20-03-2019 08:32:17 -1.4 C 55 %
2804 20-03-2019 08:44:17 -1.1 C 56 %
2805 20-03-2019 08:56:17 -0.8 C 55 %
2806 20-03-2019 09:08:17 -0.4 C 55 %
2807 20-03-2019 09:20:17 -0.2 C 55 %
2808 20-03-2019 09:32:17 0.2 C 54 %
2809 20-03-2019 09:44:17 0.6 C 54 %
2810 20-03-2019 09:56:16 1.8 C 51 %
2811 20-03-2019 10:08:17 1.8 C 51 %
2812 20-03-2019 10:20:17 5.3 C 45 %
2813 20-03-2019 10:32:17 7 C 41 %
2814 20-03-2019 10:44:17 7.8 C 20 %
2815 20-03-2019 10:56:17 9.1 C 20 %
2816 20-03-2019 11:08:17 9.2 C 20 %
2817 20-03-2019 11:20:17 10.8 C 20 %
2818 20-03-2019 11:32:16 12.1 C 20 %
2819 20-03-2019 11:44:16 11.4 C 20 %
2820 20-03-2019 11:56:17 11.1 C 20 %
2821 20-03-2019 12:08:17 11.1 C 20 %
2822 20-03-2019 12:20:16 11.3 C 20 %
2823 20-03-2019 12:32:17 11.7 C 20 %
2824 20-03-2019 12:44:17 11.8 C 20 %
2825 20-03-2019 12:56:17 11.9 C 20 %
Sensor: Nr:Datum:Temp:Feuchte:
Aussen-T/F 2826 20-03-2019 13:08:17 12.5 C 20 %
2827 20-03-2019 13:20:16 12.8 C 20 %
2828 20-03-2019 13:32:17 12.8 C 20 %
2829 20-03-2019 13:44:17 13 C 20 %
2830 20-03-2019 13:56:17 13.2 C 20 %
2831 20-03-2019 14:08:17 12.9 C 20 %
2832 20-03-2019 14:20:16 13 C 20 %
2833 20-03-2019 14:32:17 13.2 C 20 %
2834 20-03-2019 14:44:17 13 C 20 %
2835 20-03-2019 14:56:17 13.5 C 20 %
2836 20-03-2019 15:08:16 13.7 C 20 %
2837 20-03-2019 15:20:16 13.7 C 20 %
2838 20-03-2019 15:32:17 13.6 C 20 %
2839 20-03-2019 15:44:18 14.2 C 20 %
2840 20-03-2019 15:56:16 13.9 C 20 %
2841 20-03-2019 16:08:16 13.9 C 20 %
2842 20-03-2019 16:20:17 14.1 C 20 %
2843 20-03-2019 16:32:16 14.2 C 20 %
2844 20-03-2019 16:44:16 14.4 C 20 %
2845 20-03-2019 16:56:16 14.7 C 20 %
2846 20-03-2019 17:08:17 15 C 20 %
2847 20-03-2019 17:20:16 14.8 C 20 %
2848 20-03-2019 17:32:17 16 C 20 %
2849 20-03-2019 17:44:17 16.4 C 20 %
2850 20-03-2019 17:56:17 16.2 C 20 %
Sensor: Nr:Datum:Temp:Feuchte:
Aussen-T/F 2851 20-03-2019 18:08:16 12.9 C 20 %
2852 20-03-2019 18:20:17 10.8 C 20 %
2853 20-03-2019 18:32:17 9.7 C 20 %
2854 20-03-2019 18:44:17 8.9 C 20 %
2855 20-03-2019 18:56:16 8.3 C 20 %
2856 20-03-2019 19:08:17 7.9 C 20 %
2857 20-03-2019 19:20:16 7.4 C 20 %
2858 20-03-2019 19:32:16 7.2 C 20 %
2859 20-03-2019 19:44:16 6.7 C 23 %
2860 20-03-2019 19:56:16 6.2 C 25 %
2861 20-03-2019 20:08:16 5.6 C 28 %
2862 20-03-2019 20:20:16 5.2 C 29 %
2863 20-03-2019 20:32:16 5 C 30 %
2864 20-03-2019 20:44:16 4.8 C 32 %
2865 20-03-2019 20:56:16 4.6 C 33 %
2866 20-03-2019 21:08:17 4.2 C 35 %
2867 20-03-2019 21:20:16 4.1 C 35 %
2868 20-03-2019 21:32:16 4 C 34 %
2869 20-03-2019 21:44:16 4 C 34 %
2870 20-03-2019 21:56:16 4 C 34 %
2871 20-03-2019 22:08:16 3.5 C 38 %
2872 20-03-2019 22:20:16 3.8 C 39 %
2873 20-03-2019 22:32:16 3.5 C 38 %
2874 20-03-2019 22:44:16 3.1 C 39 %
2875 20-03-2019 22:56:16 2.6 C 40 %
Sensor: Nr:Datum:Temp:Feuchte:
Aussen-T/F 2876 20-03-2019 23:08:16 2.5 C 42 %
2877 20-03-2019 23:20:16 2.5 C 43 %
2878 20-03-2019 23:32:17 2.5 C 44 %
2879 20-03-2019 23:44:17 2.3 C 44 %
2880 20-03-2019 23:56:16 2.1 C 45 %
2881 21-03-2019 00:08:16 2.1 C 45 %
2882 21-03-2019 00:20:16 1.8 C 46 %
2883 21-03-2019 00:32:16 1.8 C 47 %
2884 21-03-2019 00:44:16 1.9 C 48 %
2885 21-03-2019 00:56:16 1.9 C 47 %
2886 21-03-2019 01:08:16 1.3 C 46 %
2887 21-03-2019 01:20:16 1.1 C 47 %
2888 21-03-2019 01:32:16 1.1 C 48 %
2889 21-03-2019 01:44:16 0.8 C 50 %
2890 21-03-2019 01:56:16 0.6 C 51 %
2891 21-03-2019 02:08:16 0.5 C 51 %
2892 21-03-2019 02:20:16 0.4 C 52 %
2893 21-03-2019 02:32:16 0.4 C 52 %
2894 21-03-2019 02:44:16 0.3 C 53 %
2895 21-03-2019 02:56:17 0.1 C 53 %
2896 21-03-2019 03:08:17 0 C 53 %
2897 21-03-2019 03:20:17 -0.2 C 53 %
2898 21-03-2019 03:32:17 -0.2 C 54 %
2899 21-03-2019 03:44:17 -0.3 C 54 %
2900 21-03-2019 03:56:17 -0.4 C 54 %
Sensor: Nr:Datum:Temp:Feuchte:
Aussen-T/F 2901 21-03-2019 04:08:18 -0.3 C 55 %
2902 21-03-2019 04:20:17 -0.4 C 55 %
2903 21-03-2019 04:32:17 -0.2 C 55 %
2904 21-03-2019 04:44:18 -0.4 C 55 %
2905 21-03-2019 04:56:17 -0.5 C 55 %
2906 21-03-2019 05:08:17 -0.7 C 55 %
2907 21-03-2019 05:20:17 -0.5 C 56 %
2908 21-03-2019 05:32:17 -0.6 C 55 %
2909 21-03-2019 05:44:17 -0.9 C 55 %
2910 21-03-2019 05:56:17 -0.9 C 55 %
2911 21-03-2019 06:08:17 -1 C 55 %
2912 21-03-2019 06:20:17 -0.9 C 56 %
2913 21-03-2019 06:32:17 -0.9 C 56 %
2914 21-03-2019 06:44:18 -1 C 56 %
2915 21-03-2019 06:56:17 -0.8 C 56 %
2916 21-03-2019 07:08:17 -0.7 C 56 %
2917 21-03-2019 07:20:17 -0.5 C 56 %
2918 21-03-2019 07:32:17 0.2 C 57 %
2919 21-03-2019 07:44:17 0.1 C 56 %
2920 21-03-2019 07:56:17 0.2 C 56 %
2921 21-03-2019 08:08:17 0.3 C 55 %
2922 21-03-2019 08:20:17 0.5 C 55 %
2923 21-03-2019 08:32:17 0.5 C 55 %
2924 21-03-2019 08:44:17 0.8 C 55 %
2925 21-03-2019 08:56:17 1.1 C 55 %
Sensor: Nr:Datum:Temp:Feuchte:
Aussen-T/F 2926 21-03-2019 09:08:17 1.4 C 55 %
2927 21-03-2019 09:20:17 1.6 C 54 %
2928 21-03-2019 09:32:17 1.8 C 54 %
2929 21-03-2019 09:44:17 2.5 C 54 %
2930 21-03-2019 09:56:17 3.7 C 51 %
2931 21-03-2019 10:08:17 4.5 C 45 %
2932 21-03-2019 10:20:17 5.4 C 41 %
2933 21-03-2019 10:32:17 8.2 C 28 %
2934 21-03-2019 10:44:18 8.3 C 27 %
2935 21-03-2019 10:56:17 10.4 C 21 %
2936 21-03-2019 11:08:17 9.9 C 20 %
2937 21-03-2019 11:20:17 10.6 C 21 %
2938 21-03-2019 11:32:17 12.9 C 20 %
2939 21-03-2019 11:44:17 12.1 C 20 %
2940 21-03-2019 11:56:17 11.4 C 20 %
2941 21-03-2019 12:08:17 11.8 C 20 %
2942 21-03-2019 12:20:17 12.2 C 20 %
2943 21-03-2019 12:32:17 12.8 C 20 %
2944 21-03-2019 12:44:17 13 C 20 %
2945 21-03-2019 12:56:17 13.4 C 20 %
2946 21-03-2019 13:08:17 14 C 20 %
2947 21-03-2019 13:20:17 14.3 C 20 %
2948 21-03-2019 13:32:17 14.6 C 20 %
2949 21-03-2019 13:44:17 14.7 C 20 %
2950 21-03-2019 13:56:17 14.7 C 20 %
Sensor: Nr:Datum:Temp:Feuchte:
Aussen-T/F 2951 21-03-2019 14:08:18 14.8 C 20 %
2952 21-03-2019 14:20:17 15.1 C 20 %
2953 21-03-2019 14:32:17 15.2 C 20 %
2954 21-03-2019 14:44:17 15.6 C 20 %
2955 21-03-2019 14:56:17 15.9 C 20 %
2956 21-03-2019 15:08:17 16.1 C 20 %
2957 21-03-2019 15:20:17 16.6 C 20 %
2958 21-03-2019 15:32:17 16.8 C 20 %
2959 21-03-2019 15:44:17 17 C 20 %
2960 21-03-2019 15:56:17 17.4 C 20 %
2961 21-03-2019 16:08:17 17.8 C 20 %
2962 21-03-2019 16:20:17 17.7 C 20 %
2963 21-03-2019 16:32:17 17.8 C 20 %
2964 21-03-2019 16:44:17 18.2 C 20 %
2965 21-03-2019 16:56:17 18.2 C 20 %
2966 21-03-2019 17:08:17 18.2 C 20 %
2967 21-03-2019 17:20:17 18.3 C 20 %
2968 21-03-2019 17:32:18 18.5 C 20 %
2969 21-03-2019 17:44:18 19.2 C 20 %
2970 21-03-2019 17:56:18 19.5 C 20 %
2971 21-03-2019 18:08:17 16.4 C 20 %
2972 21-03-2019 18:20:17 13.9 C 20 %
2973 21-03-2019 18:32:17 12.5 C 20 %
2974 21-03-2019 18:44:17 11.6 C 20 %
2975 21-03-2019 18:56:17 11.1 C 20 %
Sensor: Nr:Datum:Temp:Feuchte:
Aussen-T/F 2976 21-03-2019 19:08:18 10.5 C 20 %
2977 21-03-2019 19:20:17 9.9 C 20 %
2978 21-03-2019 19:32:17 9.3 C 20 %
2979 21-03-2019 19:44:17 9 C 20 %
2980 21-03-2019 19:56:17 8.7 C 20 %
2981 21-03-2019 20:08:17 8.1 C 20 %
2982 21-03-2019 20:20:17 7.7 C 20 %
2983 21-03-2019 20:32:18 7.4 C 21 %
2984 21-03-2019 20:44:18 7.2 C 23 %
2985 21-03-2019 20:56:17 6.8 C 25 %
2986 21-03-2019 21:08:17 6.4 C 26 %
2987 21-03-2019 21:20:17 6.2 C 25 %
2988 21-03-2019 21:32:18 5.9 C 25 %
2989 21-03-2019 21:44:18 5.4 C 26 %
2990 21-03-2019 21:56:17 5.2 C 28 %
2991 21-03-2019 22:08:17 5.3 C 28 %
2992 21-03-2019 22:20:17 4.8 C 28 %
2993 21-03-2019 22:32:17 4.5 C 30 %
2994 21-03-2019 22:44:17 4.3 C 31 %
2995 21-03-2019 22:56:18 4.1 C 32 %
2996 21-03-2019 23:08:17 3.9 C 35 %
2997 21-03-2019 23:20:17 3.8 C 34 %
2998 21-03-2019 23:32:17 3.5 C 35 %
2999 21-03-2019 23:44:17 3.4 C 37 %
3000 21-03-2019 23:56:17 3.2 C 36 %
Sensor: Nr:Datum:Temp:Feuchte:
Aussen-T/F 3001 22-03-2019 00:08:17 3.2 C 36 %
3002 22-03-2019 00:20:17 2.8 C 38 %
3003 22-03-2019 00:32:17 2.7 C 40 %
3004 22-03-2019 00:44:17 2.6 C 41 %
3005 22-03-2019 00:56:17 2.5 C 41 %
3006 22-03-2019 01:08:17 2.4 C 42 %
3007 22-03-2019 01:20:17 2.3 C 42 %
3008 22-03-2019 01:32:17 2.1 C 43 %
3009 22-03-2019 01:44:17 2 C 44 %
3010 22-03-2019 01:56:17 1.9 C 45 %
3011 22-03-2019 02:08:17 1.7 C 45 %
3012 22-03-2019 02:20:17 1.6 C 46 %
3013 22-03-2019 02:32:17 1.3 C 46 %
3014 22-03-2019 02:44:17 1.3 C 47 %
3015 22-03-2019 02:56:17 1.2 C 48 %
3016 22-03-2019 03:08:17 1 C 49 %
3017 22-03-2019 03:20:17 0.9 C 51 %
3018 22-03-2019 03:32:18 1.1 C 50 %
3019 22-03-2019 03:44:18 0.7 C 51 %
3020 22-03-2019 03:56:18 0.7 C 51 %
3021 22-03-2019 04:08:17 0.7 C 52 %
3022 22-03-2019 04:20:17 0.5 C 52 %
3023 22-03-2019 04:32:17 0.5 C 53 %
3024 22-03-2019 04:44:17 0.3 C 53 %
3025 22-03-2019 04:56:18 0.3 C 54 %
Sensor: Nr:Datum:Temp:Feuchte:
Aussen-T/F 3026 22-03-2019 05:08:18 0.2 C 54 %
3027 22-03-2019 05:20:17 0.2 C 54 %
3028 22-03-2019 05:32:17 0.1 C 54 %
3029 22-03-2019 05:44:17 0 C 54 %
3030 22-03-2019 05:56:17 0.1 C 55 %
3031 22-03-2019 06:08:18 0 C 55 %
3032 22-03-2019 06:20:17 -0.3 C 55 %
3033 22-03-2019 06:32:17 -0.3 C 55 %
3034 22-03-2019 06:44:17 -0.4 C 55 %
3035 22-03-2019 06:56:17 -0.2 C 56 %
3036 22-03-2019 07:08:17 0 C 56 %
3037 22-03-2019 07:20:17 0.2 C 56 %
3038 22-03-2019 07:32:17 0.2 C 56 %
3039 22-03-2019 07:44:17 0.4 C 56 %
3040 22-03-2019 07:56:17 0.5 C 56 %
3041 22-03-2019 08:08:17 0.9 C 56 %
3042 22-03-2019 08:20:18 1.1 C 55 %
3043 22-03-2019 08:32:18 1.2 C 55 %
3044 22-03-2019 08:44:18 1.4 C 56 %
3045 22-03-2019 08:56:17 1.9 C 56 %
3046 22-03-2019 09:08:17 2 C 55 %
3047 22-03-2019 09:20:17 2.5 C 55 %
3048 22-03-2019 09:32:18 3.2 C 54 %
3049 22-03-2019 09:44:18 4 C 53 %
3050 22-03-2019 09:56:17 5.1 C 49 %
Sensor: Nr:Datum:Temp:Feuchte:
Aussen-T/F 3051 22-03-2019 10:08:17 6.1 C 41 %
3052 22-03-2019 10:20:17 7.8 C 35 %
3053 22-03-2019 10:32:17 9.8 C 27 %
3054 22-03-2019 10:44:17 10.7 C 23 %
3055 22-03-2019 10:56:18 13.4 C 20 %
3056 22-03-2019 11:08:17 12.7 C 20 %
3057 22-03-2019 11:20:17 13.2 C 20 %
3058 22-03-2019 11:32:17 15.2 C 20 %
3059 22-03-2019 11:44:17 15.2 C 20 %
3060 22-03-2019 11:56:17 14.6 C 20 %
3061 22-03-2019 12:08:18 14.8 C 20 %
3062 22-03-2019 12:20:17 15.3 C 20 %
3063 22-03-2019 12:32:17 15.6 C 20 %
3064 22-03-2019 12:44:17 16.3 C 20 %
3065 22-03-2019 12:56:17 16.7 C 20 %
3066 22-03-2019 13:08:17 17.2 C 20 %
3067 22-03-2019 13:20:18 17.2 C 20 %
3068 22-03-2019 13:32:18 17.7 C 20 %
3069 22-03-2019 13:44:18 17.7 C 20 %
3070 22-03-2019 13:56:17 18.5 C 20 %
3071 22-03-2019 14:08:17 18.5 C 20 %
3072 22-03-2019 14:20:17 18.5 C 20 %
3073 22-03-2019 14:32:17 18.6 C 20 %
3074 22-03-2019 14:44:17 18.8 C 20 %
3075 22-03-2019 14:56:18 19 C 20 %
Sensor: Nr:Datum:Temp:Feuchte:
Aussen-T/F 3076 22-03-2019 15:08:17 19.5 C 20 %
3077 22-03-2019 15:20:17 19 C 20 %
3078 22-03-2019 15:32:17 19 C 20 %
3079 22-03-2019 15:44:17 19.2 C 20 %
3080 22-03-2019 15:56:17 19.1 C 20 %
3081 22-03-2019 16:08:18 19.4 C 20 %
3082 22-03-2019 16:20:17 19.3 C 20 %
3083 22-03-2019 16:32:17 20 C 20 %
3084 22-03-2019 16:44:17 20.4 C 20 %
3085 22-03-2019 16:56:17 20.8 C 20 %
3086 22-03-2019 17:08:17 20.5 C 20 %
3087 22-03-2019 17:20:17 20.8 C 20 %
3088 22-03-2019 17:32:18 21.1 C 20 %
3089 22-03-2019 17:44:18 23 C 20 %
3090 22-03-2019 17:56:17 20.7 C 20 %
3091 22-03-2019 18:08:17 18.3 C 20 %
3092 22-03-2019 18:20:17 15.8 C 20 %
3093 22-03-2019 18:32:17 14 C 20 %
3094 22-03-2019 18:44:18 13.4 C 20 %
3095 22-03-2019 18:56:17 12.4 C 20 %
3096 22-03-2019 19:08:17 12 C 20 %
3097 22-03-2019 19:20:17 11.3 C 20 %
3098 22-03-2019 19:32:17 10.8 C 20 %
3099 22-03-2019 19:44:18 10.5 C 20 %
3100 22-03-2019 19:56:18 10.5 C 20 %
Sensor: Nr:Datum:Temp:Feuchte:
Aussen-T/F 3101 22-03-2019 20:08:18 10.2 C 20 %
3102 22-03-2019 20:20:17 10.2 C 20 %
3103 22-03-2019 20:32:17 9.8 C 20 %
3104 22-03-2019 20:44:17 9.5 C 20 %
3105 22-03-2019 20:56:17 8.6 C 20 %
3106 22-03-2019 21:08:17 8 C 20 %
3107 22-03-2019 21:20:17 7.3 C 20 %
3108 22-03-2019 21:32:17 7 C 23 %
3109 22-03-2019 21:44:17 6.9 C 25 %
3110 22-03-2019 21:56:17 6.5 C 23 %
3111 22-03-2019 22:08:17 5.9 C 26 %
3112 22-03-2019 22:20:17 6 C 30 %
3113 22-03-2019 22:32:17 6.4 C 30 %
3114 22-03-2019 22:44:17 6.2 C 28 %
3115 22-03-2019 22:56:17 6 C 29 %
3116 22-03-2019 23:08:17 5.6 C 30 %
3117 22-03-2019 23:20:17 5.2 C 30 %
3118 22-03-2019 23:32:17 4.8 C 31 %
3119 22-03-2019 23:44:18 4.7 C 32 %
3120 22-03-2019 23:56:17 4.7 C 35 %
3121 23-03-2019 00:08:17 4.4 C 33 %
3122 23-03-2019 00:20:17 4.3 C 34 %
3123 23-03-2019 00:32:17 3.8 C 35 %
3124 23-03-2019 00:44:17 3.7 C 36 %
3125 23-03-2019 00:56:17 3.5 C 37 %
Sensor: Nr:Datum:Temp:Feuchte:
Aussen-T/F 3126 23-03-2019 01:08:17 3.5 C 38 %
3127 23-03-2019 01:20:17 3.9 C 40 %
3128 23-03-2019 01:32:17 3.1 C 38 %
3129 23-03-2019 01:44:17 3 C 40 %
3130 23-03-2019 01:56:17 2.8 C 41 %
3131 23-03-2019 02:08:17 2.5 C 42 %
3132 23-03-2019 02:20:17 2.6 C 44 %
3133 23-03-2019 02:32:17 2.6 C 45 %
3134 23-03-2019 02:44:17 2.6 C 45 %
3135 23-03-2019 02:56:17 2.8 C 45 %
3136 23-03-2019 03:08:17 2.5 C 45 %
3137 23-03-2019 03:20:17 2.3 C 45 %
3138 23-03-2019 03:32:17 2 C 45 %
3139 23-03-2019 03:44:18 2 C 47 %
3140 23-03-2019 03:56:18 2.3 C 48 %
3141 23-03-2019 04:08:17 2.2 C 48 %
3142 23-03-2019 04:20:17 2 C 48 %
3143 23-03-2019 04:32:17 2.4 C 49 %
3144 23-03-2019 04:44:17 2 C 47 %
3145 23-03-2019 04:56:17 2.3 C 48 %
3146 23-03-2019 05:08:18 2.2 C 47 %
3147 23-03-2019 05:20:17 2 C 47 %
3148 23-03-2019 05:32:17 2.3 C 48 %
3149 23-03-2019 05:44:17 1.8 C 47 %
3150 23-03-2019 05:56:17 1.3 C 47 %
Sensor: Nr:Datum:Temp:Feuchte:
Aussen-T/F 3151 23-03-2019 06:08:17 1.1 C 48 %
3152 23-03-2019 06:20:17 1.2 C 50 %
3153 23-03-2019 06:32:18 1.4 C 51 %
3154 23-03-2019 06:44:18 1.6 C 52 %
3155 23-03-2019 06:56:18 1.3 C 51 %
3156 23-03-2019 07:08:17 1.3 C 51 %
3157 23-03-2019 07:20:17 3.4 C 55 %
3158 23-03-2019 07:32:17 4.7 C 54 %
3159 23-03-2019 07:44:17 5 C 50 %
3160 23-03-2019 07:56:17 5.4 C 49 %
3161 23-03-2019 08:08:17 5.7 C 48 %
3162 23-03-2019 08:20:17 5.8 C 48 %
3163 23-03-2019 08:32:17 5.9 C 48 %
3164 23-03-2019 08:44:17 6 C 47 %
3165 23-03-2019 08:56:17 6.1 C 46 %
3166 23-03-2019 09:08:17 6.3 C 45 %
3167 23-03-2019 09:20:24 6.4 C 44 %
3168 23-03-2019 09:32:17 6.6 C 43 %
3169 23-03-2019 09:44:17 6.7 C 41 %
3170 23-03-2019 09:56:18 6.9 C 41 %
3171 23-03-2019 10:08:17 7 C 42 %
3172 23-03-2019 10:20:17 7 C 42 %
3173 23-03-2019 10:32:18 7 C 42 %
3174 23-03-2019 10:44:18 7.1 C 42 %
3175 23-03-2019 10:56:17 7 C 41 %
Sensor: Nr:Datum:Temp:Feuchte:
Aussen-T/F 3176 23-03-2019 11:08:17 7.1 C 40 %
3177 23-03-2019 11:20:17 7.5 C 40 %
3178 23-03-2019 11:32:17 7.5 C 39 %
3179 23-03-2019 11:44:17 7.6 C 38 %
3180 23-03-2019 11:56:17 7.9 C 38 %
3181 23-03-2019 12:08:17 7.8 C 37 %
3182 23-03-2019 12:20:17 8.1 C 35 %
3183 23-03-2019 12:32:17 8.3 C 35 %
3184 23-03-2019 12:44:17 8.2 C 34 %
3185 23-03-2019 12:56:17 8.6 C 34 %
3186 23-03-2019 13:08:17 8.8 C 32 %
3187 23-03-2019 13:20:17 8.8 C 31 %
3188 23-03-2019 13:32:18 9.1 C 30 %
3189 23-03-2019 13:44:18 9 C 30 %
3190 23-03-2019 13:56:17 9.6 C 30 %
3191 23-03-2019 14:08:17 9.4 C 27 %
3192 23-03-2019 14:20:17 9.5 C 27 %
3193 23-03-2019 14:32:17 9.6 C 26 %
3194 23-03-2019 14:44:17 9.6 C 25 %
3195 23-03-2019 14:56:17 10.1 C 23 %
3196 23-03-2019 15:08:17 10.2 C 25 %
3197 23-03-2019 15:20:18 9.8 C 21 %
3198 23-03-2019 15:32:17 10 C 20 %
3199 23-03-2019 15:44:17 10.3 C 20 %
3200 23-03-2019 15:56:17 10.2 C 20 %
Sensor: Nr:Datum:Temp:Feuchte:
Aussen-T/F 3201 23-03-2019 16:08:18 10.3 C 20 %
3202 23-03-2019 16:20:18 10.2 C 20 %
3203 23-03-2019 16:32:18 10.4 C 20 %
3204 23-03-2019 16:44:18 10.6 C 20 %
3205 23-03-2019 16:56:18 10.5 C 20 %
3206 23-03-2019 17:08:18 10.5 C 20 %
3207 23-03-2019 17:20:18 10.3 C 20 %
3208 23-03-2019 17:32:18 10.2 C 20 %
3209 23-03-2019 17:44:18 9.6 C 20 %
3210 23-03-2019 17:56:17 9.9 C 20 %
3211 23-03-2019 18:08:17 9.6 C 20 %
3212 23-03-2019 18:20:18 8.4 C 26 %
3213 23-03-2019 18:32:18 7.5 C 28 %
3214 23-03-2019 18:44:18 7.1 C 32 %
3215 23-03-2019 18:56:17 6.4 C 35 %
3216 23-03-2019 19:08:18 6.2 C 36 %
3217 23-03-2019 19:20:17 5.8 C 38 %
3218 23-03-2019 19:32:17 5.4 C 39 %
3219 23-03-2019 19:44:17 5.2 C 42 %
3220 23-03-2019 19:56:18 4.7 C 42 %
3221 23-03-2019 20:08:18 4.3 C 45 %
3222 23-03-2019 20:20:17 4.1 C 45 %
3223 23-03-2019 20:32:18 3.7 C 47 %
3224 23-03-2019 20:44:18 3.7 C 48 %
3225 23-03-2019 20:56:17 3.5 C 49 %
Sensor: Nr:Datum:Temp:Feuchte:
Aussen-T/F 3226 23-03-2019 21:08:17 3.3 C 50 %
3227 23-03-2019 21:20:18 3.1 C 50 %
3228 23-03-2019 21:32:18 2.8 C 51 %
3229 23-03-2019 21:44:18 2.6 C 52 %
3230 23-03-2019 21:56:17 2.5 C 52 %
3231 23-03-2019 22:08:18 2.4 C 53 %
3232 23-03-2019 22:20:18 2.2 C 53 %
3233 23-03-2019 22:32:18 2.1 C 53 %
3234 23-03-2019 22:44:18 1.9 C 55 %
3235 23-03-2019 22:56:17 1.9 C 55 %
3236 23-03-2019 23:08:18 1.8 C 55 %
3237 23-03-2019 23:20:18 1.8 C 56 %
3238 23-03-2019 23:32:18 1.6 C 55 %
3239 23-03-2019 23:44:18 1.5 C 56 %
3240 23-03-2019 23:56:17 1.4 C 56 %
3241 24-03-2019 00:08:17 1.2 C 56 %
3242 24-03-2019 00:20:18 1.2 C 55 %
3243 24-03-2019 00:32:18 1 C 56 %
3244 24-03-2019 00:44:18 1.2 C 57 %
3245 24-03-2019 00:56:17 1.2 C 57 %
3246 24-03-2019 01:08:17 0.9 C 57 %
3247 24-03-2019 01:20:18 0.7 C 57 %
3248 24-03-2019 01:32:18 0.5 C 57 %
3249 24-03-2019 01:44:18 0.4 C 58 %
3250 24-03-2019 01:56:17 0.3 C 58 %
Sensor: Nr:Datum:Temp:Feuchte:
Aussen-T/F 3251 24-03-2019 02:08:18 0.2 C 59 %
3252 24-03-2019 02:20:18 0.2 C 59 %
3253 24-03-2019 02:32:18 0 C 59 %
3254 24-03-2019 02:44:18 -0.1 C 59 %
3255 24-03-2019 02:56:17 -0.1 C 60 %
3256 24-03-2019 03:08:18 -0.1 C 63 %
3257 24-03-2019 03:20:17 -0.3 C 63 %
3258 24-03-2019 03:32:17 -0.3 C 64 %
3259 24-03-2019 03:44:18 -0.2 C 64 %
3260 24-03-2019 03:56:17 -0.2 C 64 %
3261 24-03-2019 04:08:18 -0.4 C 65 %
3262 24-03-2019 04:20:18 -0.2 C 68 %
3263 24-03-2019 04:32:18 -0.2 C 68 %
3264 24-03-2019 04:44:18 0.4 C 72 %
3265 24-03-2019 04:56:18 1 C 73 %
3266 24-03-2019 05:08:18 1.3 C 74 %
3267 24-03-2019 05:20:18 1.4 C 74 %
3268 24-03-2019 05:32:18 1.5 C 73 %
3269 24-03-2019 05:44:18 1.6 C 72 %
3270 24-03-2019 05:56:18 1.7 C 72 %
3271 24-03-2019 06:08:18 2.1 C 69 %
3272 24-03-2019 06:20:17 2 C 67 %
3273 24-03-2019 06:32:17 2.1 C 66 %
3274 24-03-2019 06:44:18 2.2 C 64 %
3275 24-03-2019 06:56:18 2.3 C 62 %
Sensor: Nr:Datum:Temp:Feuchte:
Aussen-T/F 3276 24-03-2019 07:08:18 2.4 C 59 %
3277 24-03-2019 07:20:18 2.5 C 55 %
3278 24-03-2019 07:32:18 2.7 C 53 %
3279 24-03-2019 07:44:18 2.8 C 52 %
3280 24-03-2019 07:56:18 3 C 50 %
3281 24-03-2019 08:08:17 3.5 C 48 %
3282 24-03-2019 08:20:18 3.6 C 46 %
3283 24-03-2019 08:32:18 4.1 C 44 %
3284 24-03-2019 08:44:18 4.4 C 43 %
3285 24-03-2019 08:56:18 4.8 C 39 %
3286 24-03-2019 09:08:17 4.9 C 37 %
3287 24-03-2019 09:20:18 5 C 36 %
3288 24-03-2019 09:32:18 5.4 C 36 %
3289 24-03-2019 09:44:18 5.9 C 36 %
3290 24-03-2019 09:56:18 6.5 C 35 %
3291 24-03-2019 10:08:17 7 C 34 %
3292 24-03-2019 10:20:17 7.6 C 33 %
3293 24-03-2019 10:32:17 7.8 C 32 %
3294 24-03-2019 10:44:17 8.2 C 30 %
3295 24-03-2019 10:56:17 8.7 C 30 %
3296 24-03-2019 11:08:17 10.1 C 27 %
3297 24-03-2019 11:20:17 11.1 C 25 %
3298 24-03-2019 11:32:17 12.2 C 20 %
3299 24-03-2019 11:44:18 12.1 C 20 %
3300 24-03-2019 11:56:18 12.7 C 20 %
Sensor: Nr:Datum:Temp:Feuchte:
Aussen-T/F 3301 24-03-2019 12:08:17 12.6 C 20 %
3302 24-03-2019 12:20:17 12.6 C 20 %
3303 24-03-2019 12:32:17 12.9 C 20 %
3304 24-03-2019 12:44:17 12.7 C 20 %
3305 24-03-2019 12:56:17 11.5 C 21 %
3306 24-03-2019 13:08:17 11.4 C 23 %
3307 24-03-2019 13:20:17 10.8 C 26 %
3308 24-03-2019 13:32:17 10.6 C 26 %
3309 24-03-2019 13:44:17 10.8 C 25 %
3310 24-03-2019 13:56:17 11.1 C 26 %
3311 24-03-2019 14:08:17 10.8 C 27 %
3312 24-03-2019 14:20:17 11 C 26 %
3313 24-03-2019 14:32:17 11.2 C 26 %
3314 24-03-2019 14:44:17 11.4 C 25 %
3315 24-03-2019 14:56:17 11.3 C 25 %
3316 24-03-2019 15:08:17 11 C 25 %
3317 24-03-2019 15:20:17 11.1 C 22 %
3318 24-03-2019 15:32:17 11.6 C 20 %
3319 24-03-2019 15:44:18 11.9 C 20 %
3320 24-03-2019 15:56:17 12.2 C 20 %
3321 24-03-2019 16:08:17 12.3 C 20 %
3322 24-03-2019 16:20:17 12.3 C 20 %
3323 24-03-2019 16:32:17 12.4 C 20 %
3324 24-03-2019 16:44:17 12.1 C 20 %
3325 24-03-2019 16:56:17 11.7 C 20 %
Sensor: Nr:Datum:Temp:Feuchte:
Aussen-T/F 3326 24-03-2019 17:08:17 12.1 C 20 %
3327 24-03-2019 17:20:17 12.7 C 20 %
3328 24-03-2019 17:32:17 13 C 20 %
3329 24-03-2019 17:44:17 13.8 C 20 %
3330 24-03-2019 17:56:17 12.9 C 20 %
3331 24-03-2019 18:08:17 12.4 C 20 %
3332 24-03-2019 18:20:18 10.8 C 20 %
3333 24-03-2019 18:32:17 10.1 C 20 %
3334 24-03-2019 18:44:17 9.8 C 20 %
3335 24-03-2019 18:56:17 8.9 C 20 %
3336 24-03-2019 19:08:17 8.4 C 20 %
3337 24-03-2019 19:20:18 8 C 20 %
3338 24-03-2019 19:32:17 7.8 C 20 %
3339 24-03-2019 19:44:17 7.8 C 20 %
3340 24-03-2019 19:56:18 7 C 20 %
3341 24-03-2019 20:08:17 6.5 C 20 %
3342 24-03-2019 20:20:17 6.3 C 20 %
3343 24-03-2019 20:32:17 5.8 C 20 %
3344 24-03-2019 20:44:17 5.5 C 20 %
3345 24-03-2019 20:56:18 5.7 C 20 %
3346 24-03-2019 21:08:17 4.6 C 20 %
3347 24-03-2019 21:20:18 4.6 C 25 %
3348 24-03-2019 21:32:17 4.1 C 25 %
3349 24-03-2019 21:44:17 4 C 26 %
3350 24-03-2019 21:56:17 3.4 C 30 %
Sensor: Nr:Datum:Temp:Feuchte:
Aussen-T/F 3351 24-03-2019 22:08:17 3.4 C 31 %
3352 24-03-2019 22:20:18 2.7 C 32 %
3353 24-03-2019 22:32:17 2.8 C 33 %
3354 24-03-2019 22:44:17 2.4 C 33 %
3355 24-03-2019 22:56:17 2.3 C 35 %
3356 24-03-2019 23:08:17 2.4 C 36 %
3357 24-03-2019 23:20:17 2.4 C 36 %
3358 24-03-2019 23:32:17 2.4 C 34 %
3359 24-03-2019 23:44:17 2.5 C 33 %
3360 24-03-2019 23:56:18 2.6 C 33 %
Sensor: Nr:Datum:Temp:Feuchte:
G-T/H 1 25-02-2019 00:06:18 8.1 C 71 %
2 25-02-2019 00:18:17 8.1 C 71 %
3 25-02-2019 00:30:17 8.1 C 71 %
4 25-02-2019 00:42:17 8.1 C 71 %
5 25-02-2019 00:54:17 8.1 C 71 %
6 25-02-2019 01:06:17 8.1 C 71 %
7 25-02-2019 01:18:18 8.1 C 71 %
8 25-02-2019 01:30:18 8.1 C 70 %
9 25-02-2019 01:42:18 8.1 C 70 %
10 25-02-2019 01:54:18 8.1 C 70 %
11 25-02-2019 02:06:17 8 C 70 %
12 25-02-2019 02:18:17 8 C 70 %
13 25-02-2019 02:30:18 8 C 70 %
14 25-02-2019 02:42:18 8 C 70 %
15 25-02-2019 02:54:18 8 C 70 %
16 25-02-2019 03:06:17 8 C 70 %
17 25-02-2019 03:18:17 8 C 70 %
18 25-02-2019 03:30:17 8 C 70 %
19 25-02-2019 03:42:18 8 C 70 %
20 25-02-2019 03:54:17 7.9 C 71 %
21 25-02-2019 04:06:17 7.9 C 71 %
22 25-02-2019 04:18:17 7.9 C 71 %
23 25-02-2019 04:30:18 7.9 C 71 %
24 25-02-2019 04:42:18 7.9 C 71 %
25 25-02-2019 04:54:18 7.9 C 71 %
Sensor: Nr:Datum:Temp:Feuchte:
G-T/H 26 25-02-2019 05:06:17 7.9 C 71 %
27 25-02-2019 05:18:17 7.9 C 70 %
28 25-02-2019 05:30:17 7.8 C 70 %
29 25-02-2019 05:42:17 7.8 C 70 %
30 25-02-2019 05:54:17 7.8 C 70 %
31 25-02-2019 06:06:18 7.8 C 70 %
32 25-02-2019 06:18:17 7.8 C 70 %
33 25-02-2019 06:30:17 7.8 C 70 %
34 25-02-2019 06:42:17 7.7 C 70 %
35 25-02-2019 06:54:17 7.7 C 70 %
36 25-02-2019 07:06:17 7.7 C 70 %
37 25-02-2019 07:18:18 7.7 C 70 %
38 25-02-2019 07:30:17 7.4 C 69 %
39 25-02-2019 07:42:17 7.4 C 69 %
40 25-02-2019 07:54:17 7.4 C 69 %
41 25-02-2019 08:06:18 7.4 C 69 %
42 25-02-2019 08:18:17 7.4 C 69 %
43 25-02-2019 08:30:17 7.4 C 69 %
44 25-02-2019 08:42:17 7.3 C 69 %
45 25-02-2019 08:54:17 7.3 C 70 %
46 25-02-2019 09:06:17 7.3 C 70 %
47 25-02-2019 09:18:17 7.3 C 70 %
48 25-02-2019 09:30:17 7.3 C 70 %
49 25-02-2019 09:42:18 7.2 C 70 %
50 25-02-2019 09:54:17 7.2 C 70 %
Sensor: Nr:Datum:Temp:Feuchte:
G-T/H 51 25-02-2019 10:06:17 7.2 C 70 %
52 25-02-2019 10:18:17 7.2 C 70 %
53 25-02-2019 10:30:18 7.2 C 70 %
54 25-02-2019 10:42:18 7.2 C 70 %
55 25-02-2019 10:54:17 7.2 C 70 %
56 25-02-2019 11:06:18 7.1 C 70 %
57 25-02-2019 11:18:17 7.2 C 71 %
58 25-02-2019 11:30:17 7.2 C 71 %
59 25-02-2019 11:42:17 7.2 C 71 %
60 25-02-2019 11:54:17 7.2 C 71 %
61 25-02-2019 12:06:17 7.2 C 71 %
62 25-02-2019 12:18:17 7.3 C 71 %
63 25-02-2019 12:30:17 7.2 C 71 %
64 25-02-2019 12:42:18 7.2 C 71 %
65 25-02-2019 12:54:17 7.2 C 72 %
66 25-02-2019 13:06:17 7.3 C 72 %
67 25-02-2019 13:18:18 7.2 C 72 %
68 25-02-2019 13:30:18 7.2 C 72 %
69 25-02-2019 13:42:18 7.2 C 72 %
70 25-02-2019 13:54:18 7.2 C 72 %
71 25-02-2019 14:06:17 7.3 C 72 %
72 25-02-2019 14:18:17 7.2 C 72 %
73 25-02-2019 14:30:17 7.3 C 72 %
74 25-02-2019 14:42:17 7.3 C 72 %
75 25-02-2019 14:54:17 7.3 C 72 %
Sensor: Nr:Datum:Temp:Feuchte:
G-T/H 76 25-02-2019 15:06:17 7.3 C 72 %
77 25-02-2019 15:18:17 7.3 C 73 %
78 25-02-2019 15:30:18 7.3 C 73 %
79 25-02-2019 15:42:18 7.3 C 73 %
80 25-02-2019 15:54:17 7.3 C 73 %
81 25-02-2019 16:06:17 7.4 C 73 %
82 25-02-2019 16:18:17 7.3 C 73 %
83 25-02-2019 16:30:17 7.4 C 73 %
84 25-02-2019 16:42:17 7.4 C 73 %
85 25-02-2019 16:54:17 7.4 C 73 %
86 25-02-2019 17:06:17 7.5 C 73 %
87 25-02-2019 17:18:18 7.5 C 73 %
88 25-02-2019 17:30:17 7.5 C 73 %
89 25-02-2019 17:42:17 7.5 C 73 %
90 25-02-2019 17:54:17 7.5 C 73 %
91 25-02-2019 18:06:17 7.5 C 73 %
92 25-02-2019 18:18:18 7.5 C 73 %
93 25-02-2019 18:30:18 7.5 C 73 %
94 25-02-2019 18:42:18 7.6 C 73 %
95 25-02-2019 18:54:17 7.6 C 73 %
96 25-02-2019 19:06:18 7.6 C 73 %
97 25-02-2019 19:18:18 7.6 C 74 %
98 25-02-2019 19:30:17 7.6 C 74 %
99 25-02-2019 19:42:17 7.6 C 74 %
100 25-02-2019 19:54:17 7.6 C 74 %
Sensor: Nr:Datum:Temp:Feuchte:
G-T/H 101 25-02-2019 20:06:18 7.7 C 74 %
102 25-02-2019 20:18:18 7.7 C 74 %
103 25-02-2019 20:30:18 7.7 C 74 %
104 25-02-2019 20:42:18 7.7 C 74 %
105 25-02-2019 20:54:17 7.7 C 74 %
106 25-02-2019 21:06:18 7.8 C 74 %
107 25-02-2019 21:18:17 7.8 C 74 %
108 25-02-2019 21:30:18 7.8 C 74 %
109 25-02-2019 21:42:18 7.8 C 74 %
110 25-02-2019 21:54:17 7.8 C 74 %
111 25-02-2019 22:06:17 7.8 C 74 %
112 25-02-2019 22:18:17 7.8 C 74 %
113 25-02-2019 22:30:18 7.8 C 74 %
114 25-02-2019 22:42:18 7.8 C 74 %
115 25-02-2019 22:54:17 7.8 C 74 %
116 25-02-2019 23:06:18 7.8 C 74 %
117 25-02-2019 23:18:17 7.8 C 74 %
118 25-02-2019 23:30:18 7.8 C 74 %
119 25-02-2019 23:42:18 7.8 C 74 %
120 25-02-2019 23:54:18 7.8 C 74 %
121 26-02-2019 00:06:17 7.8 C 74 %
122 26-02-2019 00:18:17 7.8 C 74 %
123 26-02-2019 00:30:18 7.8 C 74 %
124 26-02-2019 00:42:18 7.8 C 74 %
125 26-02-2019 00:54:18 7.8 C 74 %
Sensor: Nr:Datum:Temp:Feuchte:
G-T/H 126 26-02-2019 01:06:18 7.8 C 74 %
127 26-02-2019 01:18:17 7.8 C 74 %
128 26-02-2019 01:30:18 7.8 C 74 %
129 26-02-2019 01:42:18 7.8 C 74 %
130 26-02-2019 01:54:17 7.8 C 74 %
131 26-02-2019 02:06:18 7.8 C 74 %
132 26-02-2019 02:18:18 7.8 C 74 %
133 26-02-2019 02:30:17 7.8 C 74 %
134 26-02-2019 02:42:18 7.8 C 73 %
135 26-02-2019 02:54:17 7.8 C 73 %
136 26-02-2019 03:06:18 7.8 C 73 %
137 26-02-2019 03:18:18 7.7 C 73 %
138 26-02-2019 03:30:17 7.7 C 73 %
139 26-02-2019 03:42:17 7.7 C 73 %
140 26-02-2019 03:54:17 7.7 C 73 %
141 26-02-2019 04:06:18 7.7 C 73 %
142 26-02-2019 04:18:18 7.6 C 73 %
143 26-02-2019 04:30:17 7.6 C 73 %
144 26-02-2019 04:42:17 7.6 C 73 %
145 26-02-2019 04:54:17 7.6 C 73 %
146 26-02-2019 05:06:18 7.6 C 73 %
147 26-02-2019 05:18:17 7.6 C 73 %
148 26-02-2019 05:30:18 7.6 C 73 %
149 26-02-2019 05:42:18 7.5 C 73 %
150 26-02-2019 05:54:17 7.5 C 73 %
Sensor: Nr:Datum:Temp:Feuchte:
G-T/H 151 26-02-2019 06:06:18 7.5 C 73 %
152 26-02-2019 06:18:18 7.5 C 73 %
153 26-02-2019 06:30:17 7.5 C 73 %
154 26-02-2019 06:42:17 7.4 C 72 %
155 26-02-2019 06:54:17 7.5 C 72 %
156 26-02-2019 07:06:18 7.4 C 72 %
157 26-02-2019 07:18:18 7.4 C 72 %
158 26-02-2019 07:30:17 7.4 C 72 %
159 26-02-2019 07:42:17 7.4 C 72 %
160 26-02-2019 07:54:18 7.4 C 72 %
161 26-02-2019 08:06:18 7.4 C 72 %
162 26-02-2019 08:18:18 7.3 C 72 %
163 26-02-2019 08:30:18 7.3 C 72 %
164 26-02-2019 08:42:18 7.3 C 72 %
165 26-02-2019 08:54:18 7.3 C 72 %
166 26-02-2019 09:06:17 7.3 C 72 %
167 26-02-2019 09:18:18 7.3 C 72 %
168 26-02-2019 09:30:18 7.3 C 72 %
169 26-02-2019 09:42:18 7.2 C 72 %
170 26-02-2019 09:54:18 7.3 C 72 %
171 26-02-2019 10:06:18 7.2 C 72 %
172 26-02-2019 10:18:17 7.3 C 72 %
173 26-02-2019 10:30:18 7.3 C 72 %
174 26-02-2019 10:42:18 7.2 C 72 %
175 26-02-2019 10:54:18 7.2 C 72 %
Sensor: Nr:Datum:Temp:Feuchte:
G-T/H 176 26-02-2019 11:06:17 7.2 C 73 %
177 26-02-2019 11:18:17 7.2 C 73 %
178 26-02-2019 11:30:18 7.3 C 73 %
179 26-02-2019 11:42:18 7.3 C 73 %
180 26-02-2019 11:54:18 7.3 C 73 %
181 26-02-2019 12:06:18 7.3 C 73 %
182 26-02-2019 12:18:17 7.3 C 73 %
183 26-02-2019 12:30:18 7.3 C 73 %
184 26-02-2019 12:42:18 7.3 C 73 %
185 26-02-2019 12:54:17 7.3 C 73 %
186 26-02-2019 13:06:18 7.3 C 73 %
187 26-02-2019 13:18:17 7.3 C 73 %
188 26-02-2019 13:30:18 7.3 C 73 %
189 26-02-2019 13:42:18 7.3 C 74 %
190 26-02-2019 13:54:17 7.3 C 74 %
191 26-02-2019 14:06:18 7.3 C 74 %
192 26-02-2019 14:18:17 7.3 C 74 %
193 26-02-2019 14:30:18 7.4 C 74 %
194 26-02-2019 14:42:18 7.4 C 74 %
195 26-02-2019 14:54:17 7.4 C 74 %
196 26-02-2019 15:06:17 7.4 C 74 %
197 26-02-2019 15:18:17 7.5 C 74 %
198 26-02-2019 15:30:17 7.5 C 74 %
199 26-02-2019 15:42:17 7.5 C 74 %
200 26-02-2019 15:54:17 7.5 C 74 %
Sensor: Nr:Datum:Temp:Feuchte:
G-T/H 201 26-02-2019 16:06:17 7.5 C 74 %
202 26-02-2019 16:18:18 7.6 C 74 %
203 26-02-2019 16:30:18 7.6 C 74 %
204 26-02-2019 16:42:18 7.6 C 74 %
205 26-02-2019 16:54:17 7.6 C 74 %
206 26-02-2019 17:06:17 7.6 C 74 %
207 26-02-2019 17:18:17 8.7 C 73 %
208 26-02-2019 17:30:17 9.1 C 71 %
209 26-02-2019 17:42:17 9.1 C 70 %
210 26-02-2019 17:54:17 9.1 C 70 %
211 26-02-2019 18:06:17 8.9 C 70 %
212 26-02-2019 18:18:17 8.9 C 70 %
213 26-02-2019 18:30:17 8.9 C 70 %
214 26-02-2019 18:42:17 8.9 C 70 %
215 26-02-2019 18:54:17 9.1 C 68 %
216 26-02-2019 19:06:17 9.2 C 67 %
217 26-02-2019 19:18:17 9.1 C 67 %
218 26-02-2019 19:30:18 9.1 C 67 %
219 26-02-2019 19:42:18 9 C 67 %
220 26-02-2019 19:54:17 8.9 C 68 %
221 26-02-2019 20:06:17 8.8 C 68 %
222 26-02-2019 20:18:17 8.8 C 68 %
223 26-02-2019 20:30:17 8.7 C 68 %
224 26-02-2019 20:42:18 8.7 C 68 %
225 26-02-2019 20:54:17 8.5 C 67 %
Sensor: Nr:Datum:Temp:Feuchte:
G-T/H 226 26-02-2019 21:06:17 8.5 C 67 %
227 26-02-2019 21:18:18 8.2 C 66 %
228 26-02-2019 21:30:18 8.2 C 66 %
229 26-02-2019 21:42:18 8.1 C 66 %
230 26-02-2019 21:54:17 8.1 C 66 %
231 26-02-2019 22:06:17 8 C 66 %
232 26-02-2019 22:18:17 8 C 66 %
233 26-02-2019 22:30:17 7.7 C 66 %
234 26-02-2019 22:42:18 7.6 C 66 %
235 26-02-2019 22:54:17 7.4 C 66 %
236 26-02-2019 23:06:17 7.2 C 66 %
237 26-02-2019 23:18:17 7.2 C 66 %
238 26-02-2019 23:30:18 7.2 C 66 %
239 26-02-2019 23:42:18 7 C 66 %
240 26-02-2019 23:54:17 6.9 C 67 %
241 27-02-2019 00:06:17 6.8 C 67 %
242 27-02-2019 00:18:17 6.7 C 67 %
243 27-02-2019 00:30:17 6.5 C 66 %
244 27-02-2019 00:42:17 6.4 C 66 %
245 27-02-2019 00:54:17 6.3 C 67 %
246 27-02-2019 01:06:17 6.2 C 66 %
247 27-02-2019 01:18:18 6.1 C 66 %
248 27-02-2019 01:30:18 6.1 C 66 %
249 27-02-2019 01:42:18 5.9 C 68 %
250 27-02-2019 01:54:18 5.9 C 68 %
Sensor: Nr:Datum:Temp:Feuchte:
G-T/H 251 27-02-2019 02:06:17 5.7 C 67 %
252 27-02-2019 02:18:17 5.5 C 67 %
253 27-02-2019 02:30:17 5.4 C 67 %
254 27-02-2019 02:42:18 5.4 C 67 %
255 27-02-2019 02:54:18 5.3 C 67 %
256 27-02-2019 03:06:17 5.3 C 67 %
257 27-02-2019 03:18:17 5.1 C 67 %
258 27-02-2019 03:30:17 5 C 67 %
259 27-02-2019 03:42:17 5 C 67 %
260 27-02-2019 03:54:17 5 C 67 %
261 27-02-2019 04:06:17 4.9 C 68 %
262 27-02-2019 04:18:18 4.9 C 68 %
263 27-02-2019 04:30:17 4.8 C 67 %
264 27-02-2019 04:42:17 4.8 C 67 %
265 27-02-2019 04:54:17 4.8 C 67 %
266 27-02-2019 05:06:17 4.7 C 67 %
267 27-02-2019 05:18:17 4.7 C 67 %
268 27-02-2019 05:30:18 4.6 C 67 %
269 27-02-2019 05:42:18 4.6 C 67 %
270 27-02-2019 05:54:17 4.6 C 67 %
271 27-02-2019 06:06:17 4.8 C 66 %
272 27-02-2019 06:18:17 4.8 C 66 %
273 27-02-2019 06:30:17 4.8 C 66 %
274 27-02-2019 06:42:17 4.9 C 65 %
275 27-02-2019 06:54:18 4.5 C 65 %
Sensor: Nr:Datum:Temp:Feuchte:
G-T/H 276 27-02-2019 07:06:18 4.9 C 65 %
277 27-02-2019 07:18:17 4.9 C 65 %
278 27-02-2019 07:30:17 4.8 C 63 %
279 27-02-2019 07:42:17 4.8 C 63 %
280 27-02-2019 07:54:18 6.5 C 63 %
281 27-02-2019 08:06:18 7.2 C 62 %
282 27-02-2019 08:18:17 7.3 C 63 %
283 27-02-2019 08:30:17 7.1 C 63 %
284 27-02-2019 08:42:17 7.1 C 64 %
285 27-02-2019 08:54:17 7 C 64 %
286 27-02-2019 09:06:17 7 C 64 %
287 27-02-2019 09:18:18 6.9 C 66 %
288 27-02-2019 09:30:17 6.9 C 66 %
289 27-02-2019 09:42:17 6.8 C 66 %
290 27-02-2019 09:54:17 6.8 C 66 %
291 27-02-2019 10:06:17 6.7 C 67 %
292 27-02-2019 10:18:18 6.7 C 67 %
293 27-02-2019 10:30:18 6.7 C 67 %
294 27-02-2019 10:42:18 6.7 C 68 %
295 27-02-2019 10:54:17 6.7 C 68 %
296 27-02-2019 11:06:17 6.7 C 68 %
297 27-02-2019 11:18:17 6.7 C 68 %
298 27-02-2019 11:30:18 6.7 C 68 %
299 27-02-2019 11:42:18 6.8 C 69 %
300 27-02-2019 11:54:17 6.7 C 69 %
Sensor: Nr:Datum:Temp:Feuchte:
G-T/H 301 27-02-2019 12:06:17 6.8 C 69 %
302 27-02-2019 12:18:17 6.8 C 69 %
303 27-02-2019 12:30:17 6.8 C 69 %
304 27-02-2019 12:42:17 6.8 C 70 %
305 27-02-2019 12:54:17 6.8 C 70 %
306 27-02-2019 13:06:17 6.9 C 70 %
307 27-02-2019 13:18:17 6.9 C 70 %
308 27-02-2019 13:30:17 6.9 C 70 %
309 27-02-2019 13:42:17 6.9 C 70 %
310 27-02-2019 13:54:17 7 C 70 %
311 27-02-2019 14:06:17 7 C 70 %
312 27-02-2019 14:18:17 7 C 70 %
313 27-02-2019 14:30:18 7.1 C 70 %
314 27-02-2019 14:42:18 7.1 C 70 %
315 27-02-2019 14:54:18 7.1 C 70 %
316 27-02-2019 15:06:17 7.1 C 70 %
317 27-02-2019 15:18:18 7.1 C 70 %
318 27-02-2019 15:30:17 7.2 C 70 %
319 27-02-2019 15:42:17 7.3 C 70 %
320 27-02-2019 15:54:17 7.3 C 70 %
321 27-02-2019 16:06:17 7.3 C 70 %
322 27-02-2019 16:18:18 7.3 C 70 %
323 27-02-2019 16:30:17 7.4 C 70 %
324 27-02-2019 16:42:17 7.4 C 71 %
325 27-02-2019 16:54:17 7.4 C 71 %
Sensor: Nr:Datum:Temp:Feuchte:
G-T/H 326 27-02-2019 17:06:17 7.4 C 71 %
327 27-02-2019 17:18:18 7.4 C 71 %
328 27-02-2019 17:30:18 7.5 C 71 %
329 27-02-2019 17:42:18 7.5 C 71 %
330 27-02-2019 17:54:18 7.5 C 71 %
331 27-02-2019 18:06:17 7.5 C 71 %
332 27-02-2019 18:18:17 7.5 C 71 %
333 27-02-2019 18:30:17 7.6 C 71 %
334 27-02-2019 18:42:17 7.6 C 71 %
335 27-02-2019 18:54:17 7.6 C 71 %
336 27-02-2019 19:06:17 7.6 C 71 %
337 27-02-2019 19:18:17 7.6 C 71 %
338 27-02-2019 19:30:17 7.6 C 71 %
339 27-02-2019 19:42:17 7.7 C 72 %
340 27-02-2019 19:54:17 7.7 C 72 %
341 27-02-2019 20:06:17 7.7 C 72 %
342 27-02-2019 20:18:17 7.7 C 72 %
343 27-02-2019 20:30:18 7.8 C 72 %
344 27-02-2019 20:42:18 7.8 C 72 %
345 27-02-2019 20:54:18 7.8 C 72 %
346 27-02-2019 21:06:17 7.8 C 72 %
347 27-02-2019 21:18:17 7.8 C 72 %
348 27-02-2019 21:30:18 7.8 C 72 %
349 27-02-2019 21:42:18 7.8 C 72 %
350 27-02-2019 21:54:18 7.8 C 72 %
Sensor: Nr:Datum:Temp:Feuchte:
G-T/H 351 27-02-2019 22:06:17 7.8 C 72 %
352 27-02-2019 22:18:17 7.9 C 72 %
353 27-02-2019 22:30:18 7.8 C 73 %
354 27-02-2019 22:42:18 7.8 C 73 %
355 27-02-2019 22:54:18 7.9 C 73 %
356 27-02-2019 23:06:17 7.9 C 73 %
357 27-02-2019 23:18:17 7.9 C 73 %
358 27-02-2019 23:30:17 7.9 C 73 %
359 27-02-2019 23:42:17 7.9 C 73 %
360 27-02-2019 23:54:18 7.9 C 73 %
361 28-02-2019 00:06:18 7.9 C 73 %
362 28-02-2019 00:18:17 7.9 C 73 %
363 28-02-2019 00:30:17 7.9 C 73 %
364 28-02-2019 00:42:17 7.9 C 73 %
365 28-02-2019 00:54:17 7.9 C 73 %
366 28-02-2019 01:06:17 7.9 C 73 %
367 28-02-2019 01:18:17 7.9 C 73 %
368 28-02-2019 01:30:18 7.9 C 73 %
369 28-02-2019 01:42:18 7.9 C 73 %
370 28-02-2019 01:54:18 7.9 C 73 %
371 28-02-2019 02:06:17 7.9 C 73 %
372 28-02-2019 02:18:17 7.9 C 73 %
373 28-02-2019 02:30:18 7.9 C 73 %
374 28-02-2019 02:42:18 7.9 C 73 %
375 28-02-2019 02:54:17 7.9 C 73 %
Sensor: Nr:Datum:Temp:Feuchte:
G-T/H 376 28-02-2019 03:06:17 7.9 C 73 %
377 28-02-2019 03:18:17 7.9 C 73 %
378 28-02-2019 03:30:17 7.9 C 73 %
379 28-02-2019 03:42:18 7.9 C 73 %
380 28-02-2019 03:54:17 7.9 C 73 %
381 28-02-2019 04:06:17 7.8 C 73 %
382 28-02-2019 04:18:18 7.8 C 72 %
383 28-02-2019 04:30:18 7.8 C 72 %
384 28-02-2019 04:42:18 7.8 C 72 %
385 28-02-2019 04:54:17 7.8 C 72 %
386 28-02-2019 05:06:17 7.8 C 72 %
387 28-02-2019 05:18:17 7.8 C 72 %
388 28-02-2019 05:30:17 7.8 C 72 %
389 28-02-2019 05:42:17 7.8 C 72 %
390 28-02-2019 05:54:17 7.8 C 72 %
391 28-02-2019 06:06:17 7.8 C 72 %
392 28-02-2019 06:18:17 7.8 C 72 %
393 28-02-2019 06:30:17 7.8 C 72 %
394 28-02-2019 06:42:17 7.7 C 72 %
395 28-02-2019 06:54:17 7.7 C 72 %
396 28-02-2019 07:06:17 7.7 C 72 %
397 28-02-2019 07:18:17 7.7 C 72 %
398 28-02-2019 07:30:17 7.7 C 72 %
399 28-02-2019 07:42:17 7.7 C 72 %
400 28-02-2019 07:54:17 7.7 C 72 %
Sensor: Nr:Datum:Temp:Feuchte:
G-T/H 401 28-02-2019 08:06:17 7.7 C 72 %
402 28-02-2019 08:18:18 7.6 C 72 %
403 28-02-2019 08:30:18 7.6 C 72 %
404 28-02-2019 08:42:18 7.6 C 72 %
405 28-02-2019 08:54:17 7.6 C 72 %
406 28-02-2019 09:06:17 7.6 C 72 %
407 28-02-2019 09:18:17 7.6 C 72 %
408 28-02-2019 09:30:17 7.6 C 72 %
409 28-02-2019 09:42:17 7.6 C 72 %
410 28-02-2019 09:54:17 7.6 C 73 %
411 28-02-2019 10:06:18 7.6 C 73 %
412 28-02-2019 10:18:18 7.6 C 73 %
413 28-02-2019 10:30:18 7.6 C 73 %
414 28-02-2019 10:42:18 7.6 C 73 %
415 28-02-2019 10:54:17 7.6 C 73 %
416 28-02-2019 11:06:17 7.6 C 73 %
417 28-02-2019 11:18:17 7.6 C 73 %
418 28-02-2019 11:30:17 7.6 C 73 %
419 28-02-2019 11:42:17 7.6 C 73 %
420 28-02-2019 11:54:17 7.7 C 73 %
421 28-02-2019 12:06:17 7.7 C 73 %
422 28-02-2019 12:18:18 7.7 C 73 %
423 28-02-2019 12:30:18 7.8 C 73 %
424 28-02-2019 12:42:18 7.8 C 74 %
425 28-02-2019 12:54:17 7.8 C 74 %
Sensor: Nr:Datum:Temp:Feuchte:
G-T/H 426 28-02-2019 13:06:17 7.8 C 74 %
427 28-02-2019 13:18:17 7.8 C 74 %
428 28-02-2019 13:30:17 7.9 C 74 %
429 28-02-2019 13:42:18 7.9 C 74 %
430 28-02-2019 13:54:17 7.9 C 74 %
431 28-02-2019 14:06:17 7.9 C 74 %
432 28-02-2019 14:18:17 8 C 73 %
433 28-02-2019 14:30:18 8 C 73 %
434 28-02-2019 14:42:18 8.1 C 73 %
435 28-02-2019 14:54:18 8.1 C 73 %
436 28-02-2019 15:06:18 8.2 C 73 %
437 28-02-2019 15:18:17 8.2 C 73 %
438 28-02-2019 15:30:17 8.2 C 73 %
439 28-02-2019 15:42:17 8.2 C 73 %
440 28-02-2019 15:54:17 8.3 C 73 %
441 28-02-2019 16:06:17 8.3 C 73 %
442 28-02-2019 16:18:17 8.3 C 73 %
443 28-02-2019 16:30:17 8.4 C 74 %
444 28-02-2019 16:42:17 8.4 C 74 %
445 28-02-2019 16:54:17 8.4 C 74 %
446 28-02-2019 17:06:17 8.4 C 74 %
447 28-02-2019 17:18:17 8.5 C 74 %
448 28-02-2019 17:30:18 8.5 C 74 %
449 28-02-2019 17:42:18 8.5 C 74 %
450 28-02-2019 17:54:17 8.5 C 74 %
Sensor: Nr:Datum:Temp:Feuchte:
G-T/H 451 28-02-2019 18:06:17 8.6 C 74 %
452 28-02-2019 18:18:17 8.6 C 74 %
453 28-02-2019 18:30:18 8.6 C 74 %
454 28-02-2019 18:42:18 8.6 C 74 %
455 28-02-2019 18:54:18 8.7 C 74 %
456 28-02-2019 19:06:18 8.7 C 74 %
457 28-02-2019 19:18:17 8.7 C 74 %
458 28-02-2019 19:30:17 8.7 C 74 %
459 28-02-2019 19:42:17 8.7 C 74 %
460 28-02-2019 19:54:17 8.7 C 74 %
461 28-02-2019 20:06:17 8.8 C 74 %
462 28-02-2019 20:18:17 8.8 C 74 %
463 28-02-2019 20:30:18 8.8 C 74 %
464 28-02-2019 20:42:18 8.8 C 74 %
465 28-02-2019 20:54:17 8.8 C 74 %
466 28-02-2019 21:06:17 8.9 C 74 %
467 28-02-2019 21:18:18 8.9 C 74 %
468 28-02-2019 21:30:17 8.9 C 74 %
469 28-02-2019 21:42:17 8.9 C 74 %
470 28-02-2019 21:54:17 8.9 C 74 %
471 28-02-2019 22:06:17 9 C 74 %
472 28-02-2019 22:18:17 9 C 74 %
473 28-02-2019 22:30:17 9 C 74 %
474 28-02-2019 22:42:17 9 C 74 %
475 28-02-2019 22:54:17 9 C 74 %
Sensor: Nr:Datum:Temp:Feuchte:
G-T/H 476 28-02-2019 23:06:17 9 C 74 %
477 28-02-2019 23:18:17 9 C 74 %
478 28-02-2019 23:30:17 9.1 C 74 %
479 28-02-2019 23:42:17 9 C 74 %
480 28-02-2019 23:54:17 9.1 C 74 %
481 01-03-2019 00:06:17 9.1 C 74 %
482 01-03-2019 00:18:17 9.1 C 74 %
483 01-03-2019 00:30:17 9.1 C 74 %
484 01-03-2019 00:42:18 9.1 C 74 %
485 01-03-2019 00:54:17 9.1 C 74 %
486 01-03-2019 01:06:18 9.1 C 74 %
487 01-03-2019 01:18:18 9.1 C 74 %
488 01-03-2019 01:30:18 9.1 C 74 %
489 01-03-2019 01:42:18 9.2 C 74 %
490 01-03-2019 01:54:17 9.2 C 74 %
491 01-03-2019 02:06:17 9.2 C 74 %
492 01-03-2019 02:18:17 9.2 C 74 %
493 01-03-2019 02:30:17 9.2 C 74 %
494 01-03-2019 02:42:17 9.2 C 74 %
495 01-03-2019 02:54:17 9.2 C 74 %
496 01-03-2019 03:06:17 9.2 C 74 %
497 01-03-2019 03:18:17 9.2 C 74 %
498 01-03-2019 03:30:17 9.2 C 74 %
499 01-03-2019 03:42:17 9.2 C 74 %
500 01-03-2019 03:54:17 9.2 C 74 %
Sensor: Nr:Datum:Temp:Feuchte:
G-T/H 501 01-03-2019 04:06:17 9.2 C 74 %
502 01-03-2019 04:18:17 9.2 C 74 %
503 01-03-2019 04:30:17 9.2 C 74 %
504 01-03-2019 04:42:17 9.3 C 74 %
505 01-03-2019 04:54:17 9.2 C 74 %
506 01-03-2019 05:06:17 9.2 C 74 %
507 01-03-2019 05:18:17 9.2 C 74 %
508 01-03-2019 05:30:17 9.3 C 74 %
509 01-03-2019 05:42:17 9.3 C 74 %
510 01-03-2019 05:54:17 9.2 C 75 %
511 01-03-2019 06:06:17 9.3 C 75 %
512 01-03-2019 06:18:17 9.3 C 75 %
513 01-03-2019 06:30:17 9.3 C 75 %
514 01-03-2019 06:42:17 9.3 C 75 %
515 01-03-2019 06:54:18 9.3 C 75 %
516 01-03-2019 07:06:17 9.2 C 75 %
517 01-03-2019 07:18:18 9.3 C 75 %
518 01-03-2019 07:30:17 9.3 C 75 %
519 01-03-2019 07:42:17 9.3 C 75 %
520 01-03-2019 07:54:17 9.3 C 75 %
521 01-03-2019 08:06:17 9.3 C 75 %
522 01-03-2019 08:18:17 9.3 C 75 %
523 01-03-2019 08:30:17 9.3 C 75 %
524 01-03-2019 08:42:18 9.3 C 75 %
525 01-03-2019 08:54:17 9.3 C 75 %
Sensor: Nr:Datum:Temp:Feuchte:
G-T/H 526 01-03-2019 09:06:17 9.3 C 75 %
527 01-03-2019 09:18:17 9.3 C 75 %
528 01-03-2019 09:30:17 9.3 C 75 %
529 01-03-2019 09:42:17 9.3 C 75 %
530 01-03-2019 09:54:17 9.3 C 75 %
531 01-03-2019 10:06:17 9.3 C 75 %
532 01-03-2019 10:18:18 9.4 C 75 %
533 01-03-2019 10:30:17 9.4 C 75 %
534 01-03-2019 10:42:17 9.3 C 75 %
535 01-03-2019 10:54:17 9.4 C 75 %
536 01-03-2019 11:06:17 9.4 C 75 %
537 01-03-2019 11:18:17 9.4 C 75 %
538 01-03-2019 11:30:18 9.4 C 75 %
539 01-03-2019 11:42:18 9.4 C 75 %
540 01-03-2019 11:54:18 9.4 C 75 %
541 01-03-2019 12:06:17 9.4 C 75 %
542 01-03-2019 12:18:17 9.5 C 75 %
543 01-03-2019 12:30:17 9.4 C 75 %
544 01-03-2019 12:42:17 9.5 C 75 %
545 01-03-2019 12:54:17 9.4 C 75 %
546 01-03-2019 13:06:17 9.4 C 75 %
547 01-03-2019 13:18:17 9.4 C 75 %
548 01-03-2019 13:30:17 9.5 C 75 %
549 01-03-2019 13:42:17 9.5 C 75 %
550 01-03-2019 13:54:17 9.5 C 75 %
Sensor: Nr:Datum:Temp:Feuchte:
G-T/H 551 01-03-2019 14:06:18 9.5 C 75 %
552 01-03-2019 14:18:18 9.5 C 75 %
553 01-03-2019 14:30:18 9.5 C 75 %
554 01-03-2019 14:42:18 9.4 C 75 %
555 01-03-2019 14:54:17 9.5 C 75 %
556 01-03-2019 15:06:17 9.4 C 75 %
557 01-03-2019 15:18:17 9.5 C 75 %
558 01-03-2019 15:30:18 9.5 C 75 %
559 01-03-2019 15:42:18 9.5 C 75 %
560 01-03-2019 15:54:17 9.5 C 75 %
561 01-03-2019 16:06:17 9.5 C 75 %
562 01-03-2019 16:18:17 9.5 C 75 %
563 01-03-2019 16:30:17 9.5 C 75 %
564 01-03-2019 16:42:18 9.5 C 75 %
565 01-03-2019 16:54:17 9.5 C 75 %
566 01-03-2019 17:06:18 9.5 C 75 %
567 01-03-2019 17:18:17 9.5 C 75 %
568 01-03-2019 17:30:17 9.5 C 75 %
569 01-03-2019 17:42:17 9.5 C 75 %
570 01-03-2019 17:54:17 9.5 C 75 %
571 01-03-2019 18:06:17 9.5 C 75 %
572 01-03-2019 18:18:17 9.5 C 75 %
573 01-03-2019 18:30:17 9.5 C 75 %
574 01-03-2019 18:42:17 9.5 C 75 %
575 01-03-2019 18:54:17 9.5 C 75 %
Sensor: Nr:Datum:Temp:Feuchte:
G-T/H 576 01-03-2019 19:06:17 9.5 C 75 %
577 01-03-2019 19:18:17 9.5 C 75 %
578 01-03-2019 19:30:17 9.5 C 75 %
579 01-03-2019 19:42:17 9.5 C 75 %
580 01-03-2019 19:54:17 9.5 C 75 %
581 01-03-2019 20:06:17 9.5 C 75 %
582 01-03-2019 20:18:17 9.5 C 75 %
583 01-03-2019 20:30:18 9.5 C 75 %
584 01-03-2019 20:42:18 9.5 C 75 %
585 01-03-2019 20:54:18 9.5 C 75 %
586 01-03-2019 21:06:18 9.5 C 75 %
587 01-03-2019 21:18:17 9.5 C 75 %
588 01-03-2019 21:30:17 9.5 C 75 %
589 01-03-2019 21:42:17 9.5 C 75 %
590 01-03-2019 21:54:17 9.5 C 75 %
591 01-03-2019 22:06:18 9.5 C 75 %
592 01-03-2019 22:18:17 9.5 C 75 %
593 01-03-2019 22:30:17 9.5 C 75 %
594 01-03-2019 22:42:17 9.5 C 75 %
595 01-03-2019 22:54:17 9.5 C 75 %
596 01-03-2019 23:06:17 9.5 C 75 %
597 01-03-2019 23:18:17 9.5 C 75 %
598 01-03-2019 23:30:17 9.5 C 75 %
599 01-03-2019 23:42:17 9.5 C 75 %
600 01-03-2019 23:54:17 9.5 C 75 %
Sensor: Nr:Datum:Temp:Feuchte:
G-T/H 601 02-03-2019 00:06:18 9.5 C 75 %
602 02-03-2019 00:18:18 9.4 C 75 %
603 02-03-2019 00:30:17 9.4 C 75 %
604 02-03-2019 00:42:17 9.4 C 75 %
605 02-03-2019 00:54:17 9.4 C 75 %
606 02-03-2019 01:06:17 9.4 C 75 %
607 02-03-2019 01:18:17 9.4 C 75 %
608 02-03-2019 01:30:17 9.4 C 75 %
609 02-03-2019 01:42:17 9.4 C 75 %
610 02-03-2019 01:54:17 9.4 C 75 %
611 02-03-2019 02:06:18 9.4 C 75 %
612 02-03-2019 02:18:17 9.3 C 75 %
613 02-03-2019 02:30:17 9.4 C 75 %
614 02-03-2019 02:42:17 9.4 C 75 %
615 02-03-2019 02:54:17 9.4 C 74 %
616 02-03-2019 03:06:17 9.4 C 74 %
617 02-03-2019 03:18:17 9.3 C 74 %
618 02-03-2019 03:30:17 9.4 C 74 %
619 02-03-2019 03:42:17 9.4 C 74 %
620 02-03-2019 03:54:17 9.3 C 74 %
621 02-03-2019 04:06:17 9.4 C 74 %
622 02-03-2019 04:18:18 9.3 C 74 %
623 02-03-2019 04:30:18 9.3 C 74 %
624 02-03-2019 04:42:18 9.3 C 74 %
625 02-03-2019 04:54:18 9.3 C 74 %
Sensor: Nr:Datum:Temp:Feuchte:
G-T/H 626 02-03-2019 05:06:17 9.3 C 74 %
627 02-03-2019 05:18:17 9.3 C 74 %
628 02-03-2019 05:30:17 9.3 C 74 %
629 02-03-2019 05:42:17 9.3 C 74 %
630 02-03-2019 05:54:17 9.3 C 74 %
631 02-03-2019 06:06:17 9.3 C 74 %
632 02-03-2019 06:18:17 9.3 C 74 %
633 02-03-2019 06:30:17 9.3 C 74 %
634 02-03-2019 06:42:18 9.3 C 74 %
635 02-03-2019 06:54:17 9.3 C 74 %
636 02-03-2019 07:06:18 9.3 C 74 %
637 02-03-2019 07:18:17 9.2 C 74 %
638 02-03-2019 07:30:17 9.3 C 75 %
639 02-03-2019 07:42:17 9.3 C 75 %
640 02-03-2019 07:54:17 9.3 C 75 %
641 02-03-2019 08:06:18 9.2 C 75 %
642 02-03-2019 08:18:17 9.3 C 75 %
643 02-03-2019 08:30:17 9.2 C 75 %
644 02-03-2019 08:42:17 9.3 C 75 %
645 02-03-2019 08:54:17 9.3 C 75 %
646 02-03-2019 09:06:17 9.2 C 75 %
647 02-03-2019 09:18:17 9.3 C 75 %
648 02-03-2019 09:30:17 9.2 C 75 %
649 02-03-2019 09:42:18 9.2 C 75 %
650 02-03-2019 09:54:17 9.2 C 75 %
Sensor: Nr:Datum:Temp:Feuchte:
G-T/H 651 02-03-2019 10:06:18 9.3 C 75 %
652 02-03-2019 10:18:17 9.3 C 75 %
653 02-03-2019 10:30:17 9.2 C 75 %
654 02-03-2019 10:42:17 9.3 C 75 %
655 02-03-2019 10:54:17 9.3 C 75 %
656 02-03-2019 11:06:17 9.2 C 75 %
657 02-03-2019 11:18:18 9.3 C 75 %
658 02-03-2019 11:30:18 9.3 C 75 %
659 02-03-2019 11:42:18 9.3 C 75 %
660 02-03-2019 11:54:18 9.3 C 75 %
661 02-03-2019 12:06:18 9.5 C 75 %
662 02-03-2019 12:18:17 9.5 C 75 %
663 02-03-2019 12:30:17 9.6 C 75 %
664 02-03-2019 12:42:17 9.6 C 74 %
665 02-03-2019 12:54:17 9.6 C 74 %
666 02-03-2019 13:06:18 9.6 C 74 %
667 02-03-2019 13:18:17 9.8 C 73 %
668 02-03-2019 13:30:17 9.8 C 73 %
669 02-03-2019 13:42:17 9.8 C 73 %
670 02-03-2019 13:54:17 9.9 C 73 %
671 02-03-2019 14:06:17 9.9 C 72 %
672 02-03-2019 14:18:17 10 C 71 %
673 02-03-2019 14:30:18 10 C 70 %
674 02-03-2019 14:42:18 10.1 C 70 %
675 02-03-2019 14:54:17 10.1 C 70 %
Sensor: Nr:Datum:Temp:Feuchte:
G-T/H 676 02-03-2019 15:06:17 10.1 C 70 %
677 02-03-2019 15:18:17 10.2 C 69 %
678 02-03-2019 15:30:18 10.3 C 69 %
679 02-03-2019 15:42:18 10.3 C 69 %
680 02-03-2019 15:54:17 10.4 C 68 %
681 02-03-2019 16:06:17 10.4 C 68 %
682 02-03-2019 16:18:18 10.5 C 68 %
683 02-03-2019 16:30:18 10.5 C 68 %
684 02-03-2019 16:42:18 10.5 C 67 %
685 02-03-2019 16:54:17 10.4 C 68 %
686 02-03-2019 17:06:17 10.2 C 68 %
687 02-03-2019 17:18:17 10.2 C 68 %
688 02-03-2019 17:30:18 10.2 C 69 %
689 02-03-2019 17:42:18 10.1 C 69 %
690 02-03-2019 17:54:18 10.1 C 69 %
691 02-03-2019 18:06:17 10.1 C 70 %
692 02-03-2019 18:18:17 10.1 C 70 %
693 02-03-2019 18:30:18 10.1 C 70 %
694 02-03-2019 18:42:18 10.1 C 70 %
695 02-03-2019 18:54:18 10.1 C 70 %
696 02-03-2019 19:06:18 10.1 C 71 %
697 02-03-2019 19:18:17 10.1 C 71 %
698 02-03-2019 19:30:17 10.1 C 71 %
699 02-03-2019 19:42:17 10.1 C 71 %
700 02-03-2019 19:54:17 10.1 C 71 %
Sensor: Nr:Datum:Temp:Feuchte:
G-T/H 701 02-03-2019 20:06:17 10.1 C 71 %
702 02-03-2019 20:18:17 10.1 C 71 %
703 02-03-2019 20:30:17 10.1 C 72 %
704 02-03-2019 20:42:17 10.1 C 72 %
705 02-03-2019 20:54:17 10.1 C 72 %
706 02-03-2019 21:06:17 10.1 C 72 %
707 02-03-2019 21:18:18 10.1 C 72 %
708 02-03-2019 21:30:17 10.1 C 72 %
709 02-03-2019 21:42:17 10.1 C 72 %
710 02-03-2019 21:54:17 10.1 C 72 %
711 02-03-2019 22:06:17 10.1 C 72 %
712 02-03-2019 22:18:17 10.1 C 72 %
713 02-03-2019 22:30:18 10.1 C 72 %
714 02-03-2019 22:42:18 10.1 C 72 %
715 02-03-2019 22:54:17 10.1 C 73 %
716 02-03-2019 23:06:18 10.1 C 73 %
717 02-03-2019 23:18:17 10.1 C 73 %
718 02-03-2019 23:30:17 10.1 C 73 %
719 02-03-2019 23:42:17 10.1 C 73 %
720 02-03-2019 23:54:18 10.1 C 73 %
721 03-03-2019 00:06:18 10.1 C 73 %
722 03-03-2019 00:18:17 10.1 C 73 %
723 03-03-2019 00:30:17 10.1 C 73 %
724 03-03-2019 00:42:17 10.1 C 73 %
725 03-03-2019 00:54:17 10.1 C 73 %
Sensor: Nr:Datum:Temp:Feuchte:
G-T/H 726 03-03-2019 01:06:18 10.1 C 73 %
727 03-03-2019 01:18:17 10.1 C 73 %
728 03-03-2019 01:30:17 10 C 73 %
729 03-03-2019 01:42:17 10.1 C 73 %
730 03-03-2019 01:54:17 10.1 C 73 %
731 03-03-2019 02:06:17 10.1 C 73 %
732 03-03-2019 02:18:18 10.1 C 73 %
733 03-03-2019 02:30:17 10.1 C 73 %
734 03-03-2019 02:42:17 10.1 C 73 %
735 03-03-2019 02:54:17 10.1 C 73 %
736 03-03-2019 03:06:17 10.1 C 73 %
737 03-03-2019 03:18:17 10.1 C 73 %
738 03-03-2019 03:30:17 10.1 C 73 %
739 03-03-2019 03:42:17 10.1 C 73 %
740 03-03-2019 03:54:17 10.1 C 73 %
741 03-03-2019 04:06:18 10.1 C 73 %
742 03-03-2019 04:18:17 10.1 C 73 %
743 03-03-2019 04:30:17 10.1 C 73 %
744 03-03-2019 04:42:17 10.1 C 73 %
745 03-03-2019 04:54:17 10.1 C 73 %
746 03-03-2019 05:06:17 10.1 C 73 %
747 03-03-2019 05:18:17 10.1 C 73 %
748 03-03-2019 05:30:17 10.1 C 73 %
749 03-03-2019 05:42:18 10.1 C 73 %
750 03-03-2019 05:54:17 10.1 C 73 %
Sensor: Nr:Datum:Temp:Feuchte:
G-T/H 751 03-03-2019 06:06:17 10.1 C 73 %
752 03-03-2019 06:18:17 10.1 C 73 %
753 03-03-2019 06:30:17 10.1 C 73 %
754 03-03-2019 06:42:17 10.1 C 73 %
755 03-03-2019 06:54:17 10.1 C 73 %
756 03-03-2019 07:06:18 10.1 C 73 %
757 03-03-2019 07:18:17 10.1 C 73 %
758 03-03-2019 07:30:17 10.1 C 73 %
759 03-03-2019 07:42:17 10.1 C 73 %
760 03-03-2019 07:54:17 10.1 C 73 %
761 03-03-2019 08:06:17 10.1 C 73 %
762 03-03-2019 08:18:17 10.1 C 73 %
763 03-03-2019 08:30:17 10.1 C 73 %
764 03-03-2019 08:42:17 10.1 C 73 %
765 03-03-2019 08:54:17 10.1 C 73 %
766 03-03-2019 09:06:17 10.1 C 73 %
767 03-03-2019 09:18:17 10.2 C 73 %
768 03-03-2019 09:30:17 10.2 C 73 %
769 03-03-2019 09:42:17 10.2 C 73 %
770 03-03-2019 09:54:17 10.2 C 73 %
771 03-03-2019 10:06:17 10.2 C 74 %
772 03-03-2019 10:18:17 10.2 C 74 %
773 03-03-2019 10:30:17 10.2 C 74 %
774 03-03-2019 10:42:17 10.2 C 74 %
775 03-03-2019 10:54:17 10.2 C 74 %
Sensor: Nr:Datum:Temp:Feuchte:
G-T/H 776 03-03-2019 11:06:17 10.2 C 74 %
777 03-03-2019 11:18:17 10.2 C 74 %
778 03-03-2019 11:30:17 10.2 C 74 %
779 03-03-2019 11:42:18 10.2 C 74 %
780 03-03-2019 11:54:18 10.2 C 74 %
781 03-03-2019 12:06:18 10.2 C 74 %
782 03-03-2019 12:18:17 10.2 C 74 %
783 03-03-2019 12:30:17 10.2 C 74 %
784 03-03-2019 12:42:17 10.3 C 74 %
785 03-03-2019 12:54:17 10.3 C 74 %
786 03-03-2019 13:06:17 10.3 C 74 %
787 03-03-2019 13:18:17 10.3 C 74 %
788 03-03-2019 13:30:18 10.3 C 74 %
789 03-03-2019 13:42:18 10.3 C 74 %
790 03-03-2019 13:54:17 10.3 C 74 %
791 03-03-2019 14:06:17 10.4 C 74 %
792 03-03-2019 14:18:17 10.4 C 74 %
793 03-03-2019 14:30:17 10.6 C 74 %
794 03-03-2019 14:42:18 10.7 C 74 %
795 03-03-2019 14:54:17 10.8 C 74 %
796 03-03-2019 15:06:17 10.8 C 73 %
797 03-03-2019 15:18:17 10.8 C 73 %
798 03-03-2019 15:30:17 10.7 C 73 %
799 03-03-2019 15:42:17 10.7 C 73 %
800 03-03-2019 15:54:17 10.7 C 73 %
Sensor: Nr:Datum:Temp:Feuchte:
G-T/H 801 03-03-2019 16:06:17 10.7 C 73 %
802 03-03-2019 16:18:17 10.6 C 73 %
803 03-03-2019 16:30:18 10.6 C 73 %
804 03-03-2019 16:42:18 10.7 C 73 %
805 03-03-2019 16:54:18 10.7 C 74 %
806 03-03-2019 17:06:17 10.7 C 74 %
807 03-03-2019 17:18:17 10.6 C 74 %
808 03-03-2019 17:30:17 10.7 C 74 %
809 03-03-2019 17:42:17 10.7 C 74 %
810 03-03-2019 17:54:17 10.7 C 74 %
811 03-03-2019 18:06:17 10.7 C 74 %
812 03-03-2019 18:18:17 10.7 C 74 %
813 03-03-2019 18:30:17 10.7 C 74 %
814 03-03-2019 18:42:17 10.7 C 74 %
815 03-03-2019 18:54:17 10.7 C 74 %
816 03-03-2019 19:06:17 10.7 C 74 %
817 03-03-2019 19:18:17 10.7 C 74 %
818 03-03-2019 19:30:17 10.7 C 74 %
819 03-03-2019 19:42:17 10.7 C 74 %
820 03-03-2019 19:54:17 10.7 C 74 %
821 03-03-2019 20:06:17 10.7 C 74 %
822 03-03-2019 20:18:18 10.7 C 74 %
823 03-03-2019 20:30:18 10.7 C 74 %
824 03-03-2019 20:42:18 10.7 C 74 %
825 03-03-2019 20:54:18 10.7 C 74 %
Sensor: Nr:Datum:Temp:Feuchte:
G-T/H 826 03-03-2019 21:06:18 10.7 C 74 %
827 03-03-2019 21:18:17 10.7 C 74 %
828 03-03-2019 21:30:17 10.7 C 74 %
829 03-03-2019 21:42:17 10.7 C 74 %
830 03-03-2019 21:54:18 10.7 C 74 %
831 03-03-2019 22:06:18 10.7 C 74 %
832 03-03-2019 22:18:17 10.7 C 74 %
833 03-03-2019 22:30:17 10.7 C 74 %
834 03-03-2019 22:42:17 10.7 C 74 %
835 03-03-2019 22:54:17 10.7 C 74 %
836 03-03-2019 23:06:17 10.7 C 74 %
837 03-03-2019 23:18:18 10.7 C 74 %
838 03-03-2019 23:30:18 10.7 C 74 %
839 03-03-2019 23:42:18 10.7 C 74 %
840 03-03-2019 23:54:17 10.7 C 74 %
841 04-03-2019 00:06:17 10.7 C 74 %
842 04-03-2019 00:18:17 10.7 C 74 %
843 04-03-2019 00:30:18 10.7 C 74 %
844 04-03-2019 00:42:18 10.7 C 74 %
845 04-03-2019 00:54:17 10.7 C 74 %
846 04-03-2019 01:06:17 10.8 C 74 %
847 04-03-2019 01:18:17 10.7 C 74 %
848 04-03-2019 01:30:17 10.7 C 74 %
849 04-03-2019 01:42:18 10.7 C 74 %
850 04-03-2019 01:54:18 10.8 C 74 %
Sensor: Nr:Datum:Temp:Feuchte:
G-T/H 851 04-03-2019 02:06:18 10.8 C 74 %
852 04-03-2019 02:18:17 10.8 C 74 %
853 04-03-2019 02:30:17 10.8 C 74 %
854 04-03-2019 02:42:17 10.8 C 74 %
855 04-03-2019 02:54:17 10.8 C 74 %
856 04-03-2019 03:06:17 10.8 C 75 %
857 04-03-2019 03:18:18 10.8 C 75 %
858 04-03-2019 03:30:18 10.8 C 75 %
859 04-03-2019 03:42:18 10.8 C 75 %
860 04-03-2019 03:54:17 10.8 C 75 %
861 04-03-2019 04:06:18 10.8 C 75 %
862 04-03-2019 04:18:18 10.8 C 75 %
863 04-03-2019 04:30:17 10.8 C 75 %
864 04-03-2019 04:42:17 10.8 C 75 %
865 04-03-2019 04:54:17 10.8 C 75 %
866 04-03-2019 05:06:17 10.8 C 75 %
867 04-03-2019 05:18:17 10.8 C 75 %
868 04-03-2019 05:30:18 10.8 C 75 %
869 04-03-2019 05:42:18 10.8 C 75 %
870 04-03-2019 05:54:17 10.8 C 75 %
871 04-03-2019 06:06:17 10.8 C 75 %
872 04-03-2019 06:18:17 10.8 C 75 %
873 04-03-2019 06:30:18 10.7 C 75 %
874 04-03-2019 06:42:18 10.7 C 75 %
875 04-03-2019 06:54:18 10.7 C 75 %
Sensor: Nr:Datum:Temp:Feuchte:
G-T/H 876 04-03-2019 07:06:17 10.8 C 75 %
877 04-03-2019 07:18:17 10.8 C 75 %
878 04-03-2019 07:30:17 10.8 C 75 %
879 04-03-2019 07:42:17 10.8 C 75 %
880 04-03-2019 07:54:17 10.8 C 75 %
881 04-03-2019 08:06:18 10.8 C 75 %
882 04-03-2019 08:18:17 10.8 C 75 %
883 04-03-2019 08:30:17 10.8 C 75 %
884 04-03-2019 08:42:17 10.8 C 75 %
885 04-03-2019 08:54:17 10.8 C 75 %
886 04-03-2019 09:06:17 10.8 C 75 %
887 04-03-2019 09:18:17 10.8 C 74 %
888 04-03-2019 09:30:18 10.7 C 74 %
889 04-03-2019 09:42:18 10.7 C 74 %
890 04-03-2019 09:54:17 10.7 C 74 %
891 04-03-2019 10:06:17 10.7 C 73 %
892 04-03-2019 10:18:17 10.7 C 73 %
893 04-03-2019 10:30:17 10.7 C 74 %
894 04-03-2019 10:42:17 10.7 C 74 %
895 04-03-2019 10:54:17 10.7 C 74 %
896 04-03-2019 11:06:18 10.7 C 74 %
897 04-03-2019 11:18:17 10.7 C 74 %
898 04-03-2019 11:30:17 10.7 C 74 %
899 04-03-2019 11:42:17 10.7 C 74 %
900 04-03-2019 11:54:17 10.7 C 74 %
Sensor: Nr:Datum:Temp:Feuchte:
G-T/H 901 04-03-2019 12:06:17 10.7 C 74 %
902 04-03-2019 12:18:17 10.7 C 74 %
903 04-03-2019 12:30:17 10.7 C 74 %
904 04-03-2019 12:42:17 10.7 C 74 %
905 04-03-2019 12:54:17 10.7 C 74 %
906 04-03-2019 13:06:17 10.7 C 74 %
907 04-03-2019 13:18:17 10.7 C 74 %
908 04-03-2019 13:30:17 10.7 C 74 %
909 04-03-2019 13:42:17 10.7 C 74 %
910 04-03-2019 13:54:17 10.7 C 74 %
911 04-03-2019 14:06:17 10.7 C 74 %
912 04-03-2019 14:18:18 10.8 C 74 %
913 04-03-2019 14:30:18 10.7 C 74 %
914 04-03-2019 14:42:18 10.8 C 74 %
915 04-03-2019 14:54:17 10.7 C 74 %
916 04-03-2019 15:06:17 10.7 C 74 %
917 04-03-2019 15:18:17 10.7 C 74 %
918 04-03-2019 15:30:17 10.7 C 74 %
919 04-03-2019 15:42:17 10.7 C 74 %
920 04-03-2019 15:54:17 10.6 C 73 %
921 04-03-2019 16:06:17 10.6 C 73 %
922 04-03-2019 16:18:18 10.6 C 73 %
923 04-03-2019 16:30:17 10.6 C 72 %
924 04-03-2019 16:42:17 10.6 C 72 %
925 04-03-2019 16:54:17 10.5 C 72 %
Sensor: Nr:Datum:Temp:Feuchte:
G-T/H 926 04-03-2019 17:06:17 10.5 C 72 %
927 04-03-2019 17:18:17 10.5 C 71 %
928 04-03-2019 17:30:17 10.5 C 71 %
929 04-03-2019 17:42:17 10.5 C 71 %
930 04-03-2019 17:54:17 10.5 C 71 %
931 04-03-2019 18:06:17 10.4 C 71 %
932 04-03-2019 18:18:18 10.4 C 71 %
933 04-03-2019 18:30:17 10.4 C 70 %
934 04-03-2019 18:42:17 10.4 C 70 %
935 04-03-2019 18:54:17 10.4 C 70 %
936 04-03-2019 19:06:17 10.4 C 70 %
937 04-03-2019 19:18:17 10.3 C 70 %
938 04-03-2019 19:30:18 10.3 C 70 %
939 04-03-2019 19:42:18 10.3 C 70 %
940 04-03-2019 19:54:17 10.3 C 70 %
941 04-03-2019 20:06:17 10.3 C 70 %
942 04-03-2019 20:18:17 10.3 C 70 %
943 04-03-2019 20:30:18 10.2 C 69 %
944 04-03-2019 20:42:18 10.2 C 69 %
945 04-03-2019 20:54:18 10.2 C 69 %
946 04-03-2019 21:06:18 10.2 C 69 %
947 04-03-2019 21:18:17 10.2 C 70 %
948 04-03-2019 21:30:17 10.2 C 70 %
949 04-03-2019 21:42:17 10.3 C 70 %
950 04-03-2019 21:54:17 10.2 C 70 %
Sensor: Nr:Datum:Temp:Feuchte:
G-T/H 951 04-03-2019 22:06:18 10.2 C 70 %
952 04-03-2019 22:18:17 10.3 C 71 %
953 04-03-2019 22:30:17 10.3 C 71 %
954 04-03-2019 22:42:17 10.2 C 71 %
955 04-03-2019 22:54:17 10.2 C 71 %
956 04-03-2019 23:06:17 10.2 C 71 %
957 04-03-2019 23:18:17 10.2 C 71 %
958 04-03-2019 23:30:18 10.2 C 71 %
959 04-03-2019 23:42:18 10.2 C 71 %
960 04-03-2019 23:54:17 10.1 C 71 %
961 05-03-2019 00:06:17 10.1 C 70 %
962 05-03-2019 00:18:18 10.1 C 70 %
963 05-03-2019 00:30:18 10.1 C 70 %
964 05-03-2019 00:42:18 10 C 70 %
965 05-03-2019 00:54:18 10 C 70 %
966 05-03-2019 01:06:18 10 C 70 %
967 05-03-2019 01:18:18 10 C 69 %
968 05-03-2019 01:30:18 10 C 69 %
969 05-03-2019 01:42:18 10 C 69 %
970 05-03-2019 01:54:17 10 C 69 %
971 05-03-2019 02:06:17 9.9 C 70 %
972 05-03-2019 02:18:17 9.9 C 70 %
973 05-03-2019 02:30:17 9.9 C 70 %
974 05-03-2019 02:42:17 9.9 C 70 %
975 05-03-2019 02:54:17 9.8 C 70 %
Sensor: Nr:Datum:Temp:Feuchte:
G-T/H 976 05-03-2019 03:06:17 9.8 C 70 %
977 05-03-2019 03:18:17 9.8 C 70 %
978 05-03-2019 03:30:17 9.9 C 70 %
979 05-03-2019 03:42:17 9.8 C 69 %
980 05-03-2019 03:54:17 9.8 C 69 %
981 05-03-2019 04:06:17 9.8 C 69 %
982 05-03-2019 04:18:17 9.8 C 69 %
983 05-03-2019 04:30:17 9.8 C 69 %
984 05-03-2019 04:42:17 9.8 C 70 %
985 05-03-2019 04:54:17 9.8 C 70 %
986 05-03-2019 05:06:17 9.8 C 70 %
987 05-03-2019 05:18:18 9.8 C 70 %
988 05-03-2019 05:30:18 9.8 C 70 %
989 05-03-2019 05:42:18 9.8 C 70 %
990 05-03-2019 05:54:18 9.8 C 71 %
991 05-03-2019 06:06:17 9.8 C 71 %
992 05-03-2019 06:18:17 9.8 C 71 %
993 05-03-2019 06:30:17 9.7 C 71 %
994 05-03-2019 06:42:18 9.7 C 71 %
995 05-03-2019 06:54:18 9.7 C 71 %
996 05-03-2019 07:06:18 9.7 C 71 %
997 05-03-2019 07:18:17 9.7 C 71 %
998 05-03-2019 07:30:17 9.7 C 71 %
999 05-03-2019 07:42:17 9.7 C 71 %
1000 05-03-2019 07:54:17 9.7 C 71 %
Sensor: Nr:Datum:Temp:Feuchte:
G-T/H 1001 05-03-2019 08:06:18 9.7 C 71 %
1002 05-03-2019 08:18:17 9.7 C 71 %
1003 05-03-2019 08:30:17 9.7 C 71 %
1004 05-03-2019 08:42:17 9.7 C 71 %
1005 05-03-2019 08:54:17 9.7 C 71 %
1006 05-03-2019 09:06:17 9.7 C 71 %
1007 05-03-2019 09:18:17 9.7 C 71 %
1008 05-03-2019 09:30:17 9.7 C 71 %
1009 05-03-2019 09:42:17 9.6 C 72 %
1010 05-03-2019 09:54:17 9.7 C 72 %
1011 05-03-2019 10:06:18 9.6 C 72 %
1012 05-03-2019 10:18:17 9.6 C 72 %
1013 05-03-2019 10:30:18 9.6 C 72 %
1014 05-03-2019 10:42:18 9.6 C 72 %
1015 05-03-2019 10:54:17 9.6 C 72 %
1016 05-03-2019 11:06:17 9.6 C 72 %
1017 05-03-2019 11:18:17 9.6 C 72 %
1018 05-03-2019 11:30:17 9.6 C 72 %
1019 05-03-2019 11:42:17 9.6 C 72 %
1020 05-03-2019 11:54:17 9.6 C 72 %
1021 05-03-2019 12:06:17 9.6 C 72 %
1022 05-03-2019 12:18:17 9.6 C 72 %
1023 05-03-2019 12:30:18 9.6 C 72 %
1024 05-03-2019 12:42:18 9.6 C 72 %
1025 05-03-2019 12:54:17 9.6 C 72 %
Sensor: Nr:Datum:Temp:Feuchte:
G-T/H 1026 05-03-2019 13:06:17 9.6 C 72 %
1027 05-03-2019 13:18:17 9.6 C 72 %
1028 05-03-2019 13:30:17 9.6 C 72 %
1029 05-03-2019 13:42:17 9.6 C 72 %
1030 05-03-2019 13:54:17 9.6 C 72 %
1031 05-03-2019 14:06:17 9.6 C 72 %
1032 05-03-2019 14:18:17 9.6 C 72 %
1033 05-03-2019 14:30:17 9.6 C 72 %
1034 05-03-2019 14:42:17 9.6 C 72 %
1035 05-03-2019 14:54:17 9.6 C 72 %
1036 05-03-2019 15:06:18 9.6 C 72 %
1037 05-03-2019 15:18:17 9.6 C 72 %
1038 05-03-2019 15:30:17 9.6 C 72 %
1039 05-03-2019 15:42:17 9.6 C 72 %
1040 05-03-2019 15:54:18 9.7 C 72 %
1041 05-03-2019 16:06:17 9.7 C 72 %
1042 05-03-2019 16:18:16 9.6 C 73 %
1043 05-03-2019 16:30:17 9.6 C 73 %
1044 05-03-2019 16:42:17 9.7 C 73 %
1045 05-03-2019 16:54:17 9.6 C 73 %
1046 05-03-2019 17:06:18 9.7 C 73 %
1047 05-03-2019 17:18:17 9.7 C 73 %
1048 05-03-2019 17:30:17 9.7 C 73 %
1049 05-03-2019 17:42:17 9.6 C 73 %
1050 05-03-2019 17:54:17 9.7 C 73 %
Sensor: Nr:Datum:Temp:Feuchte:
G-T/H 1051 05-03-2019 18:06:18 9.7 C 73 %
1052 05-03-2019 18:18:17 9.7 C 73 %
1053 05-03-2019 18:30:17 9.7 C 73 %
1054 05-03-2019 18:42:17 9.7 C 73 %
1055 05-03-2019 18:54:17 9.7 C 73 %
1056 05-03-2019 19:06:17 9.7 C 73 %
1057 05-03-2019 19:18:17 9.7 C 73 %
1058 05-03-2019 19:30:17 9.7 C 73 %
1059 05-03-2019 19:42:17 9.7 C 73 %
1060 05-03-2019 19:54:17 9.7 C 73 %
1061 05-03-2019 20:06:18 9.7 C 73 %
1062 05-03-2019 20:18:17 9.7 C 73 %
1063 05-03-2019 20:30:17 9.7 C 73 %
1064 05-03-2019 20:42:17 9.7 C 73 %
1065 05-03-2019 20:54:17 9.7 C 73 %
1066 05-03-2019 21:06:17 9.7 C 73 %
1067 05-03-2019 21:18:17 9.7 C 73 %
1068 05-03-2019 21:30:17 9.6 C 73 %
1069 05-03-2019 21:42:17 9.6 C 73 %
1070 05-03-2019 21:54:18 9.6 C 73 %
1071 05-03-2019 22:06:17 9.6 C 73 %
1072 05-03-2019 22:18:17 9.6 C 73 %
1073 05-03-2019 22:30:18 9.6 C 73 %
1074 05-03-2019 22:42:18 9.6 C 73 %
1075 05-03-2019 22:54:17 9.6 C 73 %
Sensor: Nr:Datum:Temp:Feuchte:
G-T/H 1076 05-03-2019 23:06:17 9.6 C 73 %
1077 05-03-2019 23:18:18 9.6 C 73 %
1078 05-03-2019 23:30:17 9.6 C 73 %
1079 05-03-2019 23:42:17 9.6 C 73 %
1080 05-03-2019 23:54:17 9.5 C 73 %
1081 06-03-2019 00:06:18 9.5 C 73 %
1082 06-03-2019 00:18:17 9.5 C 73 %
1083 06-03-2019 00:30:17 9.5 C 73 %
1084 06-03-2019 00:42:17 9.5 C 73 %
1085 06-03-2019 00:54:17 9.5 C 73 %
1086 06-03-2019 01:06:18 9.5 C 73 %
1087 06-03-2019 01:18:17 9.5 C 73 %
1088 06-03-2019 01:30:17 9.5 C 73 %
1089 06-03-2019 01:42:17 9.5 C 73 %
1090 06-03-2019 01:54:17 9.5 C 73 %
1091 06-03-2019 02:06:17 9.5 C 73 %
1092 06-03-2019 02:18:17 9.5 C 73 %
1093 06-03-2019 02:30:17 9.5 C 73 %
1094 06-03-2019 02:42:17 9.5 C 73 %
1095 06-03-2019 02:54:17 9.5 C 73 %
1096 06-03-2019 03:06:18 9.5 C 73 %
1097 06-03-2019 03:18:17 9.5 C 73 %
1098 06-03-2019 03:30:17 9.5 C 73 %
1099 06-03-2019 03:42:17 9.5 C 73 %
1100 06-03-2019 03:54:17 9.5 C 73 %
Sensor: Nr:Datum:Temp:Feuchte:
G-T/H 1101 06-03-2019 04:06:18 9.4 C 73 %
1102 06-03-2019 04:18:17 9.5 C 73 %
1103 06-03-2019 04:30:17 9.4 C 73 %
1104 06-03-2019 04:42:17 9.4 C 73 %
1105 06-03-2019 04:54:17 9.4 C 73 %
1106 06-03-2019 05:06:17 9.4 C 73 %
1107 06-03-2019 05:18:17 9.4 C 73 %
1108 06-03-2019 05:30:17 9.4 C 73 %
1109 06-03-2019 05:42:17 9.4 C 73 %
1110 06-03-2019 05:54:17 9.4 C 73 %
1111 06-03-2019 06:06:17 9.4 C 73 %
1112 06-03-2019 06:18:17 9.4 C 73 %
1113 06-03-2019 06:30:18 9.4 C 73 %
1114 06-03-2019 06:42:18 9.4 C 73 %
1115 06-03-2019 06:54:17 9.4 C 73 %
1116 06-03-2019 07:06:17 9.4 C 73 %
1117 06-03-2019 07:18:17 9.4 C 73 %
1118 06-03-2019 07:30:17 9.3 C 73 %
1119 06-03-2019 07:42:17 9.3 C 73 %
1120 06-03-2019 07:54:17 9.3 C 73 %
1121 06-03-2019 08:06:17 9.3 C 73 %
1122 06-03-2019 08:18:17 9.4 C 73 %
1123 06-03-2019 08:30:17 9.3 C 73 %
1124 06-03-2019 08:42:17 9.3 C 73 %
1125 06-03-2019 08:54:17 9.3 C 73 %
Sensor: Nr:Datum:Temp:Feuchte:
G-T/H 1126 06-03-2019 09:06:17 9.3 C 73 %
1127 06-03-2019 09:18:17 9.3 C 73 %
1128 06-03-2019 09:30:17 9.3 C 73 %
1129 06-03-2019 09:42:17 9.4 C 73 %
1130 06-03-2019 09:54:17 9.3 C 73 %
1131 06-03-2019 10:06:17 9.3 C 73 %
1132 06-03-2019 10:18:17 9.4 C 73 %
1133 06-03-2019 10:30:17 9.3 C 73 %
1134 06-03-2019 10:42:17 9.3 C 74 %
1135 06-03-2019 10:54:17 9.3 C 74 %
1136 06-03-2019 11:06:17 9.4 C 74 %
1137 06-03-2019 11:18:18 9.4 C 74 %
1138 06-03-2019 11:30:17 9.4 C 74 %
1139 06-03-2019 11:42:17 9.4 C 74 %
1140 06-03-2019 11:54:17 9.4 C 74 %
1141 06-03-2019 12:06:18 9.5 C 74 %
1142 06-03-2019 12:18:17 9.5 C 74 %
1143 06-03-2019 12:30:17 9.5 C 74 %
1144 06-03-2019 12:42:17 9.5 C 74 %
1145 06-03-2019 12:54:17 9.5 C 74 %
1146 06-03-2019 13:06:18 9.5 C 74 %
1147 06-03-2019 13:18:17 9.6 C 74 %
1148 06-03-2019 13:30:17 9.6 C 74 %
1149 06-03-2019 13:42:17 9.6 C 74 %
1150 06-03-2019 13:54:17 9.6 C 74 %
Sensor: Nr:Datum:Temp:Feuchte:
G-T/H 1151 06-03-2019 14:06:18 9.7 C 74 %
1152 06-03-2019 14:18:17 9.7 C 74 %
1153 06-03-2019 14:30:17 9.7 C 74 %
1154 06-03-2019 14:42:17 9.7 C 74 %
1155 06-03-2019 14:54:17 9.8 C 74 %
1156 06-03-2019 15:06:17 9.7 C 74 %
1157 06-03-2019 15:18:17 9.8 C 74 %
1158 06-03-2019 15:30:17 9.8 C 74 %
1159 06-03-2019 15:42:17 9.8 C 74 %
1160 06-03-2019 15:54:17 9.9 C 74 %
1161 06-03-2019 16:06:17 9.9 C 74 %
1162 06-03-2019 16:18:17 9.9 C 74 %
1163 06-03-2019 16:30:17 9.9 C 74 %
1164 06-03-2019 16:42:17 10 C 73 %
1165 06-03-2019 16:54:17 10 C 73 %
1166 06-03-2019 17:06:17 10 C 73 %
1167 06-03-2019 17:18:17 10 C 73 %
1168 06-03-2019 17:30:17 10.1 C 73 %
1169 06-03-2019 17:42:17 10 C 73 %
1170 06-03-2019 17:54:17 10.1 C 73 %
1171 06-03-2019 18:06:17 10.1 C 73 %
1172 06-03-2019 18:18:17 10.1 C 73 %
1173 06-03-2019 18:30:17 10.1 C 73 %
1174 06-03-2019 18:42:17 10.1 C 73 %
1175 06-03-2019 18:54:17 10.2 C 73 %
Sensor: Nr:Datum:Temp:Feuchte:
G-T/H 1176 06-03-2019 19:06:17 10.2 C 73 %
1177 06-03-2019 19:18:17 10.2 C 73 %
1178 06-03-2019 19:30:17 10.2 C 73 %
1179 06-03-2019 19:42:17 10.2 C 74 %
1180 06-03-2019 19:54:17 10.2 C 74 %
1181 06-03-2019 20:06:17 10.2 C 74 %
1182 06-03-2019 20:18:17 10.2 C 74 %
1183 06-03-2019 20:30:17 10.2 C 74 %
1184 06-03-2019 20:42:17 10.2 C 74 %
1185 06-03-2019 20:54:17 10.2 C 74 %
1186 06-03-2019 21:06:17 10.3 C 74 %
1187 06-03-2019 21:18:17 10.2 C 74 %
1188 06-03-2019 21:30:17 10.3 C 74 %
1189 06-03-2019 21:42:17 10.3 C 74 %
1190 06-03-2019 21:54:17 10.3 C 74 %
1191 06-03-2019 22:06:18 10.3 C 74 %
1192 06-03-2019 22:18:17 10.3 C 74 %
1193 06-03-2019 22:30:17 10.3 C 74 %
1194 06-03-2019 22:42:17 10.4 C 74 %
1195 06-03-2019 22:54:17 10.4 C 74 %
1196 06-03-2019 23:06:17 10.4 C 74 %
1197 06-03-2019 23:18:17 10.4 C 74 %
1198 06-03-2019 23:30:17 10.4 C 74 %
1199 06-03-2019 23:42:17 10.4 C 74 %
1200 06-03-2019 23:54:17 10.4 C 74 %
Sensor: Nr:Datum:Temp:Feuchte:
G-T/H 1201 07-03-2019 00:06:17 10.4 C 74 %
1202 07-03-2019 00:18:17 10.4 C 74 %
1203 07-03-2019 00:30:17 10.4 C 74 %
1204 07-03-2019 00:42:18 10.4 C 74 %
1205 07-03-2019 00:54:17 10.4 C 74 %
1206 07-03-2019 01:06:17 10.4 C 74 %
1207 07-03-2019 01:18:17 10.4 C 74 %
1208 07-03-2019 01:30:17 10.4 C 74 %
1209 07-03-2019 01:42:17 10.4 C 74 %
1210 07-03-2019 01:54:17 10.4 C 74 %
1211 07-03-2019 02:06:17 10.4 C 74 %
1212 07-03-2019 02:18:17 10.4 C 74 %
1213 07-03-2019 02:30:17 10.4 C 74 %
1214 07-03-2019 02:42:17 10.4 C 74 %
1215 07-03-2019 02:54:17 10.4 C 74 %
1216 07-03-2019 03:06:17 10.4 C 74 %
1217 07-03-2019 03:18:17 10.4 C 74 %
1218 07-03-2019 03:30:18 10.4 C 74 %
1219 07-03-2019 03:42:18 10.4 C 74 %
1220 07-03-2019 03:54:17 10.4 C 74 %
1221 07-03-2019 04:06:17 10.4 C 74 %
1222 07-03-2019 04:18:17 10.4 C 74 %
1223 07-03-2019 04:30:17 10.5 C 74 %
1224 07-03-2019 04:42:17 10.4 C 74 %
1225 07-03-2019 04:54:17 10.5 C 74 %
Sensor: Nr:Datum:Temp:Feuchte:
G-T/H 1226 07-03-2019 05:06:17 10.5 C 75 %
1227 07-03-2019 05:19:17 10.5 C 75 %
1228 07-03-2019 05:30:17 10.5 C 75 %
1229 07-03-2019 05:42:17 10.5 C 75 %
1230 07-03-2019 05:54:17 10.5 C 74 %
1231 07-03-2019 06:06:17 10.5 C 74 %
1232 07-03-2019 06:18:17 10.5 C 74 %
1233 07-03-2019 06:30:18 10.5 C 74 %
1234 07-03-2019 06:42:18 10.5 C 74 %
1235 07-03-2019 06:55:17 10.5 C 74 %
1236 07-03-2019 07:06:17 10.5 C 74 %
1237 07-03-2019 07:18:18 10.5 C 74 %
1238 07-03-2019 07:31:17 10.5 C 74 %
1239 07-03-2019 07:42:17 10.5 C 74 %
1240 07-03-2019 07:54:17 10.5 C 74 %
1241 07-03-2019 08:06:17 10.5 C 74 %
1242 07-03-2019 08:19:17 10.5 C 74 %
1243 07-03-2019 08:30:17 10.5 C 74 %
1244 07-03-2019 08:42:17 10.5 C 74 %
1245 07-03-2019 08:54:17 10.5 C 74 %
1246 07-03-2019 09:06:17 10.5 C 74 %
1247 07-03-2019 09:19:17 10.5 C 74 %
1248 07-03-2019 09:30:17 10.5 C 74 %
1249 07-03-2019 09:42:17 10.5 C 74 %
1250 07-03-2019 09:54:17 10.5 C 74 %
Sensor: Nr:Datum:Temp:Feuchte:
G-T/H 1251 07-03-2019 10:07:17 10.5 C 74 %
1252 07-03-2019 10:19:17 10.5 C 74 %
1253 07-03-2019 10:30:17 10.5 C 74 %
1254 07-03-2019 10:42:17 10.5 C 74 %
1255 07-03-2019 10:54:17 10.5 C 74 %
1256 07-03-2019 11:07:17 10.5 C 74 %
1257 07-03-2019 11:19:17 10.5 C 74 %
1258 07-03-2019 11:30:17 10.5 C 74 %
1259 07-03-2019 11:42:17 10.5 C 74 %
1260 07-03-2019 11:55:17 10.5 C 74 %
1261 07-03-2019 12:07:17 10.5 C 74 %
1262 07-03-2019 12:18:17 10.5 C 74 %
1263 07-03-2019 12:30:18 10.5 C 74 %
1264 07-03-2019 12:42:18 10.5 C 74 %
1265 07-03-2019 12:55:17 10.5 C 74 %
1266 07-03-2019 13:07:17 10.5 C 74 %
1267 07-03-2019 13:18:18 10.5 C 74 %
1268 07-03-2019 13:31:17 10.6 C 74 %
1269 07-03-2019 13:43:17 10.6 C 74 %
1270 07-03-2019 13:55:17 10.6 C 74 %
1271 07-03-2019 14:06:17 10.6 C 74 %
1272 07-03-2019 14:19:17 10.5 C 74 %
1273 07-03-2019 14:31:17 10.5 C 74 %
1274 07-03-2019 14:43:17 10.6 C 74 %
1275 07-03-2019 14:55:17 10.6 C 74 %
Sensor: Nr:Datum:Temp:Feuchte:
G-T/H 1276 07-03-2019 15:06:17 10.6 C 74 %
1277 07-03-2019 15:19:17 10.6 C 74 %
1278 07-03-2019 15:31:17 10.6 C 74 %
1279 07-03-2019 15:43:17 10.6 C 74 %
1280 07-03-2019 15:55:17 10.6 C 74 %
1281 07-03-2019 16:07:17 10.6 C 74 %
1282 07-03-2019 16:19:17 10.6 C 74 %
1283 07-03-2019 16:31:17 10.6 C 74 %
1284 07-03-2019 16:43:17 10.6 C 74 %
1285 07-03-2019 16:55:17 10.6 C 74 %
1286 07-03-2019 17:07:18 10.6 C 74 %
1287 07-03-2019 17:19:17 10.6 C 74 %
1288 07-03-2019 17:31:17 10.6 C 74 %
1289 07-03-2019 17:43:18 10.6 C 74 %
1290 07-03-2019 17:55:17 10.6 C 74 %
1291 07-03-2019 18:06:18 10.6 C 74 %
1292 07-03-2019 18:19:17 10.6 C 74 %
1293 07-03-2019 18:31:17 10.5 C 74 %
1294 07-03-2019 18:43:17 10.5 C 74 %
1295 07-03-2019 18:55:17 10.5 C 73 %
1296 07-03-2019 19:07:17 10.5 C 73 %
1297 07-03-2019 19:19:17 10.5 C 72 %
1298 07-03-2019 19:31:17 10.5 C 72 %
1299 07-03-2019 19:43:17 10.5 C 72 %
1300 07-03-2019 19:55:17 10.5 C 73 %
Sensor: Nr:Datum:Temp:Feuchte:
G-T/H 1301 07-03-2019 20:06:18 10.5 C 73 %
1302 07-03-2019 20:19:17 10.5 C 73 %
1303 07-03-2019 20:31:17 10.5 C 73 %
1304 07-03-2019 20:43:17 10.4 C 72 %
1305 07-03-2019 20:55:18 10.4 C 72 %
1306 07-03-2019 21:07:17 10.4 C 72 %
1307 07-03-2019 21:19:17 10.4 C 72 %
1308 07-03-2019 21:31:17 10.4 C 72 %
1309 07-03-2019 21:43:18 10.4 C 72 %
1310 07-03-2019 21:55:17 10.4 C 72 %
1311 07-03-2019 22:07:17 10.4 C 72 %
1312 07-03-2019 22:19:18 10.4 C 72 %
1313 07-03-2019 22:31:17 10.4 C 72 %
1314 07-03-2019 22:43:17